<?xml version="1.0" encoding="UTF-8" standalone="no" ?>
<gpx xmlns="http://www.topografix.com/GPX/1/1" xmlns:xsi="http://www.w3.org/2001/XMLSchema-instance" xsi:schemaLocation="http://www.topografix.com/GPX/1/1 http://www.topografix.com/GPX/1/1/gpx.xsd" version="1.1" creator="VisuGPX - https://www.visugpx.com">
  <metadata>
    <name>Chemin de St Regis, Variante courte, 81_km</name>
    <desc><![CDATA[
<html dir="ltr"><head></head><body contenteditable="true">comment ...</body></html>]]></desc>
  </metadata>
  <trk>
    <name><![CDATA[Chemin de St Regis, Variante courte, 81 km]]></name>
    <desc><![CDATA[<html dir="ltr"><head></head><body contenteditable="true">comment ...</body></html>]]></desc>
    <extensions>
      <line xmlns="http://www.topografix.com/GPX/gpx_style/0/2">
        <color>0000FF</color>
        <width>4</width>
      </line>
    </extensions>
    <trkseg>
      <trkpt lat="44.93929" lon="3.99628">
        <ele>949</ele>
        <time>2023-02-07T16:08:16Z</time>
      </trkpt>
      <trkpt lat="44.93929" lon="3.99628">
        <ele>949</ele>
        <time>2023-02-07T16:08:16Z</time>
      </trkpt>
      <trkpt lat="44.93917" lon="3.99626">
        <ele>949</ele>
        <time>2023-02-07T16:08:16Z</time>
      </trkpt>
      <trkpt lat="44.93917" lon="3.99611">
        <ele>948</ele>
        <time>2023-02-07T16:08:16Z</time>
      </trkpt>
      <trkpt lat="44.93964" lon="3.99597">
        <ele>948</ele>
        <time>2023-02-07T16:08:16Z</time>
      </trkpt>
      <trkpt lat="44.93985" lon="3.99596">
        <ele>948</ele>
        <time>2023-02-07T16:08:16Z</time>
      </trkpt>
      <trkpt lat="44.94029" lon="3.99609">
        <ele>949</ele>
      </trkpt>
      <trkpt lat="44.94073" lon="3.99623">
        <ele>951</ele>
      </trkpt>
      <trkpt lat="44.94117" lon="3.99636">
        <ele>953</ele>
      </trkpt>
      <trkpt lat="44.94161" lon="3.99649">
        <ele>956</ele>
        <time>2023-02-07T16:08:16Z</time>
      </trkpt>
      <trkpt lat="44.94191" lon="3.99607">
        <ele>958</ele>
      </trkpt>
      <trkpt lat="44.9422" lon="3.99565">
        <ele>959</ele>
        <time>2023-02-07T16:08:16Z</time>
      </trkpt>
      <trkpt lat="44.94255" lon="3.99557">
        <ele>960</ele>
        <time>2023-02-07T16:08:16Z</time>
      </trkpt>
      <trkpt lat="44.94324" lon="3.99572">
        <ele>962</ele>
        <time>2023-02-07T16:08:16Z</time>
      </trkpt>
      <trkpt lat="44.94359" lon="3.99544">
        <ele>964</ele>
      </trkpt>
      <trkpt lat="44.94394" lon="3.99516">
        <ele>965</ele>
        <time>2023-02-07T16:08:16Z</time>
      </trkpt>
      <trkpt lat="44.94433" lon="3.99505">
        <ele>967</ele>
        <time>2023-02-07T16:08:16Z</time>
      </trkpt>
      <trkpt lat="44.9448" lon="3.99473">
        <ele>968</ele>
        <time>2023-02-07T16:08:16Z</time>
      </trkpt>
      <trkpt lat="44.94556" lon="3.99473">
        <ele>972</ele>
        <time>2023-02-07T16:08:16Z</time>
      </trkpt>
      <trkpt lat="44.946" lon="3.99492">
        <ele>977</ele>
        <time>2023-02-07T16:08:16Z</time>
      </trkpt>
      <trkpt lat="44.9467" lon="3.99501">
        <ele>986</ele>
        <time>2023-02-07T16:08:16Z</time>
      </trkpt>
      <trkpt lat="44.94656" lon="3.99544">
        <ele>994</ele>
        <time>2023-02-07T16:08:16Z</time>
      </trkpt>
      <trkpt lat="44.94617" lon="3.99592">
        <ele>1001</ele>
      </trkpt>
      <trkpt lat="44.94577" lon="3.9964">
        <ele>1007</ele>
        <time>2023-02-07T16:08:16Z</time>
      </trkpt>
      <trkpt lat="44.94542" lon="3.99735">
        <ele>1012</ele>
        <time>2023-02-07T16:08:16Z</time>
      </trkpt>
      <trkpt lat="44.94548" lon="3.99789">
        <ele>1016</ele>
      </trkpt>
      <trkpt lat="44.94553" lon="3.99842">
        <ele>1019</ele>
        <time>2023-02-07T16:08:16Z</time>
      </trkpt>
      <trkpt lat="44.94567" lon="3.99939">
        <ele>1020</ele>
        <time>2023-02-07T16:08:16Z</time>
      </trkpt>
      <trkpt lat="44.94568" lon="3.99996">
        <ele>1021</ele>
        <time>2023-02-07T16:08:16Z</time>
      </trkpt>
      <trkpt lat="44.94578" lon="4.0009">
        <ele>1022</ele>
      </trkpt>
      <trkpt lat="44.94588" lon="4.00183">
        <ele>1023</ele>
        <time>2023-02-07T16:08:16Z</time>
      </trkpt>
      <trkpt lat="44.94618" lon="4.00209">
        <ele>1024</ele>
        <time>2023-02-07T16:08:16Z</time>
      </trkpt>
      <trkpt lat="44.94627" lon="4.00279">
        <ele>1026</ele>
      </trkpt>
      <trkpt lat="44.94635" lon="4.00348">
        <ele>1027</ele>
        <time>2023-02-07T16:08:16Z</time>
      </trkpt>
      <trkpt lat="44.94641" lon="4.00411">
        <ele>1029</ele>
      </trkpt>
      <trkpt lat="44.94647" lon="4.00473">
        <ele>1030</ele>
        <time>2023-02-07T16:08:16Z</time>
      </trkpt>
      <trkpt lat="44.94612" lon="4.00567">
        <ele>1032</ele>
        <time>2023-02-07T16:08:16Z</time>
      </trkpt>
      <trkpt lat="44.94594" lon="4.00649">
        <ele>1033</ele>
        <time>2023-02-07T16:08:16Z</time>
      </trkpt>
      <trkpt lat="44.94591" lon="4.00707">
        <ele>1034</ele>
      </trkpt>
      <trkpt lat="44.94588" lon="4.00765">
        <ele>1035</ele>
        <time>2023-02-07T16:08:16Z</time>
      </trkpt>
      <trkpt lat="44.94588" lon="4.00833">
        <ele>1036</ele>
      </trkpt>
      <trkpt lat="44.94588" lon="4.00902">
        <ele>1036</ele>
        <time>2023-02-07T16:08:16Z</time>
      </trkpt>
      <trkpt lat="44.94592" lon="4.00971">
        <ele>1037</ele>
      </trkpt>
      <trkpt lat="44.94596" lon="4.01039">
        <ele>1038</ele>
        <time>2023-02-07T16:08:16Z</time>
      </trkpt>
      <trkpt lat="44.94561" lon="4.01102">
        <ele>1038</ele>
        <time>2023-02-07T16:08:16Z</time>
      </trkpt>
      <trkpt lat="44.94554" lon="4.01126">
        <ele>1039</ele>
        <time>2023-02-07T16:08:16Z</time>
      </trkpt>
      <trkpt lat="44.94569" lon="4.01201">
        <ele>1040</ele>
      </trkpt>
      <trkpt lat="44.94584" lon="4.01276">
        <ele>1042</ele>
        <time>2023-02-07T16:08:16Z</time>
      </trkpt>
      <trkpt lat="44.94593" lon="4.01302">
        <ele>1043</ele>
        <time>2023-02-07T16:08:16Z</time>
      </trkpt>
      <trkpt lat="44.946" lon="4.01361">
        <ele>1044</ele>
      </trkpt>
      <trkpt lat="44.94606" lon="4.01419">
        <ele>1046</ele>
        <time>2023-02-07T16:08:16Z</time>
      </trkpt>
      <trkpt lat="44.946" lon="4.01477">
        <ele>1048</ele>
        <time>2023-02-07T16:08:16Z</time>
      </trkpt>
      <trkpt lat="44.94579" lon="4.01551">
        <ele>1050</ele>
      </trkpt>
      <trkpt lat="44.94557" lon="4.01624">
        <ele>1053</ele>
        <time>2023-02-07T16:08:16Z</time>
      </trkpt>
      <trkpt lat="44.94557" lon="4.01637">
        <ele>1055</ele>
        <time>2023-02-07T16:08:16Z</time>
      </trkpt>
      <trkpt lat="44.94538" lon="4.01702">
        <ele>1057</ele>
      </trkpt>
      <trkpt lat="44.94518" lon="4.01767">
        <ele>1059</ele>
        <time>2023-02-07T16:08:16Z</time>
      </trkpt>
      <trkpt lat="44.9451" lon="4.01842">
        <ele>1062</ele>
      </trkpt>
      <trkpt lat="44.94502" lon="4.01916">
        <ele>1065</ele>
      </trkpt>
      <trkpt lat="44.94494" lon="4.01991">
        <ele>1068</ele>
      </trkpt>
      <trkpt lat="44.94486" lon="4.02065">
        <ele>1071</ele>
      </trkpt>
      <trkpt lat="44.94477" lon="4.0214">
        <ele>1074</ele>
      </trkpt>
      <trkpt lat="44.94469" lon="4.02215">
        <ele>1076</ele>
      </trkpt>
      <trkpt lat="44.94461" lon="4.02289">
        <ele>1078</ele>
      </trkpt>
      <trkpt lat="44.94453" lon="4.02364">
        <ele>1080</ele>
        <time>2023-02-07T16:08:16Z</time>
      </trkpt>
      <trkpt lat="44.94455" lon="4.0242">
        <ele>1081</ele>
        <time>2023-02-07T16:08:16Z</time>
      </trkpt>
      <trkpt lat="44.94448" lon="4.02457">
        <ele>1082</ele>
        <time>2023-02-07T16:08:16Z</time>
      </trkpt>
      <trkpt lat="44.94428" lon="4.02516">
        <ele>1083</ele>
      </trkpt>
      <trkpt lat="44.94408" lon="4.02575">
        <ele>1084</ele>
      </trkpt>
      <trkpt lat="44.94388" lon="4.02634">
        <ele>1085</ele>
      </trkpt>
      <trkpt lat="44.94368" lon="4.02693">
        <ele>1085</ele>
        <time>2023-02-07T16:08:16Z</time>
      </trkpt>
      <trkpt lat="44.94352" lon="4.02761">
        <ele>1086</ele>
      </trkpt>
      <trkpt lat="44.94336" lon="4.02829">
        <ele>1086</ele>
        <time>2023-02-07T16:08:16Z</time>
      </trkpt>
      <trkpt lat="44.9432" lon="4.02863">
        <ele>1087</ele>
        <time>2023-02-07T16:08:16Z</time>
      </trkpt>
      <trkpt lat="44.94289" lon="4.02909">
        <ele>1088</ele>
        <time>2023-02-07T16:08:16Z</time>
      </trkpt>
      <trkpt lat="44.94266" lon="4.02975">
        <ele>1088</ele>
      </trkpt>
      <trkpt lat="44.94242" lon="4.0304">
        <ele>1089</ele>
        <time>2023-02-07T16:08:16Z</time>
      </trkpt>
      <trkpt lat="44.94216" lon="4.03081">
        <ele>1089</ele>
      </trkpt>
      <trkpt lat="44.9419" lon="4.03122">
        <ele>1089</ele>
        <time>2023-02-07T16:08:16Z</time>
      </trkpt>
      <trkpt lat="44.94185" lon="4.03135">
        <ele>1090</ele>
        <time>2023-02-07T16:08:16Z</time>
      </trkpt>
      <trkpt lat="44.94133" lon="4.03349">
        <ele>1088</ele>
        <time>2023-02-07T16:08:16Z</time>
      </trkpt>
      <trkpt lat="44.94134" lon="4.03413">
        <ele>1087</ele>
      </trkpt>
      <trkpt lat="44.94134" lon="4.03477">
        <ele>1087</ele>
      </trkpt>
      <trkpt lat="44.94135" lon="4.0354">
        <ele>1087</ele>
      </trkpt>
      <trkpt lat="44.94136" lon="4.03604">
        <ele>1087</ele>
      </trkpt>
      <trkpt lat="44.94136" lon="4.03668">
        <ele>1087</ele>
      </trkpt>
      <trkpt lat="44.94137" lon="4.03732">
        <ele>1088</ele>
      </trkpt>
      <trkpt lat="44.94137" lon="4.03795">
        <ele>1088</ele>
      </trkpt>
      <trkpt lat="44.94138" lon="4.03859">
        <ele>1087</ele>
        <time>2023-02-07T16:08:16Z</time>
      </trkpt>
      <trkpt lat="44.94147" lon="4.03885">
        <ele>1087</ele>
        <time>2023-02-07T16:08:16Z</time>
      </trkpt>
      <trkpt lat="44.94183" lon="4.03966">
        <ele>1088</ele>
        <time>2023-02-07T16:08:16Z</time>
      </trkpt>
      <trkpt lat="44.94187" lon="4.03984">
        <ele>1088</ele>
        <time>2023-02-07T16:08:16Z</time>
      </trkpt>
      <trkpt lat="44.94187" lon="4.04019">
        <ele>1089</ele>
        <time>2023-02-07T16:08:16Z</time>
      </trkpt>
      <trkpt lat="44.94191" lon="4.0403">
        <ele>1089</ele>
        <time>2023-02-07T16:08:16Z</time>
      </trkpt>
      <trkpt lat="44.94217" lon="4.04062">
        <ele>1091</ele>
        <time>2023-02-07T16:08:16Z</time>
      </trkpt>
      <trkpt lat="44.94231" lon="4.04071">
        <ele>1092</ele>
        <time>2023-02-07T16:08:16Z</time>
      </trkpt>
      <trkpt lat="44.9424" lon="4.0408">
        <ele>1093</ele>
        <time>2023-02-07T16:08:16Z</time>
      </trkpt>
      <trkpt lat="44.94244" lon="4.04089">
        <ele>1094</ele>
        <time>2023-02-07T16:08:16Z</time>
      </trkpt>
      <trkpt lat="44.94269" lon="4.04166">
        <ele>1095</ele>
      </trkpt>
      <trkpt lat="44.94293" lon="4.04242">
        <ele>1097</ele>
        <time>2023-02-07T16:08:16Z</time>
      </trkpt>
      <trkpt lat="44.94312" lon="4.04286">
        <ele>1099</ele>
        <time>2023-02-07T16:08:16Z</time>
      </trkpt>
      <trkpt lat="44.94325" lon="4.04336">
        <ele>1101</ele>
        <time>2023-02-07T16:08:16Z</time>
      </trkpt>
      <trkpt lat="44.94346" lon="4.04364">
        <ele>1102</ele>
        <time>2023-02-07T16:08:16Z</time>
      </trkpt>
      <trkpt lat="44.94403" lon="4.04422">
        <ele>1103</ele>
        <time>2023-02-07T16:08:16Z</time>
      </trkpt>
      <trkpt lat="44.94427" lon="4.04453">
        <ele>1103</ele>
        <time>2023-02-07T16:08:16Z</time>
      </trkpt>
      <trkpt lat="44.94482" lon="4.04507">
        <ele>1103</ele>
      </trkpt>
      <trkpt lat="44.94538" lon="4.04562">
        <ele>1103</ele>
      </trkpt>
      <trkpt lat="44.94593" lon="4.04616">
        <ele>1101</ele>
      </trkpt>
      <trkpt lat="44.94648" lon="4.04671">
        <ele>1100</ele>
        <time>2023-02-07T16:08:16Z</time>
      </trkpt>
      <trkpt lat="44.94658" lon="4.04686">
        <ele>1099</ele>
        <time>2023-02-07T16:08:16Z</time>
      </trkpt>
      <trkpt lat="44.94631" lon="4.04707">
        <ele>1099</ele>
        <time>2023-02-07T16:08:16Z</time>
      </trkpt>
      <trkpt lat="44.94621" lon="4.04726">
        <ele>1098</ele>
        <time>2023-02-07T16:08:16Z</time>
      </trkpt>
      <trkpt lat="44.94621" lon="4.04726">
        <ele>1097</ele>
        <time>2023-02-07T16:08:16Z</time>
      </trkpt>
      <trkpt lat="44.94628" lon="4.04712">
        <ele>1097</ele>
        <time>2023-02-07T16:08:16Z</time>
      </trkpt>
      <trkpt lat="44.94653" lon="4.0469">
        <ele>1097</ele>
        <time>2023-02-07T16:08:16Z</time>
      </trkpt>
      <trkpt lat="44.94663" lon="4.04696">
        <ele>1097</ele>
        <time>2023-02-07T16:08:16Z</time>
      </trkpt>
      <trkpt lat="44.9463" lon="4.04735">
        <ele>1097</ele>
      </trkpt>
      <trkpt lat="44.94597" lon="4.04773">
        <ele>1096</ele>
        <time>2023-02-07T16:08:16Z</time>
      </trkpt>
      <trkpt lat="44.94584" lon="4.04828">
        <ele>1095</ele>
      </trkpt>
      <trkpt lat="44.94571" lon="4.04883">
        <ele>1093</ele>
      </trkpt>
      <trkpt lat="44.94558" lon="4.04937">
        <ele>1090</ele>
      </trkpt>
      <trkpt lat="44.94545" lon="4.04992">
        <ele>1087</ele>
        <time>2023-02-07T16:08:16Z</time>
      </trkpt>
      <trkpt lat="44.94492" lon="4.0508">
        <ele>1082</ele>
      </trkpt>
      <trkpt lat="44.94439" lon="4.05168">
        <ele>1079</ele>
        <time>2023-02-07T16:08:16Z</time>
      </trkpt>
      <trkpt lat="44.94403" lon="4.05208">
        <ele>1077</ele>
      </trkpt>
      <trkpt lat="44.94366" lon="4.05247">
        <ele>1076</ele>
        <time>2023-02-07T16:08:16Z</time>
      </trkpt>
      <trkpt lat="44.9434" lon="4.05307">
        <ele>1076</ele>
        <time>2023-02-07T16:08:16Z</time>
      </trkpt>
      <trkpt lat="44.94278" lon="4.05334">
        <ele>1076</ele>
      </trkpt>
      <trkpt lat="44.94216" lon="4.05361">
        <ele>1078</ele>
        <time>2023-02-07T16:08:16Z</time>
      </trkpt>
      <trkpt lat="44.94174" lon="4.05389">
        <ele>1080</ele>
      </trkpt>
      <trkpt lat="44.94131" lon="4.05417">
        <ele>1081</ele>
        <time>2023-02-07T16:08:16Z</time>
      </trkpt>
      <trkpt lat="44.94108" lon="4.05445">
        <ele>1083</ele>
        <time>2023-02-07T16:08:16Z</time>
      </trkpt>
      <trkpt lat="44.94117" lon="4.05513">
        <ele>1084</ele>
        <time>2023-02-07T16:08:16Z</time>
      </trkpt>
      <trkpt lat="44.94083" lon="4.05575">
        <ele>1087</ele>
      </trkpt>
      <trkpt lat="44.94049" lon="4.05636">
        <ele>1092</ele>
        <time>2023-02-07T16:08:16Z</time>
      </trkpt>
      <trkpt lat="44.9402" lon="4.05689">
        <ele>1096</ele>
      </trkpt>
      <trkpt lat="44.9399" lon="4.05741">
        <ele>1100</ele>
        <time>2023-02-07T16:08:16Z</time>
      </trkpt>
      <trkpt lat="44.93973" lon="4.05819">
        <ele>1106</ele>
      </trkpt>
      <trkpt lat="44.93955" lon="4.05897">
        <ele>1111</ele>
        <time>2023-02-07T16:08:16Z</time>
      </trkpt>
      <trkpt lat="44.93938" lon="4.05951">
        <ele>1114</ele>
        <time>2023-02-07T16:08:16Z</time>
      </trkpt>
      <trkpt lat="44.93873" lon="4.05979">
        <ele>1116</ele>
        <time>2023-02-07T16:08:16Z</time>
      </trkpt>
      <trkpt lat="44.93843" lon="4.06062">
        <ele>1120</ele>
      </trkpt>
      <trkpt lat="44.93812" lon="4.06144">
        <ele>1123</ele>
        <time>2023-02-07T16:08:16Z</time>
      </trkpt>
      <trkpt lat="44.93795" lon="4.06202">
        <ele>1127</ele>
      </trkpt>
      <trkpt lat="44.93778" lon="4.0626">
        <ele>1131</ele>
        <time>2023-02-07T16:08:16Z</time>
      </trkpt>
      <trkpt lat="44.93769" lon="4.06323">
        <ele>1134</ele>
      </trkpt>
      <trkpt lat="44.93759" lon="4.06387">
        <ele>1137</ele>
        <time>2023-02-07T16:08:16Z</time>
      </trkpt>
      <trkpt lat="44.93769" lon="4.06445">
        <ele>1140</ele>
      </trkpt>
      <trkpt lat="44.93778" lon="4.06504">
        <ele>1142</ele>
        <time>2023-02-07T16:08:16Z</time>
      </trkpt>
      <trkpt lat="44.93794" lon="4.06578">
        <ele>1145</ele>
        <time>2023-02-07T16:08:16Z</time>
      </trkpt>
      <trkpt lat="44.93821" lon="4.06663">
        <ele>1147</ele>
      </trkpt>
      <trkpt lat="44.93848" lon="4.06747">
        <ele>1150</ele>
        <time>2023-02-07T16:08:16Z</time>
      </trkpt>
      <trkpt lat="44.93877" lon="4.06844">
        <ele>1154</ele>
        <time>2023-02-07T16:08:16Z</time>
      </trkpt>
      <trkpt lat="44.93929" lon="4.06846">
        <ele>1159</ele>
        <time>2023-02-07T16:08:16Z</time>
      </trkpt>
      <trkpt lat="44.93961" lon="4.06912">
        <ele>1164</ele>
      </trkpt>
      <trkpt lat="44.93993" lon="4.06979">
        <ele>1168</ele>
        <time>2023-02-07T16:08:16Z</time>
      </trkpt>
      <trkpt lat="44.93965" lon="4.07052">
        <ele>1172</ele>
      </trkpt>
      <trkpt lat="44.93936" lon="4.07125">
        <ele>1175</ele>
        <time>2023-02-07T16:08:16Z</time>
      </trkpt>
      <trkpt lat="44.93942" lon="4.07226">
        <ele>1178</ele>
        <time>2023-02-07T16:08:16Z</time>
      </trkpt>
      <trkpt lat="44.9398" lon="4.07462">
        <ele>1187</ele>
        <time>2023-02-07T16:08:16Z</time>
      </trkpt>
      <trkpt lat="44.93992" lon="4.0751">
        <ele>1187</ele>
      </trkpt>
      <trkpt lat="44.94003" lon="4.07558">
        <ele>1187</ele>
        <time>2023-02-07T16:08:16Z</time>
      </trkpt>
      <trkpt lat="44.94002" lon="4.07642">
        <ele>1187</ele>
        <time>2023-02-07T16:08:16Z</time>
      </trkpt>
      <trkpt lat="44.9402" lon="4.0771">
        <ele>1187</ele>
        <time>2023-02-07T16:08:16Z</time>
      </trkpt>
      <trkpt lat="44.94011" lon="4.07709">
        <ele>1188</ele>
        <time>2023-02-07T16:08:16Z</time>
      </trkpt>
      <trkpt lat="44.94011" lon="4.07721">
        <ele>1188</ele>
        <time>2023-02-07T16:08:16Z</time>
      </trkpt>
      <trkpt lat="44.94015" lon="4.07775">
        <ele>1188</ele>
        <time>2023-02-07T16:08:16Z</time>
      </trkpt>
      <trkpt lat="44.94006" lon="4.07845">
        <ele>1188</ele>
        <time>2023-02-07T16:08:16Z</time>
      </trkpt>
      <trkpt lat="44.93989" lon="4.07902">
        <ele>1188</ele>
        <time>2023-02-07T16:08:16Z</time>
      </trkpt>
      <trkpt lat="44.94001" lon="4.07925">
        <ele>1187</ele>
        <time>2023-02-07T16:08:16Z</time>
      </trkpt>
      <trkpt lat="44.94029" lon="4.07963">
        <ele>1187</ele>
        <time>2023-02-07T16:08:16Z</time>
      </trkpt>
      <trkpt lat="44.94049" lon="4.08019">
        <ele>1188</ele>
      </trkpt>
      <trkpt lat="44.94068" lon="4.08075">
        <ele>1188</ele>
        <time>2023-02-07T16:08:16Z</time>
      </trkpt>
      <trkpt lat="44.94102" lon="4.08127">
        <ele>1188</ele>
      </trkpt>
      <trkpt lat="44.94135" lon="4.08179">
        <ele>1189</ele>
        <time>2023-02-07T16:08:16Z</time>
      </trkpt>
      <trkpt lat="44.94164" lon="4.08254">
        <ele>1189</ele>
      </trkpt>
      <trkpt lat="44.94192" lon="4.08328">
        <ele>1190</ele>
        <time>2023-02-07T16:08:16Z</time>
      </trkpt>
      <trkpt lat="44.94189" lon="4.08379">
        <ele>1192</ele>
      </trkpt>
      <trkpt lat="44.94185" lon="4.0843">
        <ele>1193</ele>
      </trkpt>
      <trkpt lat="44.94182" lon="4.08482">
        <ele>1194</ele>
      </trkpt>
      <trkpt lat="44.94178" lon="4.08533">
        <ele>1195</ele>
        <time>2023-02-07T16:08:16Z</time>
      </trkpt>
      <trkpt lat="44.94165" lon="4.08615">
        <ele>1195</ele>
      </trkpt>
      <trkpt lat="44.94152" lon="4.08696">
        <ele>1197</ele>
      </trkpt>
      <trkpt lat="44.94139" lon="4.08777">
        <ele>1198</ele>
      </trkpt>
      <trkpt lat="44.94126" lon="4.08859">
        <ele>1201</ele>
        <time>2023-02-07T16:08:16Z</time>
      </trkpt>
      <trkpt lat="44.94118" lon="4.08909">
        <ele>1203</ele>
      </trkpt>
      <trkpt lat="44.9411" lon="4.08958">
        <ele>1204</ele>
      </trkpt>
      <trkpt lat="44.94101" lon="4.09008">
        <ele>1206</ele>
      </trkpt>
      <trkpt lat="44.94093" lon="4.09058">
        <ele>1207</ele>
        <time>2023-02-07T16:08:16Z</time>
      </trkpt>
      <trkpt lat="44.94135" lon="4.09074">
        <ele>1209</ele>
      </trkpt>
      <trkpt lat="44.94176" lon="4.0909">
        <ele>1210</ele>
        <time>2023-02-07T16:08:16Z</time>
      </trkpt>
      <trkpt lat="44.94215" lon="4.09082">
        <ele>1210</ele>
      </trkpt>
      <trkpt lat="44.94254" lon="4.09073">
        <ele>1210</ele>
        <time>2023-02-07T16:08:16Z</time>
      </trkpt>
      <trkpt lat="44.94294" lon="4.09015">
        <ele>1210</ele>
      </trkpt>
      <trkpt lat="44.94333" lon="4.08958">
        <ele>1208</ele>
      </trkpt>
      <trkpt lat="44.94373" lon="4.089">
        <ele>1206</ele>
      </trkpt>
      <trkpt lat="44.94412" lon="4.08842">
        <ele>1202</ele>
        <time>2023-02-07T16:08:16Z</time>
      </trkpt>
      <trkpt lat="44.9443" lon="4.08888">
        <ele>1199</ele>
      </trkpt>
      <trkpt lat="44.94448" lon="4.08934">
        <ele>1196</ele>
      </trkpt>
      <trkpt lat="44.94466" lon="4.0898">
        <ele>1195</ele>
      </trkpt>
      <trkpt lat="44.94484" lon="4.09026">
        <ele>1194</ele>
        <time>2023-02-07T16:08:16Z</time>
      </trkpt>
      <trkpt lat="44.94535" lon="4.08968">
        <ele>1190</ele>
      </trkpt>
      <trkpt lat="44.94585" lon="4.0891">
        <ele>1184</ele>
        <time>2023-02-07T16:08:16Z</time>
      </trkpt>
      <trkpt lat="44.9465" lon="4.08891">
        <ele>1177</ele>
      </trkpt>
      <trkpt lat="44.94715" lon="4.08872">
        <ele>1166</ele>
        <time>2023-02-07T16:08:16Z</time>
      </trkpt>
      <trkpt lat="44.94728" lon="4.08939">
        <ele>1157</ele>
      </trkpt>
      <trkpt lat="44.94741" lon="4.09007">
        <ele>1150</ele>
      </trkpt>
      <trkpt lat="44.94754" lon="4.09075">
        <ele>1144</ele>
      </trkpt>
      <trkpt lat="44.94767" lon="4.09142">
        <ele>1138</ele>
        <time>2023-02-07T16:08:16Z</time>
      </trkpt>
      <trkpt lat="44.94819" lon="4.09117">
        <ele>1134</ele>
      </trkpt>
      <trkpt lat="44.9487" lon="4.09091">
        <ele>1133</ele>
        <time>2023-02-07T16:08:16Z</time>
      </trkpt>
      <trkpt lat="44.94908" lon="4.09022">
        <ele>1133</ele>
      </trkpt>
      <trkpt lat="44.94946" lon="4.08953">
        <ele>1134</ele>
        <time>2023-02-07T16:08:16Z</time>
      </trkpt>
      <trkpt lat="44.94981" lon="4.08883">
        <ele>1136</ele>
      </trkpt>
      <trkpt lat="44.95016" lon="4.08812">
        <ele>1139</ele>
        <time>2023-02-07T16:08:16Z</time>
      </trkpt>
      <trkpt lat="44.95018" lon="4.08867">
        <ele>1142</ele>
      </trkpt>
      <trkpt lat="44.95019" lon="4.08922">
        <ele>1146</ele>
      </trkpt>
      <trkpt lat="44.95021" lon="4.08976">
        <ele>1150</ele>
      </trkpt>
      <trkpt lat="44.95022" lon="4.09031">
        <ele>1155</ele>
        <time>2023-02-07T16:08:16Z</time>
      </trkpt>
      <trkpt lat="44.95069" lon="4.08988">
        <ele>1160</ele>
      </trkpt>
      <trkpt lat="44.95116" lon="4.08945">
        <ele>1164</ele>
        <time>2023-02-07T16:08:16Z</time>
      </trkpt>
      <trkpt lat="44.95162" lon="4.08996">
        <ele>1167</ele>
        <time>2023-02-07T16:08:16Z</time>
      </trkpt>
      <trkpt lat="44.95215" lon="4.08946">
        <ele>1170</ele>
      </trkpt>
      <trkpt lat="44.95268" lon="4.08897">
        <ele>1173</ele>
        <time>2023-02-07T16:08:16Z</time>
      </trkpt>
      <trkpt lat="44.95323" lon="4.0887">
        <ele>1174</ele>
      </trkpt>
      <trkpt lat="44.95377" lon="4.08842">
        <ele>1176</ele>
        <time>2023-02-07T16:08:16Z</time>
      </trkpt>
      <trkpt lat="44.95403" lon="4.08876">
        <ele>1177</ele>
      </trkpt>
      <trkpt lat="44.95429" lon="4.0891">
        <ele>1179</ele>
      </trkpt>
      <trkpt lat="44.95481" lon="4.08979">
        <ele>1181</ele>
        <time>2023-02-07T16:08:16Z</time>
      </trkpt>
      <trkpt lat="44.95434" lon="4.0904">
        <ele>1182</ele>
      </trkpt>
      <trkpt lat="44.95387" lon="4.09101">
        <ele>1182</ele>
      </trkpt>
      <trkpt lat="44.95339" lon="4.09162">
        <ele>1181</ele>
      </trkpt>
      <trkpt lat="44.95292" lon="4.09223">
        <ele>1180</ele>
        <time>2023-02-07T16:08:16Z</time>
      </trkpt>
      <trkpt lat="44.95341" lon="4.09222">
        <ele>1179</ele>
      </trkpt>
      <trkpt lat="44.9539" lon="4.09221">
        <ele>1178</ele>
      </trkpt>
      <trkpt lat="44.95438" lon="4.0922">
        <ele>1177</ele>
      </trkpt>
      <trkpt lat="44.95487" lon="4.09219">
        <ele>1174</ele>
        <time>2023-02-07T16:08:16Z</time>
      </trkpt>
      <trkpt lat="44.9548" lon="4.09298">
        <ele>1171</ele>
      </trkpt>
      <trkpt lat="44.95472" lon="4.09378">
        <ele>1168</ele>
        <time>2023-02-07T16:08:16Z</time>
      </trkpt>
      <trkpt lat="44.95477" lon="4.09445">
        <ele>1165</ele>
      </trkpt>
      <trkpt lat="44.95481" lon="4.09511">
        <ele>1163</ele>
        <time>2023-02-07T16:08:16Z</time>
      </trkpt>
      <trkpt lat="44.95463" lon="4.09555">
        <ele>1162</ele>
      </trkpt>
      <trkpt lat="44.95445" lon="4.09599">
        <ele>1161</ele>
      </trkpt>
      <trkpt lat="44.95426" lon="4.09643">
        <ele>1161</ele>
      </trkpt>
      <trkpt lat="44.95408" lon="4.09687">
        <ele>1161</ele>
        <time>2023-02-07T16:08:16Z</time>
      </trkpt>
      <trkpt lat="44.95428" lon="4.09741">
        <ele>1160</ele>
      </trkpt>
      <trkpt lat="44.95447" lon="4.09794">
        <ele>1160</ele>
        <time>2023-02-07T16:08:16Z</time>
      </trkpt>
      <trkpt lat="44.95476" lon="4.09854">
        <ele>1160</ele>
      </trkpt>
      <trkpt lat="44.95505" lon="4.09915">
        <ele>1161</ele>
        <time>2023-02-07T16:08:16Z</time>
      </trkpt>
      <trkpt lat="44.955" lon="4.09967">
        <ele>1161</ele>
      </trkpt>
      <trkpt lat="44.95495" lon="4.10018">
        <ele>1162</ele>
        <time>2023-02-07T16:08:16Z</time>
      </trkpt>
      <trkpt lat="44.95496" lon="4.09996">
        <ele>1163</ele>
        <time>2023-02-07T16:08:16Z</time>
      </trkpt>
      <trkpt lat="44.95496" lon="4.09996">
        <ele>1165</ele>
        <time>2023-02-07T16:08:16Z</time>
      </trkpt>
      <trkpt lat="44.95498" lon="4.10009">
        <ele>1165</ele>
        <time>2023-02-07T16:08:16Z</time>
      </trkpt>
      <trkpt lat="44.9549" lon="4.10021">
        <ele>1165</ele>
        <time>2023-02-07T16:08:16Z</time>
      </trkpt>
      <trkpt lat="44.95492" lon="4.10049">
        <ele>1165</ele>
        <time>2023-02-07T16:08:16Z</time>
      </trkpt>
      <trkpt lat="44.95476" lon="4.10104">
        <ele>1166</ele>
        <time>2023-02-07T16:08:16Z</time>
      </trkpt>
      <trkpt lat="44.95445" lon="4.10154">
        <ele>1166</ele>
        <time>2023-02-07T16:08:16Z</time>
      </trkpt>
      <trkpt lat="44.95429" lon="4.10194">
        <ele>1167</ele>
        <time>2023-02-07T16:08:16Z</time>
      </trkpt>
      <trkpt lat="44.95414" lon="4.10214">
        <ele>1168</ele>
        <time>2023-02-07T16:08:16Z</time>
      </trkpt>
      <trkpt lat="44.95285" lon="4.10345">
        <ele>1186</ele>
        <time>2023-02-07T16:08:16Z</time>
      </trkpt>
      <trkpt lat="44.95223" lon="4.10386">
        <ele>1187</ele>
      </trkpt>
      <trkpt lat="44.95161" lon="4.10426">
        <ele>1190</ele>
        <time>2023-02-07T16:08:16Z</time>
      </trkpt>
      <trkpt lat="44.95149" lon="4.1044">
        <ele>1192</ele>
        <time>2023-02-07T16:08:16Z</time>
      </trkpt>
      <trkpt lat="44.95138" lon="4.10464">
        <ele>1194</ele>
        <time>2023-02-07T16:08:16Z</time>
      </trkpt>
      <trkpt lat="44.95124" lon="4.1053">
        <ele>1196</ele>
      </trkpt>
      <trkpt lat="44.95109" lon="4.10596">
        <ele>1198</ele>
      </trkpt>
      <trkpt lat="44.95095" lon="4.10662">
        <ele>1201</ele>
      </trkpt>
      <trkpt lat="44.9508" lon="4.10728">
        <ele>1202</ele>
        <time>2023-02-07T16:08:16Z</time>
      </trkpt>
      <trkpt lat="44.95064" lon="4.10755">
        <ele>1203</ele>
        <time>2023-02-07T16:08:16Z</time>
      </trkpt>
      <trkpt lat="44.95021" lon="4.108">
        <ele>1203</ele>
        <time>2023-02-07T16:08:16Z</time>
      </trkpt>
      <trkpt lat="44.94983" lon="4.10821">
        <ele>1202</ele>
        <time>2023-02-07T16:08:16Z</time>
      </trkpt>
      <trkpt lat="44.94958" lon="4.10825">
        <ele>1201</ele>
        <time>2023-02-07T16:08:16Z</time>
      </trkpt>
      <trkpt lat="44.94932" lon="4.10819">
        <ele>1199</ele>
        <time>2023-02-07T16:08:16Z</time>
      </trkpt>
      <trkpt lat="44.9487" lon="4.10791">
        <ele>1195</ele>
        <time>2023-02-07T16:08:16Z</time>
      </trkpt>
      <trkpt lat="44.94818" lon="4.10788">
        <ele>1190</ele>
        <time>2023-02-07T16:08:16Z</time>
      </trkpt>
      <trkpt lat="44.94756" lon="4.10811">
        <ele>1185</ele>
        <time>2023-02-07T16:08:16Z</time>
      </trkpt>
      <trkpt lat="44.94728" lon="4.1083">
        <ele>1181</ele>
        <time>2023-02-07T16:08:16Z</time>
      </trkpt>
      <trkpt lat="44.9472" lon="4.10838">
        <ele>1179</ele>
        <time>2023-02-07T16:08:16Z</time>
      </trkpt>
      <trkpt lat="44.94688" lon="4.10901">
        <ele>1176</ele>
      </trkpt>
      <trkpt lat="44.94655" lon="4.10964">
        <ele>1172</ele>
        <time>2023-02-07T16:08:16Z</time>
      </trkpt>
      <trkpt lat="44.94602" lon="4.11034">
        <ele>1168</ele>
      </trkpt>
      <trkpt lat="44.94548" lon="4.11105">
        <ele>1164</ele>
        <time>2023-02-07T16:08:16Z</time>
      </trkpt>
      <trkpt lat="44.94518" lon="4.11159">
        <ele>1161</ele>
      </trkpt>
      <trkpt lat="44.94488" lon="4.11212">
        <ele>1158</ele>
        <time>2023-02-07T16:08:16Z</time>
      </trkpt>
      <trkpt lat="44.9443" lon="4.11279">
        <ele>1155</ele>
        <time>2023-02-07T16:08:16Z</time>
      </trkpt>
      <trkpt lat="44.94425" lon="4.11291">
        <ele>1152</ele>
        <time>2023-02-07T16:08:16Z</time>
      </trkpt>
      <trkpt lat="44.94422" lon="4.11306">
        <ele>1151</ele>
        <time>2023-02-07T16:08:16Z</time>
      </trkpt>
      <trkpt lat="44.94426" lon="4.11344">
        <ele>1149</ele>
        <time>2023-02-07T16:08:16Z</time>
      </trkpt>
      <trkpt lat="44.94439" lon="4.11399">
        <ele>1147</ele>
        <time>2023-02-07T16:08:16Z</time>
      </trkpt>
      <trkpt lat="44.9445" lon="4.1149">
        <ele>1145</ele>
      </trkpt>
      <trkpt lat="44.9446" lon="4.11581">
        <ele>1143</ele>
        <time>2023-02-07T16:08:16Z</time>
      </trkpt>
      <trkpt lat="44.94456" lon="4.11636">
        <ele>1143</ele>
        <time>2023-02-07T16:08:16Z</time>
      </trkpt>
      <trkpt lat="44.94465" lon="4.11637">
        <ele>1143</ele>
        <time>2023-02-07T16:08:16Z</time>
      </trkpt>
      <trkpt lat="44.94472" lon="4.11629">
        <ele>1143</ele>
        <time>2023-02-07T16:08:16Z</time>
      </trkpt>
      <trkpt lat="44.94442" lon="4.11723">
        <ele>1145</ele>
      </trkpt>
      <trkpt lat="44.94412" lon="4.11816">
        <ele>1149</ele>
        <time>2023-02-07T16:08:16Z</time>
      </trkpt>
      <trkpt lat="44.94415" lon="4.11872">
        <ele>1152</ele>
      </trkpt>
      <trkpt lat="44.94418" lon="4.11928">
        <ele>1156</ele>
      </trkpt>
      <trkpt lat="44.94421" lon="4.11983">
        <ele>1159</ele>
      </trkpt>
      <trkpt lat="44.94424" lon="4.12039">
        <ele>1163</ele>
        <time>2023-02-07T16:08:16Z</time>
      </trkpt>
      <trkpt lat="44.94464" lon="4.12036">
        <ele>1166</ele>
      </trkpt>
      <trkpt lat="44.94503" lon="4.12033">
        <ele>1170</ele>
      </trkpt>
      <trkpt lat="44.94543" lon="4.12029">
        <ele>1173</ele>
      </trkpt>
      <trkpt lat="44.94582" lon="4.12026">
        <ele>1175</ele>
        <time>2023-02-07T16:08:16Z</time>
      </trkpt>
      <trkpt lat="44.94643" lon="4.11996">
        <ele>1176</ele>
      </trkpt>
      <trkpt lat="44.94704" lon="4.11967">
        <ele>1177</ele>
        <time>2023-02-07T16:08:16Z</time>
      </trkpt>
      <trkpt lat="44.94752" lon="4.11942">
        <ele>1178</ele>
      </trkpt>
      <trkpt lat="44.948" lon="4.11916">
        <ele>1179</ele>
      </trkpt>
      <trkpt lat="44.94847" lon="4.11891">
        <ele>1181</ele>
      </trkpt>
      <trkpt lat="44.94895" lon="4.11865">
        <ele>1182</ele>
        <time>2023-02-07T16:08:16Z</time>
      </trkpt>
      <trkpt lat="44.94909" lon="4.11862">
        <ele>1183</ele>
        <time>2023-02-07T16:08:16Z</time>
      </trkpt>
      <trkpt lat="44.94949" lon="4.11873">
        <ele>1184</ele>
        <time>2023-02-07T16:08:16Z</time>
      </trkpt>
      <trkpt lat="44.9498" lon="4.119">
        <ele>1185</ele>
        <time>2023-02-07T16:08:16Z</time>
      </trkpt>
      <trkpt lat="44.95002" lon="4.1194">
        <ele>1187</ele>
        <time>2023-02-07T16:08:16Z</time>
      </trkpt>
      <trkpt lat="44.95027" lon="4.12039">
        <ele>1188</ele>
      </trkpt>
      <trkpt lat="44.95053" lon="4.12138">
        <ele>1188</ele>
      </trkpt>
      <trkpt lat="44.95078" lon="4.12238">
        <ele>1189</ele>
      </trkpt>
      <trkpt lat="44.95103" lon="4.12337">
        <ele>1191</ele>
        <time>2023-02-07T16:08:16Z</time>
      </trkpt>
      <trkpt lat="44.95114" lon="4.12357">
        <ele>1192</ele>
        <time>2023-02-07T16:08:16Z</time>
      </trkpt>
      <trkpt lat="44.95132" lon="4.12373">
        <ele>1193</ele>
        <time>2023-02-07T16:08:16Z</time>
      </trkpt>
      <trkpt lat="44.95149" lon="4.1238">
        <ele>1193</ele>
        <time>2023-02-07T16:08:16Z</time>
      </trkpt>
      <trkpt lat="44.95226" lon="4.12379">
        <ele>1193</ele>
      </trkpt>
      <trkpt lat="44.95302" lon="4.12377">
        <ele>1196</ele>
        <time>2023-02-07T16:08:16Z</time>
      </trkpt>
      <trkpt lat="44.95335" lon="4.1237">
        <ele>1198</ele>
        <time>2023-02-07T16:08:16Z</time>
      </trkpt>
      <trkpt lat="44.95345" lon="4.12375">
        <ele>1200</ele>
        <time>2023-02-07T16:08:16Z</time>
      </trkpt>
      <trkpt lat="44.95352" lon="4.12384">
        <ele>1201</ele>
        <time>2023-02-07T16:08:16Z</time>
      </trkpt>
      <trkpt lat="44.95351" lon="4.12425">
        <ele>1203</ele>
        <time>2023-02-07T16:08:16Z</time>
      </trkpt>
      <trkpt lat="44.95332" lon="4.12516">
        <ele>1205</ele>
      </trkpt>
      <trkpt lat="44.95313" lon="4.12607">
        <ele>1208</ele>
        <time>2023-02-07T16:08:16Z</time>
      </trkpt>
      <trkpt lat="44.9528" lon="4.12682">
        <ele>1213</ele>
      </trkpt>
      <trkpt lat="44.95246" lon="4.12757">
        <ele>1218</ele>
        <time>2023-02-07T16:08:16Z</time>
      </trkpt>
      <trkpt lat="44.95245" lon="4.12773">
        <ele>1221</ele>
        <time>2023-02-07T16:08:16Z</time>
      </trkpt>
      <trkpt lat="44.9526" lon="4.12864">
        <ele>1226</ele>
        <time>2023-02-07T16:08:16Z</time>
      </trkpt>
      <trkpt lat="44.95285" lon="4.12939">
        <ele>1230</ele>
        <time>2023-02-07T16:08:16Z</time>
      </trkpt>
      <trkpt lat="44.95377" lon="4.13179">
        <ele>1239</ele>
        <time>2023-02-07T16:08:16Z</time>
      </trkpt>
      <trkpt lat="44.95391" lon="4.13234">
        <ele>1238</ele>
      </trkpt>
      <trkpt lat="44.95406" lon="4.13289">
        <ele>1238</ele>
      </trkpt>
      <trkpt lat="44.9542" lon="4.13344">
        <ele>1238</ele>
      </trkpt>
      <trkpt lat="44.95434" lon="4.13399">
        <ele>1238</ele>
        <time>2023-02-07T16:08:16Z</time>
      </trkpt>
      <trkpt lat="44.95474" lon="4.1346">
        <ele>1238</ele>
      </trkpt>
      <trkpt lat="44.95514" lon="4.13521">
        <ele>1238</ele>
        <time>2023-02-07T16:08:16Z</time>
      </trkpt>
      <trkpt lat="44.95549" lon="4.13566">
        <ele>1237</ele>
      </trkpt>
      <trkpt lat="44.95584" lon="4.13611">
        <ele>1236</ele>
        <time>2023-02-07T16:08:16Z</time>
      </trkpt>
      <trkpt lat="44.95617" lon="4.13627">
        <ele>1236</ele>
        <time>2023-02-07T16:08:16Z</time>
      </trkpt>
      <trkpt lat="44.9569" lon="4.13619">
        <ele>1236</ele>
        <time>2023-02-07T16:08:16Z</time>
      </trkpt>
      <trkpt lat="44.95733" lon="4.13634">
        <ele>1238</ele>
        <time>2023-02-07T16:08:16Z</time>
      </trkpt>
      <trkpt lat="44.95767" lon="4.13667">
        <ele>1239</ele>
      </trkpt>
      <trkpt lat="44.958" lon="4.13699">
        <ele>1241</ele>
        <time>2023-02-07T16:08:16Z</time>
      </trkpt>
      <trkpt lat="44.95837" lon="4.13743">
        <ele>1242</ele>
      </trkpt>
      <trkpt lat="44.95873" lon="4.13786">
        <ele>1244</ele>
        <time>2023-02-07T16:08:16Z</time>
      </trkpt>
      <trkpt lat="44.95932" lon="4.1381">
        <ele>1245</ele>
      </trkpt>
      <trkpt lat="44.9599" lon="4.13833">
        <ele>1247</ele>
        <time>2023-02-07T16:08:16Z</time>
      </trkpt>
      <trkpt lat="44.9604" lon="4.13835">
        <ele>1248</ele>
        <time>2023-02-07T16:08:16Z</time>
      </trkpt>
      <trkpt lat="44.96049" lon="4.13832">
        <ele>1249</ele>
        <time>2023-02-07T16:08:16Z</time>
      </trkpt>
      <trkpt lat="44.96053" lon="4.13842">
        <ele>1249</ele>
        <time>2023-02-07T16:08:16Z</time>
      </trkpt>
      <trkpt lat="44.96069" lon="4.1393">
        <ele>1250</ele>
      </trkpt>
      <trkpt lat="44.96084" lon="4.14018">
        <ele>1251</ele>
        <time>2023-02-07T16:08:16Z</time>
      </trkpt>
      <trkpt lat="44.96109" lon="4.14061">
        <ele>1252</ele>
      </trkpt>
      <trkpt lat="44.96133" lon="4.14104">
        <ele>1252</ele>
      </trkpt>
      <trkpt lat="44.96158" lon="4.14147">
        <ele>1253</ele>
      </trkpt>
      <trkpt lat="44.96182" lon="4.1419">
        <ele>1253</ele>
        <time>2023-02-07T16:08:16Z</time>
      </trkpt>
      <trkpt lat="44.96208" lon="4.14222">
        <ele>1253</ele>
        <time>2023-02-07T16:08:16Z</time>
      </trkpt>
      <trkpt lat="44.96222" lon="4.14247">
        <ele>1253</ele>
        <time>2023-02-07T16:08:16Z</time>
      </trkpt>
      <trkpt lat="44.96233" lon="4.1426">
        <ele>1253</ele>
        <time>2023-02-07T16:08:16Z</time>
      </trkpt>
      <trkpt lat="44.96247" lon="4.14266">
        <ele>1253</ele>
        <time>2023-02-07T16:08:16Z</time>
      </trkpt>
      <trkpt lat="44.9626" lon="4.14268">
        <ele>1253</ele>
        <time>2023-02-07T16:08:16Z</time>
      </trkpt>
      <trkpt lat="44.96305" lon="4.14255">
        <ele>1252</ele>
      </trkpt>
      <trkpt lat="44.9635" lon="4.14243">
        <ele>1251</ele>
        <time>2023-02-07T16:08:16Z</time>
      </trkpt>
      <trkpt lat="44.96386" lon="4.14254">
        <ele>1251</ele>
        <time>2023-02-07T16:08:16Z</time>
      </trkpt>
      <trkpt lat="44.96426" lon="4.14252">
        <ele>1251</ele>
        <time>2023-02-07T16:08:16Z</time>
      </trkpt>
      <trkpt lat="44.96479" lon="4.14231">
        <ele>1250</ele>
        <time>2023-02-07T16:08:16Z</time>
      </trkpt>
      <trkpt lat="44.96553" lon="4.14232">
        <ele>1250</ele>
      </trkpt>
      <trkpt lat="44.96628" lon="4.14232">
        <ele>1250</ele>
      </trkpt>
      <trkpt lat="44.96702" lon="4.14233">
        <ele>1250</ele>
      </trkpt>
      <trkpt lat="44.96739" lon="4.14234">
        <ele>1249</ele>
      </trkpt>
      <trkpt lat="44.96776" lon="4.14234">
        <ele>1249</ele>
      </trkpt>
      <trkpt lat="44.9685" lon="4.14235">
        <ele>1248</ele>
      </trkpt>
      <trkpt lat="44.96925" lon="4.14236">
        <ele>1247</ele>
      </trkpt>
      <trkpt lat="44.96999" lon="4.14236">
        <ele>1246</ele>
      </trkpt>
      <trkpt lat="44.97036" lon="4.14237">
        <ele>1245</ele>
      </trkpt>
      <trkpt lat="44.97073" lon="4.14237">
        <ele>1244</ele>
        <time>2023-02-07T16:08:16Z</time>
      </trkpt>
      <trkpt lat="44.97118" lon="4.14247">
        <ele>1242</ele>
        <time>2023-02-07T16:08:16Z</time>
      </trkpt>
      <trkpt lat="44.97155" lon="4.14238">
        <ele>1240</ele>
        <time>2023-02-07T16:08:16Z</time>
      </trkpt>
      <trkpt lat="44.97216" lon="4.1421">
        <ele>1236</ele>
      </trkpt>
      <trkpt lat="44.97276" lon="4.14182">
        <ele>1233</ele>
        <time>2023-02-07T16:08:16Z</time>
      </trkpt>
      <trkpt lat="44.97327" lon="4.14178">
        <ele>1230</ele>
      </trkpt>
      <trkpt lat="44.97379" lon="4.14175">
        <ele>1227</ele>
      </trkpt>
      <trkpt lat="44.9743" lon="4.14171">
        <ele>1225</ele>
      </trkpt>
      <trkpt lat="44.97481" lon="4.14167">
        <ele>1223</ele>
        <time>2023-02-07T16:08:16Z</time>
      </trkpt>
      <trkpt lat="44.97517" lon="4.14146">
        <ele>1223</ele>
        <time>2023-02-07T16:08:16Z</time>
      </trkpt>
      <trkpt lat="44.97563" lon="4.14199">
        <ele>1221</ele>
      </trkpt>
      <trkpt lat="44.97609" lon="4.14253">
        <ele>1218</ele>
        <time>2023-02-07T16:08:16Z</time>
      </trkpt>
      <trkpt lat="44.97625" lon="4.14289">
        <ele>1216</ele>
        <time>2023-02-07T16:08:16Z</time>
      </trkpt>
      <trkpt lat="44.97627" lon="4.14301">
        <ele>1214</ele>
        <time>2023-02-07T16:08:16Z</time>
      </trkpt>
      <trkpt lat="44.97624" lon="4.14315">
        <ele>1213</ele>
        <time>2023-02-07T16:08:16Z</time>
      </trkpt>
      <trkpt lat="44.97574" lon="4.14387">
        <ele>1211</ele>
        <time>2023-02-07T16:08:16Z</time>
      </trkpt>
      <trkpt lat="44.97524" lon="4.14339">
        <ele>1209</ele>
        <time>2023-02-07T16:08:16Z</time>
      </trkpt>
      <trkpt lat="44.97561" lon="4.14371">
        <ele>1207</ele>
        <time>2023-02-07T16:08:16Z</time>
      </trkpt>
      <trkpt lat="44.97572" lon="4.14389">
        <ele>1206</ele>
        <time>2023-02-07T16:08:16Z</time>
      </trkpt>
      <trkpt lat="44.97543" lon="4.14428">
        <ele>1205</ele>
        <time>2023-02-07T16:08:16Z</time>
      </trkpt>
      <trkpt lat="44.97557" lon="4.14485">
        <ele>1205</ele>
      </trkpt>
      <trkpt lat="44.9757" lon="4.14542">
        <ele>1205</ele>
        <time>2023-02-07T16:08:16Z</time>
      </trkpt>
      <trkpt lat="44.97556" lon="4.14607">
        <ele>1208</ele>
        <time>2023-02-07T16:08:16Z</time>
      </trkpt>
      <trkpt lat="44.97549" lon="4.14616">
        <ele>1211</ele>
        <time>2023-02-07T16:08:16Z</time>
      </trkpt>
      <trkpt lat="44.97547" lon="4.14635">
        <ele>1213</ele>
        <time>2023-02-07T16:08:16Z</time>
      </trkpt>
      <trkpt lat="44.9755" lon="4.14696">
        <ele>1217</ele>
      </trkpt>
      <trkpt lat="44.97553" lon="4.14757">
        <ele>1221</ele>
        <time>2023-02-07T16:08:16Z</time>
      </trkpt>
      <trkpt lat="44.97538" lon="4.14842">
        <ele>1226</ele>
      </trkpt>
      <trkpt lat="44.97522" lon="4.14928">
        <ele>1231</ele>
      </trkpt>
      <trkpt lat="44.97507" lon="4.15013">
        <ele>1236</ele>
      </trkpt>
      <trkpt lat="44.97491" lon="4.15099">
        <ele>1239</ele>
        <time>2023-02-07T16:08:16Z</time>
      </trkpt>
      <trkpt lat="44.97483" lon="4.15124">
        <ele>1242</ele>
        <time>2023-02-07T16:08:16Z</time>
      </trkpt>
      <trkpt lat="44.97477" lon="4.15136">
        <ele>1243</ele>
        <time>2023-02-07T16:08:16Z</time>
      </trkpt>
      <trkpt lat="44.9747" lon="4.15235">
        <ele>1245</ele>
      </trkpt>
      <trkpt lat="44.97463" lon="4.15335">
        <ele>1246</ele>
      </trkpt>
      <trkpt lat="44.97456" lon="4.15434">
        <ele>1247</ele>
      </trkpt>
      <trkpt lat="44.97449" lon="4.15533">
        <ele>1248</ele>
        <time>2023-02-07T16:08:16Z</time>
      </trkpt>
      <trkpt lat="44.97457" lon="4.15556">
        <ele>1248</ele>
        <time>2023-02-07T16:08:16Z</time>
      </trkpt>
      <trkpt lat="44.97503" lon="4.15594">
        <ele>1249</ele>
        <time>2023-02-07T16:08:16Z</time>
      </trkpt>
      <trkpt lat="44.97508" lon="4.15604">
        <ele>1251</ele>
        <time>2023-02-07T16:08:16Z</time>
      </trkpt>
      <trkpt lat="44.97516" lon="4.15738">
        <ele>1252</ele>
        <time>2023-02-07T16:08:16Z</time>
      </trkpt>
      <trkpt lat="44.9753" lon="4.15758">
        <ele>1254</ele>
        <time>2023-02-07T16:08:16Z</time>
      </trkpt>
      <trkpt lat="44.97536" lon="4.15901">
        <ele>1257</ele>
        <time>2023-02-07T16:08:16Z</time>
      </trkpt>
      <trkpt lat="44.97536" lon="4.15901">
        <ele>1265</ele>
        <time>2023-02-07T16:08:16Z</time>
      </trkpt>
      <trkpt lat="44.97529" lon="4.15916">
        <ele>1265</ele>
        <time>2023-02-07T16:08:16Z</time>
      </trkpt>
      <trkpt lat="44.97525" lon="4.15936">
        <ele>1265</ele>
        <time>2023-02-07T16:08:16Z</time>
      </trkpt>
      <trkpt lat="44.97525" lon="4.15992">
        <ele>1267</ele>
        <time>2023-02-07T16:08:16Z</time>
      </trkpt>
      <trkpt lat="44.97537" lon="4.16139">
        <ele>1271</ele>
        <time>2023-02-07T16:08:16Z</time>
      </trkpt>
      <trkpt lat="44.97535" lon="4.16181">
        <ele>1274</ele>
        <time>2023-02-07T16:08:16Z</time>
      </trkpt>
      <trkpt lat="44.97536" lon="4.16194">
        <ele>1277</ele>
        <time>2023-02-07T16:08:16Z</time>
      </trkpt>
      <trkpt lat="44.97542" lon="4.16202">
        <ele>1278</ele>
        <time>2023-02-07T16:08:16Z</time>
      </trkpt>
      <trkpt lat="44.97657" lon="4.16125">
        <ele>1280</ele>
        <time>2023-02-07T16:08:16Z</time>
      </trkpt>
      <trkpt lat="44.97657" lon="4.16144">
        <ele>1281</ele>
        <time>2023-02-07T16:08:16Z</time>
      </trkpt>
      <trkpt lat="44.97641" lon="4.16258">
        <ele>1283</ele>
      </trkpt>
      <trkpt lat="44.97625" lon="4.16371">
        <ele>1284</ele>
      </trkpt>
      <trkpt lat="44.97609" lon="4.16484">
        <ele>1285</ele>
      </trkpt>
      <trkpt lat="44.97593" lon="4.16598">
        <ele>1286</ele>
        <time>2023-02-07T16:08:16Z</time>
      </trkpt>
      <trkpt lat="44.97568" lon="4.1664">
        <ele>1286</ele>
        <time>2023-02-07T16:08:16Z</time>
      </trkpt>
      <trkpt lat="44.97559" lon="4.16647">
        <ele>1287</ele>
        <time>2023-02-07T16:08:16Z</time>
      </trkpt>
      <trkpt lat="44.97535" lon="4.16638">
        <ele>1287</ele>
        <time>2023-02-07T16:08:16Z</time>
      </trkpt>
      <trkpt lat="44.97442" lon="4.16682">
        <ele>1288</ele>
        <time>2023-02-07T16:08:16Z</time>
      </trkpt>
      <trkpt lat="44.97435" lon="4.16702">
        <ele>1288</ele>
        <time>2023-02-07T16:08:16Z</time>
      </trkpt>
      <trkpt lat="44.97468" lon="4.1688">
        <ele>1286</ele>
        <time>2023-02-07T16:08:16Z</time>
      </trkpt>
      <trkpt lat="44.97529" lon="4.16863">
        <ele>1283</ele>
        <time>2023-02-07T16:08:16Z</time>
      </trkpt>
      <trkpt lat="44.97576" lon="4.1687">
        <ele>1280</ele>
        <time>2023-02-07T16:08:16Z</time>
      </trkpt>
      <trkpt lat="44.97601" lon="4.1688">
        <ele>1277</ele>
        <time>2023-02-07T16:08:16Z</time>
      </trkpt>
      <trkpt lat="44.97617" lon="4.16892">
        <ele>1275</ele>
        <time>2023-02-07T16:08:16Z</time>
      </trkpt>
      <trkpt lat="44.97624" lon="4.16904">
        <ele>1273</ele>
        <time>2023-02-07T16:08:16Z</time>
      </trkpt>
      <trkpt lat="44.9763" lon="4.16922">
        <ele>1272</ele>
        <time>2023-02-07T16:08:16Z</time>
      </trkpt>
      <trkpt lat="44.97641" lon="4.16982">
        <ele>1269</ele>
        <time>2023-02-07T16:08:16Z</time>
      </trkpt>
      <trkpt lat="44.97668" lon="4.17034">
        <ele>1267</ele>
        <time>2023-02-07T16:08:16Z</time>
      </trkpt>
      <trkpt lat="44.97722" lon="4.17091">
        <ele>1264</ele>
        <time>2023-02-07T16:08:16Z</time>
      </trkpt>
      <trkpt lat="44.97827" lon="4.17183">
        <ele>1257</ele>
        <time>2023-02-07T16:08:16Z</time>
      </trkpt>
      <trkpt lat="44.97843" lon="4.1719">
        <ele>1253</ele>
        <time>2023-02-07T16:08:16Z</time>
      </trkpt>
      <trkpt lat="44.97864" lon="4.17193">
        <ele>1251</ele>
        <time>2023-02-07T16:08:16Z</time>
      </trkpt>
      <trkpt lat="44.97876" lon="4.17189">
        <ele>1248</ele>
        <time>2023-02-07T16:08:16Z</time>
      </trkpt>
      <trkpt lat="44.97893" lon="4.1719">
        <ele>1246</ele>
        <time>2023-02-07T16:08:16Z</time>
      </trkpt>
      <trkpt lat="44.97897" lon="4.172">
        <ele>1245</ele>
        <time>2023-02-07T16:08:16Z</time>
      </trkpt>
      <trkpt lat="44.97902" lon="4.17265">
        <ele>1244</ele>
        <time>2023-02-07T16:08:16Z</time>
      </trkpt>
      <trkpt lat="44.97953" lon="4.17362">
        <ele>1242</ele>
        <time>2023-02-07T16:08:16Z</time>
      </trkpt>
      <trkpt lat="44.97982" lon="4.17446">
        <ele>1242</ele>
        <time>2023-02-07T16:08:16Z</time>
      </trkpt>
      <trkpt lat="44.97982" lon="4.17456">
        <ele>1242</ele>
        <time>2023-02-07T16:08:16Z</time>
      </trkpt>
      <trkpt lat="44.97965" lon="4.17493">
        <ele>1243</ele>
        <time>2023-02-07T16:08:16Z</time>
      </trkpt>
      <trkpt lat="44.97943" lon="4.17539">
        <ele>1244</ele>
        <time>2023-02-07T16:08:16Z</time>
      </trkpt>
      <trkpt lat="44.97907" lon="4.17666">
        <ele>1249</ele>
        <time>2023-02-07T16:08:16Z</time>
      </trkpt>
      <trkpt lat="44.979" lon="4.17878">
        <ele>1259</ele>
        <time>2023-02-07T16:08:16Z</time>
      </trkpt>
      <trkpt lat="44.97901" lon="4.17892">
        <ele>1265</ele>
        <time>2023-02-07T16:08:16Z</time>
      </trkpt>
      <trkpt lat="44.97901" lon="4.17892">
        <ele>1279</ele>
        <time>2023-02-07T16:08:16Z</time>
      </trkpt>
      <trkpt lat="44.97908" lon="4.179">
        <ele>1280</ele>
        <time>2023-02-07T16:08:16Z</time>
      </trkpt>
      <trkpt lat="44.97922" lon="4.17922">
        <ele>1280</ele>
        <time>2023-02-07T16:08:16Z</time>
      </trkpt>
      <trkpt lat="44.97928" lon="4.17928">
        <ele>1281</ele>
        <time>2023-02-07T16:08:16Z</time>
      </trkpt>
      <trkpt lat="44.9797" lon="4.18005">
        <ele>1284</ele>
        <time>2023-02-07T16:08:16Z</time>
      </trkpt>
      <trkpt lat="44.97995" lon="4.18139">
        <ele>1302</ele>
        <time>2023-02-07T16:08:16Z</time>
      </trkpt>
      <trkpt lat="44.98035" lon="4.18192">
        <ele>1303</ele>
      </trkpt>
      <trkpt lat="44.98075" lon="4.18244">
        <ele>1305</ele>
        <time>2023-02-07T16:08:16Z</time>
      </trkpt>
      <trkpt lat="44.98089" lon="4.18254">
        <ele>1307</ele>
        <time>2023-02-07T16:08:16Z</time>
      </trkpt>
      <trkpt lat="44.98102" lon="4.18272">
        <ele>1309</ele>
        <time>2023-02-07T16:08:16Z</time>
      </trkpt>
      <trkpt lat="44.98113" lon="4.18294">
        <ele>1310</ele>
        <time>2023-02-07T16:08:16Z</time>
      </trkpt>
      <trkpt lat="44.98119" lon="4.18301">
        <ele>1311</ele>
        <time>2023-02-07T16:08:16Z</time>
      </trkpt>
      <trkpt lat="44.98157" lon="4.18324">
        <ele>1313</ele>
        <time>2023-02-07T16:08:16Z</time>
      </trkpt>
      <trkpt lat="44.98184" lon="4.18351">
        <ele>1316</ele>
        <time>2023-02-07T16:08:16Z</time>
      </trkpt>
      <trkpt lat="44.98229" lon="4.18374">
        <ele>1319</ele>
        <time>2023-02-07T16:08:16Z</time>
      </trkpt>
      <trkpt lat="44.98308" lon="4.18387">
        <ele>1324</ele>
      </trkpt>
      <trkpt lat="44.98387" lon="4.18399">
        <ele>1329</ele>
      </trkpt>
      <trkpt lat="44.98466" lon="4.18412">
        <ele>1333</ele>
      </trkpt>
      <trkpt lat="44.98506" lon="4.18419">
        <ele>1335</ele>
      </trkpt>
      <trkpt lat="44.98545" lon="4.18425">
        <ele>1337</ele>
        <time>2023-02-07T16:08:16Z</time>
      </trkpt>
      <trkpt lat="44.98582" lon="4.18453">
        <ele>1338</ele>
        <time>2023-02-07T16:08:16Z</time>
      </trkpt>
      <trkpt lat="44.9863" lon="4.18497">
        <ele>1338</ele>
      </trkpt>
      <trkpt lat="44.98678" lon="4.18541">
        <ele>1339</ele>
      </trkpt>
      <trkpt lat="44.98726" lon="4.18585">
        <ele>1339</ele>
      </trkpt>
      <trkpt lat="44.98774" lon="4.18629">
        <ele>1340</ele>
        <time>2023-02-07T16:08:16Z</time>
      </trkpt>
      <trkpt lat="44.98787" lon="4.18635">
        <ele>1340</ele>
        <time>2023-02-07T16:08:16Z</time>
      </trkpt>
      <trkpt lat="44.98812" lon="4.18635">
        <ele>1340</ele>
        <time>2023-02-07T16:08:16Z</time>
      </trkpt>
      <trkpt lat="44.98855" lon="4.18616">
        <ele>1341</ele>
      </trkpt>
      <trkpt lat="44.98898" lon="4.18597">
        <ele>1341</ele>
        <time>2023-02-07T16:08:16Z</time>
      </trkpt>
      <trkpt lat="44.98943" lon="4.18565">
        <ele>1341</ele>
      </trkpt>
      <trkpt lat="44.98987" lon="4.18534">
        <ele>1341</ele>
        <time>2023-02-07T16:08:16Z</time>
      </trkpt>
      <trkpt lat="44.99007" lon="4.18513">
        <ele>1341</ele>
        <time>2023-02-07T16:08:16Z</time>
      </trkpt>
      <trkpt lat="44.99032" lon="4.18503">
        <ele>1340</ele>
        <time>2023-02-07T16:08:16Z</time>
      </trkpt>
      <trkpt lat="44.99079" lon="4.18503">
        <ele>1340</ele>
        <time>2023-02-07T16:08:16Z</time>
      </trkpt>
      <trkpt lat="44.99076" lon="4.18494">
        <ele>1339</ele>
        <time>2023-02-07T16:08:16Z</time>
      </trkpt>
      <trkpt lat="44.99139" lon="4.1846">
        <ele>1338</ele>
        <time>2023-02-07T16:08:16Z</time>
      </trkpt>
      <trkpt lat="44.99156" lon="4.18446">
        <ele>1336</ele>
        <time>2023-02-07T16:08:16Z</time>
      </trkpt>
      <trkpt lat="44.99187" lon="4.18399">
        <ele>1334</ele>
        <time>2023-02-07T16:08:16Z</time>
      </trkpt>
      <trkpt lat="44.99244" lon="4.18376">
        <ele>1331</ele>
      </trkpt>
      <trkpt lat="44.993" lon="4.18353">
        <ele>1328</ele>
        <time>2023-02-07T16:08:16Z</time>
      </trkpt>
      <trkpt lat="44.99305" lon="4.1834">
        <ele>1325</ele>
        <time>2023-02-07T16:08:16Z</time>
      </trkpt>
      <trkpt lat="44.99309" lon="4.18304">
        <ele>1323</ele>
        <time>2023-02-07T16:08:16Z</time>
      </trkpt>
      <trkpt lat="44.99309" lon="4.18304">
        <ele>1314</ele>
        <time>2023-02-07T16:08:16Z</time>
      </trkpt>
      <trkpt lat="44.99305" lon="4.1834">
        <ele>1315</ele>
        <time>2023-02-07T16:08:16Z</time>
      </trkpt>
      <trkpt lat="44.993" lon="4.18353">
        <ele>1315</ele>
        <time>2023-02-07T16:08:16Z</time>
      </trkpt>
      <trkpt lat="44.99311" lon="4.18292">
        <ele>1315</ele>
      </trkpt>
      <trkpt lat="44.99323" lon="4.1823">
        <ele>1314</ele>
      </trkpt>
      <trkpt lat="44.99334" lon="4.18169">
        <ele>1312</ele>
      </trkpt>
      <trkpt lat="44.99345" lon="4.18107">
        <ele>1310</ele>
        <time>2023-02-07T16:08:16Z</time>
      </trkpt>
      <trkpt lat="44.99329" lon="4.18029">
        <ele>1308</ele>
      </trkpt>
      <trkpt lat="44.99312" lon="4.1795">
        <ele>1305</ele>
      </trkpt>
      <trkpt lat="44.99296" lon="4.17872">
        <ele>1303</ele>
      </trkpt>
      <trkpt lat="44.99279" lon="4.17794">
        <ele>1301</ele>
        <time>2023-02-07T16:08:16Z</time>
      </trkpt>
      <trkpt lat="44.99294" lon="4.177">
        <ele>1299</ele>
      </trkpt>
      <trkpt lat="44.99309" lon="4.17605">
        <ele>1296</ele>
        <time>2023-02-07T16:08:16Z</time>
      </trkpt>
      <trkpt lat="44.99325" lon="4.17535">
        <ele>1295</ele>
      </trkpt>
      <trkpt lat="44.99341" lon="4.17465">
        <ele>1294</ele>
      </trkpt>
      <trkpt lat="44.99357" lon="4.17396">
        <ele>1294</ele>
      </trkpt>
      <trkpt lat="44.99373" lon="4.17326">
        <ele>1293</ele>
        <time>2023-02-07T16:08:16Z</time>
      </trkpt>
      <trkpt lat="44.9941" lon="4.17301">
        <ele>1291</ele>
      </trkpt>
      <trkpt lat="44.99447" lon="4.17277">
        <ele>1290</ele>
      </trkpt>
      <trkpt lat="44.99484" lon="4.17252">
        <ele>1289</ele>
      </trkpt>
      <trkpt lat="44.99521" lon="4.17227">
        <ele>1287</ele>
        <time>2023-02-07T16:08:16Z</time>
      </trkpt>
      <trkpt lat="44.99512" lon="4.17129">
        <ele>1284</ele>
        <time>2023-02-07T16:08:16Z</time>
      </trkpt>
      <trkpt lat="44.99532" lon="4.17037">
        <ele>1280</ele>
      </trkpt>
      <trkpt lat="44.99552" lon="4.16944">
        <ele>1276</ele>
        <time>2023-02-07T16:08:16Z</time>
      </trkpt>
      <trkpt lat="44.99547" lon="4.16885">
        <ele>1272</ele>
      </trkpt>
      <trkpt lat="44.99541" lon="4.16825">
        <ele>1270</ele>
      </trkpt>
      <trkpt lat="44.99536" lon="4.16765">
        <ele>1267</ele>
      </trkpt>
      <trkpt lat="44.99531" lon="4.16706">
        <ele>1266</ele>
      </trkpt>
      <trkpt lat="44.99525" lon="4.16646">
        <ele>1264</ele>
      </trkpt>
      <trkpt lat="44.9952" lon="4.16587">
        <ele>1264</ele>
      </trkpt>
      <trkpt lat="44.99514" lon="4.16528">
        <ele>1264</ele>
      </trkpt>
      <trkpt lat="44.99509" lon="4.16468">
        <ele>1265</ele>
        <time>2023-02-07T16:08:16Z</time>
      </trkpt>
      <trkpt lat="44.99567" lon="4.16408">
        <ele>1267</ele>
        <time>2023-02-07T16:08:16Z</time>
      </trkpt>
      <trkpt lat="44.99561" lon="4.16346">
        <ele>1269</ele>
      </trkpt>
      <trkpt lat="44.99555" lon="4.16283">
        <ele>1271</ele>
        <time>2023-02-07T16:08:16Z</time>
      </trkpt>
      <trkpt lat="44.99595" lon="4.16266">
        <ele>1273</ele>
      </trkpt>
      <trkpt lat="44.99634" lon="4.16249">
        <ele>1274</ele>
      </trkpt>
      <trkpt lat="44.99674" lon="4.16231">
        <ele>1275</ele>
      </trkpt>
      <trkpt lat="44.99713" lon="4.16214">
        <ele>1276</ele>
        <time>2023-02-07T16:08:16Z</time>
      </trkpt>
      <trkpt lat="44.99765" lon="4.16137">
        <ele>1277</ele>
      </trkpt>
      <trkpt lat="44.99816" lon="4.1606">
        <ele>1278</ele>
        <time>2023-02-07T16:08:16Z</time>
      </trkpt>
      <trkpt lat="44.99869" lon="4.1606">
        <ele>1279</ele>
      </trkpt>
      <trkpt lat="44.99922" lon="4.1606">
        <ele>1280</ele>
        <time>2023-02-07T16:08:16Z</time>
      </trkpt>
      <trkpt lat="44.99986" lon="4.16052">
        <ele>1281</ele>
      </trkpt>
      <trkpt lat="45.00049" lon="4.16043">
        <ele>1282</ele>
        <time>2023-02-07T16:08:16Z</time>
      </trkpt>
      <trkpt lat="45.001" lon="4.16071">
        <ele>1284</ele>
      </trkpt>
      <trkpt lat="45.0015" lon="4.16099">
        <ele>1285</ele>
        <time>2023-02-07T16:08:16Z</time>
      </trkpt>
      <trkpt lat="45.00202" lon="4.16082">
        <ele>1287</ele>
      </trkpt>
      <trkpt lat="45.00254" lon="4.16066">
        <ele>1288</ele>
      </trkpt>
      <trkpt lat="45.00306" lon="4.16049">
        <ele>1289</ele>
      </trkpt>
      <trkpt lat="45.00358" lon="4.16032">
        <ele>1290</ele>
        <time>2023-02-07T16:08:16Z</time>
      </trkpt>
      <trkpt lat="45.00364" lon="4.16021">
        <ele>1290</ele>
        <time>2023-02-07T16:08:16Z</time>
      </trkpt>
      <trkpt lat="45.00372" lon="4.15974">
        <ele>1291</ele>
        <time>2023-02-07T16:08:16Z</time>
      </trkpt>
      <trkpt lat="45.00377" lon="4.15936">
        <ele>1291</ele>
        <time>2023-02-07T16:08:16Z</time>
      </trkpt>
      <trkpt lat="45.00389" lon="4.15872">
        <ele>1290</ele>
      </trkpt>
      <trkpt lat="45.004" lon="4.15809">
        <ele>1289</ele>
        <time>2023-02-07T16:08:16Z</time>
      </trkpt>
      <trkpt lat="45.00411" lon="4.15752">
        <ele>1287</ele>
      </trkpt>
      <trkpt lat="45.00421" lon="4.15696">
        <ele>1284</ele>
        <time>2023-02-07T16:08:16Z</time>
      </trkpt>
      <trkpt lat="45.00433" lon="4.15657">
        <ele>1275</ele>
        <time>2023-02-07T16:08:16Z</time>
      </trkpt>
      <trkpt lat="45.00441" lon="4.15614">
        <ele>1274</ele>
        <time>2023-02-07T16:08:16Z</time>
      </trkpt>
      <trkpt lat="45.00447" lon="4.15604">
        <ele>1274</ele>
        <time>2023-02-07T16:08:16Z</time>
      </trkpt>
      <trkpt lat="45.00464" lon="4.15531">
        <ele>1274</ele>
      </trkpt>
      <trkpt lat="45.0048" lon="4.15459">
        <ele>1273</ele>
      </trkpt>
      <trkpt lat="45.00513" lon="4.15313">
        <ele>1271</ele>
        <time>2023-02-07T16:08:16Z</time>
      </trkpt>
      <trkpt lat="45.00543" lon="4.15215">
        <ele>1268</ele>
      </trkpt>
      <trkpt lat="45.00573" lon="4.15118">
        <ele>1264</ele>
      </trkpt>
      <trkpt lat="45.00602" lon="4.1502">
        <ele>1260</ele>
      </trkpt>
      <trkpt lat="45.00632" lon="4.14923">
        <ele>1256</ele>
        <time>2023-02-07T16:08:16Z</time>
      </trkpt>
      <trkpt lat="45.00632" lon="4.14923">
        <ele>1247</ele>
        <time>2023-02-07T16:08:16Z</time>
      </trkpt>
      <trkpt lat="45.00628" lon="4.14935">
        <ele>1247</ele>
        <time>2023-02-07T16:08:16Z</time>
      </trkpt>
      <trkpt lat="45.00638" lon="4.14931">
        <ele>1247</ele>
        <time>2023-02-07T16:08:16Z</time>
      </trkpt>
      <trkpt lat="45.00666" lon="4.14907">
        <ele>1247</ele>
        <time>2023-02-07T16:08:16Z</time>
      </trkpt>
      <trkpt lat="45.00676" lon="4.14905">
        <ele>1247</ele>
        <time>2023-02-07T16:08:16Z</time>
      </trkpt>
      <trkpt lat="45.00756" lon="4.14931">
        <ele>1246</ele>
        <time>2023-02-07T16:08:16Z</time>
      </trkpt>
      <trkpt lat="45.00779" lon="4.1495">
        <ele>1246</ele>
        <time>2023-02-07T16:08:16Z</time>
      </trkpt>
      <trkpt lat="45.00863" lon="4.14984">
        <ele>1248</ele>
      </trkpt>
      <trkpt lat="45.00947" lon="4.15018">
        <ele>1251</ele>
      </trkpt>
      <trkpt lat="45.0103" lon="4.15052">
        <ele>1258</ele>
      </trkpt>
      <trkpt lat="45.01114" lon="4.15086">
        <ele>1265</ele>
        <time>2023-02-07T16:08:16Z</time>
      </trkpt>
      <trkpt lat="45.01166" lon="4.15083">
        <ele>1270</ele>
        <time>2023-02-07T16:08:16Z</time>
      </trkpt>
      <trkpt lat="45.01189" lon="4.15076">
        <ele>1273</ele>
        <time>2023-02-07T16:08:16Z</time>
      </trkpt>
      <trkpt lat="45.01248" lon="4.1507">
        <ele>1276</ele>
      </trkpt>
      <trkpt lat="45.01306" lon="4.15064">
        <ele>1277</ele>
      </trkpt>
      <trkpt lat="45.01365" lon="4.15058">
        <ele>1279</ele>
      </trkpt>
      <trkpt lat="45.01423" lon="4.15052">
        <ele>1280</ele>
        <time>2023-02-07T16:08:16Z</time>
      </trkpt>
      <trkpt lat="45.01442" lon="4.15047">
        <ele>1280</ele>
        <time>2023-02-07T16:08:16Z</time>
      </trkpt>
      <trkpt lat="45.01533" lon="4.15029">
        <ele>1281</ele>
        <time>2023-02-07T16:08:16Z</time>
      </trkpt>
      <trkpt lat="45.01612" lon="4.15005">
        <ele>1281</ele>
        <time>2023-02-07T16:08:16Z</time>
      </trkpt>
      <trkpt lat="45.01619" lon="4.15011">
        <ele>1281</ele>
        <time>2023-02-07T16:08:16Z</time>
      </trkpt>
      <trkpt lat="45.01638" lon="4.15037">
        <ele>1281</ele>
        <time>2023-02-07T16:08:16Z</time>
      </trkpt>
      <trkpt lat="45.0165" lon="4.15041">
        <ele>1281</ele>
        <time>2023-02-07T16:08:16Z</time>
      </trkpt>
      <trkpt lat="45.01691" lon="4.1511">
        <ele>1281</ele>
      </trkpt>
      <trkpt lat="45.01732" lon="4.15179">
        <ele>1281</ele>
      </trkpt>
      <trkpt lat="45.01773" lon="4.15248">
        <ele>1280</ele>
      </trkpt>
      <trkpt lat="45.01815" lon="4.15316">
        <ele>1278</ele>
      </trkpt>
      <trkpt lat="45.01856" lon="4.15385">
        <ele>1277</ele>
      </trkpt>
      <trkpt lat="45.01897" lon="4.15454">
        <ele>1275</ele>
      </trkpt>
      <trkpt lat="45.01938" lon="4.15523">
        <ele>1273</ele>
      </trkpt>
      <trkpt lat="45.01979" lon="4.15592">
        <ele>1271</ele>
        <time>2023-02-07T16:08:16Z</time>
      </trkpt>
      <trkpt lat="45.01979" lon="4.15592">
        <ele>1266</ele>
        <time>2023-02-07T16:08:16Z</time>
      </trkpt>
      <trkpt lat="45.02002" lon="4.1564">
        <ele>1265</ele>
        <time>2023-02-07T16:08:16Z</time>
      </trkpt>
      <trkpt lat="45.02057" lon="4.15554">
        <ele>1265</ele>
      </trkpt>
      <trkpt lat="45.02111" lon="4.15468">
        <ele>1265</ele>
        <time>2023-02-07T16:08:16Z</time>
      </trkpt>
      <trkpt lat="45.02148" lon="4.15384">
        <ele>1266</ele>
      </trkpt>
      <trkpt lat="45.02185" lon="4.153">
        <ele>1268</ele>
      </trkpt>
      <trkpt lat="45.02221" lon="4.15215">
        <ele>1271</ele>
      </trkpt>
      <trkpt lat="45.02258" lon="4.15131">
        <ele>1275</ele>
        <time>2023-02-07T16:08:16Z</time>
      </trkpt>
      <trkpt lat="45.02261" lon="4.15113">
        <ele>1278</ele>
        <time>2023-02-07T16:08:16Z</time>
      </trkpt>
      <trkpt lat="45.02269" lon="4.15088">
        <ele>1280</ele>
        <time>2023-02-07T16:08:16Z</time>
      </trkpt>
      <trkpt lat="45.02308" lon="4.15031">
        <ele>1282</ele>
      </trkpt>
      <trkpt lat="45.02347" lon="4.14973">
        <ele>1284</ele>
        <time>2023-02-07T16:08:16Z</time>
      </trkpt>
      <trkpt lat="45.02388" lon="4.14922">
        <ele>1286</ele>
      </trkpt>
      <trkpt lat="45.02429" lon="4.14871">
        <ele>1288</ele>
        <time>2023-02-07T16:08:16Z</time>
      </trkpt>
      <trkpt lat="45.02476" lon="4.14844">
        <ele>1289</ele>
        <time>2023-02-07T16:08:16Z</time>
      </trkpt>
      <trkpt lat="45.02487" lon="4.14829">
        <ele>1290</ele>
        <time>2023-02-07T16:08:16Z</time>
      </trkpt>
      <trkpt lat="45.02498" lon="4.1482">
        <ele>1290</ele>
        <time>2023-02-07T16:08:16Z</time>
      </trkpt>
      <trkpt lat="45.02495" lon="4.14764">
        <ele>1290</ele>
        <time>2023-02-07T16:08:16Z</time>
      </trkpt>
      <trkpt lat="45.02485" lon="4.14711">
        <ele>1290</ele>
        <time>2023-02-07T16:08:16Z</time>
      </trkpt>
      <trkpt lat="45.02492" lon="4.1467">
        <ele>1290</ele>
        <time>2023-02-07T16:08:16Z</time>
      </trkpt>
      <trkpt lat="45.02515" lon="4.14643">
        <ele>1289</ele>
        <time>2023-02-07T16:08:16Z</time>
      </trkpt>
      <trkpt lat="45.0251" lon="4.14598">
        <ele>1288</ele>
        <time>2023-02-07T16:08:16Z</time>
      </trkpt>
      <trkpt lat="45.02518" lon="4.14597">
        <ele>1287</ele>
        <time>2023-02-07T16:08:16Z</time>
      </trkpt>
      <trkpt lat="45.02533" lon="4.1455">
        <ele>1285</ele>
        <time>2023-02-07T16:08:16Z</time>
      </trkpt>
      <trkpt lat="45.02535" lon="4.14533">
        <ele>1283</ele>
        <time>2023-02-07T16:08:16Z</time>
      </trkpt>
      <trkpt lat="45.02532" lon="4.14521">
        <ele>1282</ele>
        <time>2023-02-07T16:08:16Z</time>
      </trkpt>
      <trkpt lat="45.02545" lon="4.14499">
        <ele>1281</ele>
        <time>2023-02-07T16:08:16Z</time>
      </trkpt>
      <trkpt lat="45.02546" lon="4.14471">
        <ele>1280</ele>
        <time>2023-02-07T16:08:16Z</time>
      </trkpt>
      <trkpt lat="45.02554" lon="4.14455">
        <ele>1278</ele>
        <time>2023-02-07T16:08:16Z</time>
      </trkpt>
      <trkpt lat="45.02597" lon="4.14393">
        <ele>1276</ele>
        <time>2023-02-07T16:08:16Z</time>
      </trkpt>
      <trkpt lat="45.02604" lon="4.14377">
        <ele>1274</ele>
        <time>2023-02-07T16:08:16Z</time>
      </trkpt>
      <trkpt lat="45.02614" lon="4.14363">
        <ele>1272</ele>
        <time>2023-02-07T16:08:16Z</time>
      </trkpt>
      <trkpt lat="45.02628" lon="4.14355">
        <ele>1271</ele>
        <time>2023-02-07T16:08:16Z</time>
      </trkpt>
      <trkpt lat="45.02643" lon="4.14352">
        <ele>1263</ele>
        <time>2023-02-07T16:08:16Z</time>
      </trkpt>
      <trkpt lat="45.02637" lon="4.14341">
        <ele>1263</ele>
        <time>2023-02-07T16:08:16Z</time>
      </trkpt>
      <trkpt lat="45.02577" lon="4.1415">
        <ele>1261</ele>
        <time>2023-02-07T16:08:16Z</time>
      </trkpt>
      <trkpt lat="45.02564" lon="4.14045">
        <ele>1260</ele>
      </trkpt>
      <trkpt lat="45.02551" lon="4.13941">
        <ele>1258</ele>
      </trkpt>
      <trkpt lat="45.02537" lon="4.13836">
        <ele>1256</ele>
      </trkpt>
      <trkpt lat="45.02524" lon="4.13732">
        <ele>1255</ele>
        <time>2023-02-07T16:08:16Z</time>
      </trkpt>
      <trkpt lat="45.02525" lon="4.13716">
        <ele>1254</ele>
        <time>2023-02-07T16:08:16Z</time>
      </trkpt>
      <trkpt lat="45.02529" lon="4.13699">
        <ele>1254</ele>
        <time>2023-02-07T16:08:16Z</time>
      </trkpt>
      <trkpt lat="45.02534" lon="4.13689">
        <ele>1254</ele>
        <time>2023-02-07T16:08:16Z</time>
      </trkpt>
      <trkpt lat="45.02634" lon="4.13568">
        <ele>1252</ele>
        <time>2023-02-07T16:08:16Z</time>
      </trkpt>
      <trkpt lat="45.02677" lon="4.13471">
        <ele>1250</ele>
      </trkpt>
      <trkpt lat="45.0272" lon="4.13374">
        <ele>1247</ele>
        <time>2023-02-07T16:08:16Z</time>
      </trkpt>
      <trkpt lat="45.02727" lon="4.1335">
        <ele>1244</ele>
        <time>2023-02-07T16:08:16Z</time>
      </trkpt>
      <trkpt lat="45.02727" lon="4.13319">
        <ele>1241</ele>
        <time>2023-02-07T16:08:16Z</time>
      </trkpt>
      <trkpt lat="45.02719" lon="4.13206">
        <ele>1237</ele>
        <time>2023-02-07T16:08:16Z</time>
      </trkpt>
      <trkpt lat="45.02719" lon="4.13206">
        <ele>1223</ele>
        <time>2023-02-07T16:08:16Z</time>
      </trkpt>
      <trkpt lat="45.0271" lon="4.13153">
        <ele>1222</ele>
        <time>2023-02-07T16:08:16Z</time>
      </trkpt>
      <trkpt lat="45.0271" lon="4.13136">
        <ele>1220</ele>
        <time>2023-02-07T16:08:16Z</time>
      </trkpt>
      <trkpt lat="45.0273" lon="4.13095">
        <ele>1218</ele>
        <time>2023-02-07T16:08:16Z</time>
      </trkpt>
      <trkpt lat="45.02744" lon="4.13073">
        <ele>1216</ele>
        <time>2023-02-07T16:08:16Z</time>
      </trkpt>
      <trkpt lat="45.02751" lon="4.13035">
        <ele>1214</ele>
        <time>2023-02-07T16:08:16Z</time>
      </trkpt>
      <trkpt lat="45.02754" lon="4.12998">
        <ele>1212</ele>
        <time>2023-02-07T16:08:16Z</time>
      </trkpt>
      <trkpt lat="45.02788" lon="4.12911">
        <ele>1208</ele>
        <time>2023-02-07T16:08:16Z</time>
      </trkpt>
      <trkpt lat="45.02813" lon="4.12881">
        <ele>1205</ele>
        <time>2023-02-07T16:08:16Z</time>
      </trkpt>
      <trkpt lat="45.02881" lon="4.12828">
        <ele>1201</ele>
        <time>2023-02-07T16:08:16Z</time>
      </trkpt>
      <trkpt lat="45.02897" lon="4.12798">
        <ele>1198</ele>
        <time>2023-02-07T16:08:16Z</time>
      </trkpt>
      <trkpt lat="45.02908" lon="4.12753">
        <ele>1195</ele>
        <time>2023-02-07T16:08:16Z</time>
      </trkpt>
      <trkpt lat="45.0291" lon="4.12713">
        <ele>1192</ele>
        <time>2023-02-07T16:08:16Z</time>
      </trkpt>
      <trkpt lat="45.02913" lon="4.127">
        <ele>1190</ele>
        <time>2023-02-07T16:08:16Z</time>
      </trkpt>
      <trkpt lat="45.02943" lon="4.12652">
        <ele>1187</ele>
        <time>2023-02-07T16:08:16Z</time>
      </trkpt>
      <trkpt lat="45.02939" lon="4.12636">
        <ele>1185</ele>
        <time>2023-02-07T16:08:16Z</time>
      </trkpt>
      <trkpt lat="45.02956" lon="4.12559">
        <ele>1184</ele>
        <time>2023-02-07T16:08:16Z</time>
      </trkpt>
      <trkpt lat="45.02955" lon="4.12543">
        <ele>1183</ele>
        <time>2023-02-07T16:08:16Z</time>
      </trkpt>
      <trkpt lat="45.0295" lon="4.12531">
        <ele>1183</ele>
        <time>2023-02-07T16:08:16Z</time>
      </trkpt>
      <trkpt lat="45.02911" lon="4.12493">
        <ele>1183</ele>
        <time>2023-02-07T16:08:16Z</time>
      </trkpt>
      <trkpt lat="45.02905" lon="4.1248">
        <ele>1184</ele>
        <time>2023-02-07T16:08:16Z</time>
      </trkpt>
      <trkpt lat="45.02893" lon="4.12401">
        <ele>1186</ele>
        <time>2023-02-07T16:08:16Z</time>
      </trkpt>
      <trkpt lat="45.02887" lon="4.12387">
        <ele>1188</ele>
        <time>2023-02-07T16:08:16Z</time>
      </trkpt>
      <trkpt lat="45.0286" lon="4.12367">
        <ele>1189</ele>
        <time>2023-02-07T16:08:16Z</time>
      </trkpt>
      <trkpt lat="45.02809" lon="4.1235">
        <ele>1190</ele>
        <time>2023-02-07T16:08:16Z</time>
      </trkpt>
      <trkpt lat="45.0278" lon="4.12242">
        <ele>1193</ele>
        <time>2023-02-07T16:08:16Z</time>
      </trkpt>
      <trkpt lat="45.02751" lon="4.12176">
        <ele>1196</ele>
        <time>2023-02-07T16:08:16Z</time>
      </trkpt>
      <trkpt lat="45.02754" lon="4.12088">
        <ele>1199</ele>
        <time>2023-02-07T16:08:16Z</time>
      </trkpt>
      <trkpt lat="45.02756" lon="4.12009">
        <ele>1199</ele>
        <time>2023-02-07T16:08:16Z</time>
      </trkpt>
      <trkpt lat="45.02754" lon="4.11906">
        <ele>1198</ele>
        <time>2023-02-07T16:08:16Z</time>
      </trkpt>
      <trkpt lat="45.02757" lon="4.11854">
        <ele>1196</ele>
        <time>2023-02-07T16:08:16Z</time>
      </trkpt>
      <trkpt lat="45.02753" lon="4.11777">
        <ele>1194</ele>
        <time>2023-02-07T16:08:16Z</time>
      </trkpt>
      <trkpt lat="45.02718" lon="4.11734">
        <ele>1192</ele>
        <time>2023-02-07T16:08:16Z</time>
      </trkpt>
      <trkpt lat="45.02707" lon="4.11704">
        <ele>1191</ele>
        <time>2023-02-07T16:08:16Z</time>
      </trkpt>
      <trkpt lat="45.02691" lon="4.11656">
        <ele>1190</ele>
        <time>2023-02-07T16:08:16Z</time>
      </trkpt>
      <trkpt lat="45.02648" lon="4.11599">
        <ele>1189</ele>
        <time>2023-02-07T16:08:16Z</time>
      </trkpt>
      <trkpt lat="45.02624" lon="4.11494">
        <ele>1187</ele>
        <time>2023-02-07T16:08:16Z</time>
      </trkpt>
      <trkpt lat="45.02598" lon="4.11393">
        <ele>1185</ele>
        <time>2023-02-07T16:08:16Z</time>
      </trkpt>
      <trkpt lat="45.02607" lon="4.11326">
        <ele>1170</ele>
        <time>2023-02-07T16:08:16Z</time>
      </trkpt>
      <trkpt lat="45.02609" lon="4.11255">
        <ele>1167</ele>
        <time>2023-02-07T16:08:16Z</time>
      </trkpt>
      <trkpt lat="45.02607" lon="4.11223">
        <ele>1165</ele>
        <time>2023-02-07T16:08:16Z</time>
      </trkpt>
      <trkpt lat="45.02612" lon="4.11191">
        <ele>1163</ele>
        <time>2023-02-07T16:08:16Z</time>
      </trkpt>
      <trkpt lat="45.02644" lon="4.11182">
        <ele>1160</ele>
        <time>2023-02-07T16:08:16Z</time>
      </trkpt>
      <trkpt lat="45.02663" lon="4.11154">
        <ele>1156</ele>
        <time>2023-02-07T16:08:16Z</time>
      </trkpt>
      <trkpt lat="45.02692" lon="4.11124">
        <ele>1153</ele>
        <time>2023-02-07T16:08:16Z</time>
      </trkpt>
      <trkpt lat="45.02668" lon="4.11073">
        <ele>1149</ele>
        <time>2023-02-07T16:08:16Z</time>
      </trkpt>
      <trkpt lat="45.02641" lon="4.11028">
        <ele>1144</ele>
        <time>2023-02-07T16:08:16Z</time>
      </trkpt>
      <trkpt lat="45.0261" lon="4.11011">
        <ele>1141</ele>
        <time>2023-02-07T16:08:16Z</time>
      </trkpt>
      <trkpt lat="45.02587" lon="4.10955">
        <ele>1137</ele>
        <time>2023-02-07T16:08:16Z</time>
      </trkpt>
      <trkpt lat="45.02587" lon="4.10901">
        <ele>1132</ele>
        <time>2023-02-07T16:08:16Z</time>
      </trkpt>
      <trkpt lat="45.0258" lon="4.10863">
        <ele>1127</ele>
        <time>2023-02-07T16:08:16Z</time>
      </trkpt>
      <trkpt lat="45.02606" lon="4.10828">
        <ele>1122</ele>
        <time>2023-02-07T16:08:16Z</time>
      </trkpt>
      <trkpt lat="45.02642" lon="4.10837">
        <ele>1117</ele>
        <time>2023-02-07T16:08:16Z</time>
      </trkpt>
      <trkpt lat="45.02671" lon="4.10807">
        <ele>1111</ele>
        <time>2023-02-07T16:08:16Z</time>
      </trkpt>
      <trkpt lat="45.02697" lon="4.10732">
        <ele>1105</ele>
        <time>2023-02-07T16:08:16Z</time>
      </trkpt>
      <trkpt lat="45.02685" lon="4.10689">
        <ele>1100</ele>
        <time>2023-02-07T16:08:16Z</time>
      </trkpt>
      <trkpt lat="45.02721" lon="4.10661">
        <ele>1095</ele>
        <time>2023-02-07T16:08:16Z</time>
      </trkpt>
      <trkpt lat="45.02763" lon="4.10674">
        <ele>1091</ele>
        <time>2023-02-07T16:08:16Z</time>
      </trkpt>
      <trkpt lat="45.02795" lon="4.10685">
        <ele>1089</ele>
        <time>2023-02-07T16:08:16Z</time>
      </trkpt>
      <trkpt lat="45.02816" lon="4.10693">
        <ele>1087</ele>
        <time>2023-02-07T16:08:16Z</time>
      </trkpt>
      <trkpt lat="45.02824" lon="4.10659">
        <ele>1085</ele>
        <time>2023-02-07T16:08:16Z</time>
      </trkpt>
      <trkpt lat="45.02847" lon="4.10635">
        <ele>1083</ele>
        <time>2023-02-07T16:08:16Z</time>
      </trkpt>
      <trkpt lat="45.02904" lon="4.10584">
        <ele>1079</ele>
        <time>2023-02-07T16:08:16Z</time>
      </trkpt>
      <trkpt lat="45.02897" lon="4.10528">
        <ele>1076</ele>
        <time>2023-02-07T16:08:16Z</time>
      </trkpt>
      <trkpt lat="45.02911" lon="4.10476">
        <ele>1072</ele>
        <time>2023-02-07T16:08:16Z</time>
      </trkpt>
      <trkpt lat="45.02925" lon="4.10378">
        <ele>1066</ele>
        <time>2023-02-07T16:08:16Z</time>
      </trkpt>
      <trkpt lat="45.02962" lon="4.10268">
        <ele>1059</ele>
        <time>2023-02-07T16:08:16Z</time>
      </trkpt>
      <trkpt lat="45.0297" lon="4.10199">
        <ele>1052</ele>
        <time>2023-02-07T16:08:16Z</time>
      </trkpt>
      <trkpt lat="45.03029" lon="4.10109">
        <ele>1044</ele>
        <time>2023-02-07T16:08:16Z</time>
      </trkpt>
      <trkpt lat="45.0302" lon="4.10037">
        <ele>1036</ele>
        <time>2023-02-07T16:08:16Z</time>
      </trkpt>
      <trkpt lat="45.03026" lon="4.10009">
        <ele>1031</ele>
        <time>2023-02-07T16:08:16Z</time>
      </trkpt>
      <trkpt lat="45.03023" lon="4.09987">
        <ele>1027</ele>
        <time>2023-02-07T16:08:16Z</time>
      </trkpt>
      <trkpt lat="45.03062" lon="4.09953">
        <ele>1023</ele>
        <time>2023-02-07T16:08:16Z</time>
      </trkpt>
      <trkpt lat="45.03085" lon="4.09931">
        <ele>1019</ele>
        <time>2023-02-07T16:08:16Z</time>
      </trkpt>
      <trkpt lat="45.03109" lon="4.09863">
        <ele>1013</ele>
        <time>2023-02-07T16:08:16Z</time>
      </trkpt>
      <trkpt lat="45.03123" lon="4.09822">
        <ele>1009</ele>
        <time>2023-02-07T16:08:16Z</time>
      </trkpt>
      <trkpt lat="45.03135" lon="4.09762">
        <ele>1005</ele>
        <time>2023-02-07T16:08:16Z</time>
      </trkpt>
      <trkpt lat="45.03129" lon="4.09687">
        <ele>1001</ele>
        <time>2023-02-07T16:08:16Z</time>
      </trkpt>
      <trkpt lat="45.03162" lon="4.09584">
        <ele>996</ele>
        <time>2023-02-07T16:08:16Z</time>
      </trkpt>
      <trkpt lat="45.03194" lon="4.09507">
        <ele>991</ele>
        <time>2023-02-07T16:08:16Z</time>
      </trkpt>
      <trkpt lat="45.03182" lon="4.09451">
        <ele>987</ele>
        <time>2023-02-07T16:08:16Z</time>
      </trkpt>
      <trkpt lat="45.03193" lon="4.09416">
        <ele>984</ele>
        <time>2023-02-07T16:08:16Z</time>
      </trkpt>
      <trkpt lat="45.03203" lon="4.09384">
        <ele>981</ele>
        <time>2023-02-07T16:08:16Z</time>
      </trkpt>
      <trkpt lat="45.03208" lon="4.09343">
        <ele>978</ele>
        <time>2023-02-07T16:08:16Z</time>
      </trkpt>
      <trkpt lat="45.03226" lon="4.09264">
        <ele>975</ele>
        <time>2023-02-07T16:08:16Z</time>
      </trkpt>
      <trkpt lat="45.03218" lon="4.09039">
        <ele>967</ele>
        <time>2023-02-07T16:08:16Z</time>
      </trkpt>
      <trkpt lat="45.03246" lon="4.08946">
        <ele>961</ele>
        <time>2023-02-07T16:08:16Z</time>
      </trkpt>
      <trkpt lat="45.03259" lon="4.08865">
        <ele>956</ele>
        <time>2023-02-07T16:08:16Z</time>
      </trkpt>
      <trkpt lat="45.03231" lon="4.08843">
        <ele>940</ele>
        <time>2023-02-07T16:08:16Z</time>
      </trkpt>
      <trkpt lat="45.0318" lon="4.08777">
        <ele>937</ele>
        <time>2023-02-07T16:08:16Z</time>
      </trkpt>
      <trkpt lat="45.03143" lon="4.08763">
        <ele>935</ele>
        <time>2023-02-07T16:08:16Z</time>
      </trkpt>
      <trkpt lat="45.03093" lon="4.08756">
        <ele>931</ele>
        <time>2023-02-07T16:08:16Z</time>
      </trkpt>
      <trkpt lat="45.03081" lon="4.08747">
        <ele>929</ele>
        <time>2023-02-07T16:08:16Z</time>
      </trkpt>
      <trkpt lat="45.03058" lon="4.08711">
        <ele>926</ele>
        <time>2023-02-07T16:08:16Z</time>
      </trkpt>
      <trkpt lat="45.03021" lon="4.08621">
        <ele>921</ele>
        <time>2023-02-07T16:08:16Z</time>
      </trkpt>
      <trkpt lat="45.03022" lon="4.0858">
        <ele>917</ele>
        <time>2023-02-07T16:08:16Z</time>
      </trkpt>
      <trkpt lat="45.03018" lon="4.08572">
        <ele>915</ele>
        <time>2023-02-07T16:08:16Z</time>
      </trkpt>
      <trkpt lat="45.0301" lon="4.08565">
        <ele>913</ele>
        <time>2023-02-07T16:08:16Z</time>
      </trkpt>
      <trkpt lat="45.03003" lon="4.08552">
        <ele>912</ele>
        <time>2023-02-07T16:08:16Z</time>
      </trkpt>
      <trkpt lat="45.02995" lon="4.08516">
        <ele>912</ele>
        <time>2023-02-07T16:08:16Z</time>
      </trkpt>
      <trkpt lat="45.02995" lon="4.08516">
        <ele>909</ele>
        <time>2023-02-07T16:08:16Z</time>
      </trkpt>
      <trkpt lat="45.02981" lon="4.08464">
        <ele>910</ele>
        <time>2023-02-07T16:08:16Z</time>
      </trkpt>
      <trkpt lat="45.02983" lon="4.08346">
        <ele>911</ele>
        <time>2023-02-07T16:08:16Z</time>
      </trkpt>
      <trkpt lat="45.02914" lon="4.08283">
        <ele>914</ele>
        <time>2023-02-07T16:08:16Z</time>
      </trkpt>
      <trkpt lat="45.0283" lon="4.0823">
        <ele>919</ele>
        <time>2023-02-07T16:08:16Z</time>
      </trkpt>
      <trkpt lat="45.02838" lon="4.08212">
        <ele>921</ele>
        <time>2023-02-07T16:08:16Z</time>
      </trkpt>
      <trkpt lat="45.02838" lon="4.08212">
        <ele>930</ele>
        <time>2023-02-07T16:08:16Z</time>
      </trkpt>
      <trkpt lat="45.02844" lon="4.08199">
        <ele>930</ele>
        <time>2023-02-07T16:08:16Z</time>
      </trkpt>
      <trkpt lat="45.02841" lon="4.08174">
        <ele>931</ele>
        <time>2023-02-07T16:08:16Z</time>
      </trkpt>
      <trkpt lat="45.02854" lon="4.08073">
        <ele>934</ele>
        <time>2023-02-07T16:08:16Z</time>
      </trkpt>
      <trkpt lat="45.02851" lon="4.08059">
        <ele>937</ele>
        <time>2023-02-07T16:08:16Z</time>
      </trkpt>
      <trkpt lat="45.02861" lon="4.07996">
        <ele>940</ele>
        <time>2023-02-07T16:08:16Z</time>
      </trkpt>
      <trkpt lat="45.02861" lon="4.07889">
        <ele>947</ele>
        <time>2023-02-07T16:08:16Z</time>
      </trkpt>
      <trkpt lat="45.02863" lon="4.07876">
        <ele>951</ele>
        <time>2023-02-07T16:08:16Z</time>
      </trkpt>
      <trkpt lat="45.02868" lon="4.07863">
        <ele>954</ele>
        <time>2023-02-07T16:08:16Z</time>
      </trkpt>
      <trkpt lat="45.02862" lon="4.07853">
        <ele>957</ele>
        <time>2023-02-07T16:08:16Z</time>
      </trkpt>
      <trkpt lat="45.02845" lon="4.07838">
        <ele>960</ele>
        <time>2023-02-07T16:08:16Z</time>
      </trkpt>
      <trkpt lat="45.0285" lon="4.07828">
        <ele>962</ele>
        <time>2023-02-07T16:08:16Z</time>
      </trkpt>
      <trkpt lat="45.0286" lon="4.07823">
        <ele>964</ele>
        <time>2023-02-07T16:08:16Z</time>
      </trkpt>
      <trkpt lat="45.02856" lon="4.07813">
        <ele>966</ele>
        <time>2023-02-07T16:08:16Z</time>
      </trkpt>
      <trkpt lat="45.02858" lon="4.07803">
        <ele>968</ele>
        <time>2023-02-07T16:08:16Z</time>
      </trkpt>
      <trkpt lat="45.02868" lon="4.07805">
        <ele>970</ele>
        <time>2023-02-07T16:08:16Z</time>
      </trkpt>
      <trkpt lat="45.02865" lon="4.07794">
        <ele>972</ele>
        <time>2023-02-07T16:08:16Z</time>
      </trkpt>
      <trkpt lat="45.02856" lon="4.07787">
        <ele>973</ele>
        <time>2023-02-07T16:08:16Z</time>
      </trkpt>
      <trkpt lat="45.02849" lon="4.07777">
        <ele>975</ele>
        <time>2023-02-07T16:08:16Z</time>
      </trkpt>
      <trkpt lat="45.02842" lon="4.07739">
        <ele>977</ele>
        <time>2023-02-07T16:08:16Z</time>
      </trkpt>
      <trkpt lat="45.02842" lon="4.07729">
        <ele>979</ele>
        <time>2023-02-07T16:08:16Z</time>
      </trkpt>
      <trkpt lat="45.02845" lon="4.07693">
        <ele>980</ele>
        <time>2023-02-07T16:08:16Z</time>
      </trkpt>
      <trkpt lat="45.02845" lon="4.07693">
        <ele>987</ele>
        <time>2023-02-07T16:08:16Z</time>
      </trkpt>
      <trkpt lat="45.02851" lon="4.07682">
        <ele>987</ele>
        <time>2023-02-07T16:08:16Z</time>
      </trkpt>
      <trkpt lat="45.02898" lon="4.0763">
        <ele>988</ele>
        <time>2023-02-07T16:08:16Z</time>
      </trkpt>
      <trkpt lat="45.02917" lon="4.07618">
        <ele>988</ele>
        <time>2023-02-07T16:08:16Z</time>
      </trkpt>
      <trkpt lat="45.02942" lon="4.07612">
        <ele>987</ele>
        <time>2023-02-07T16:08:16Z</time>
      </trkpt>
      <trkpt lat="45.02957" lon="4.07602">
        <ele>987</ele>
        <time>2023-02-07T16:08:16Z</time>
      </trkpt>
      <trkpt lat="45.02965" lon="4.07594">
        <ele>986</ele>
        <time>2023-02-07T16:08:16Z</time>
      </trkpt>
      <trkpt lat="45.02974" lon="4.07592">
        <ele>985</ele>
        <time>2023-02-07T16:08:16Z</time>
      </trkpt>
      <trkpt lat="45.02989" lon="4.07578">
        <ele>982</ele>
        <time>2023-02-07T16:08:16Z</time>
      </trkpt>
      <trkpt lat="45.03016" lon="4.07579">
        <ele>978</ele>
        <time>2023-02-07T16:08:16Z</time>
      </trkpt>
      <trkpt lat="45.03041" lon="4.07567">
        <ele>952</ele>
        <time>2023-02-07T16:08:16Z</time>
      </trkpt>
      <trkpt lat="45.03068" lon="4.07579">
        <ele>951</ele>
        <time>2023-02-07T16:08:16Z</time>
      </trkpt>
      <trkpt lat="45.03083" lon="4.07578">
        <ele>949</ele>
        <time>2023-02-07T16:08:16Z</time>
      </trkpt>
      <trkpt lat="45.03099" lon="4.07582">
        <ele>948</ele>
        <time>2023-02-07T16:08:16Z</time>
      </trkpt>
      <trkpt lat="45.03106" lon="4.07571">
        <ele>946</ele>
        <time>2023-02-07T16:08:16Z</time>
      </trkpt>
      <trkpt lat="45.03104" lon="4.07561">
        <ele>945</ele>
        <time>2023-02-07T16:08:16Z</time>
      </trkpt>
      <trkpt lat="45.03108" lon="4.0755">
        <ele>943</ele>
        <time>2023-02-07T16:08:16Z</time>
      </trkpt>
      <trkpt lat="45.03112" lon="4.07539">
        <ele>942</ele>
        <time>2023-02-07T16:08:16Z</time>
      </trkpt>
      <trkpt lat="45.03115" lon="4.0753">
        <ele>940</ele>
        <time>2023-02-07T16:08:16Z</time>
      </trkpt>
      <trkpt lat="45.03115" lon="4.07518">
        <ele>939</ele>
        <time>2023-02-07T16:08:16Z</time>
      </trkpt>
      <trkpt lat="45.03118" lon="4.07514">
        <ele>937</ele>
        <time>2023-02-07T16:08:16Z</time>
      </trkpt>
      <trkpt lat="45.03126" lon="4.07517">
        <ele>936</ele>
        <time>2023-02-07T16:08:16Z</time>
      </trkpt>
      <trkpt lat="45.03126" lon="4.07517">
        <ele>926</ele>
        <time>2023-02-07T16:08:16Z</time>
      </trkpt>
      <trkpt lat="45.0314" lon="4.07522">
        <ele>926</ele>
        <time>2023-02-07T16:08:16Z</time>
      </trkpt>
      <trkpt lat="45.03139" lon="4.07509">
        <ele>926</ele>
        <time>2023-02-07T16:08:16Z</time>
      </trkpt>
      <trkpt lat="45.03145" lon="4.07487">
        <ele>926</ele>
        <time>2023-02-07T16:08:16Z</time>
      </trkpt>
      <trkpt lat="45.03151" lon="4.07477">
        <ele>925</ele>
        <time>2023-02-07T16:08:16Z</time>
      </trkpt>
      <trkpt lat="45.03157" lon="4.07473">
        <ele>925</ele>
        <time>2023-02-07T16:08:16Z</time>
      </trkpt>
      <trkpt lat="45.03189" lon="4.07475">
        <ele>924</ele>
        <time>2023-02-07T16:08:16Z</time>
      </trkpt>
      <trkpt lat="45.03208" lon="4.07458">
        <ele>923</ele>
        <time>2023-02-07T16:08:16Z</time>
      </trkpt>
      <trkpt lat="45.03235" lon="4.07422">
        <ele>922</ele>
        <time>2023-02-07T16:08:16Z</time>
      </trkpt>
      <trkpt lat="45.03238" lon="4.07412">
        <ele>921</ele>
        <time>2023-02-07T16:08:16Z</time>
      </trkpt>
      <trkpt lat="45.03237" lon="4.07388">
        <ele>920</ele>
        <time>2023-02-07T16:08:16Z</time>
      </trkpt>
      <trkpt lat="45.03247" lon="4.07354">
        <ele>919</ele>
        <time>2023-02-07T16:08:16Z</time>
      </trkpt>
      <trkpt lat="45.03254" lon="4.0735">
        <ele>917</ele>
        <time>2023-02-07T16:08:16Z</time>
      </trkpt>
      <trkpt lat="45.03261" lon="4.07354">
        <ele>916</ele>
        <time>2023-02-07T16:08:16Z</time>
      </trkpt>
      <trkpt lat="45.0328" lon="4.07353">
        <ele>915</ele>
        <time>2023-02-07T16:08:16Z</time>
      </trkpt>
      <trkpt lat="45.03287" lon="4.0735">
        <ele>915</ele>
        <time>2023-02-07T16:08:16Z</time>
      </trkpt>
      <trkpt lat="45.03287" lon="4.0735">
        <ele>910</ele>
        <time>2023-02-07T16:08:16Z</time>
      </trkpt>
      <trkpt lat="45.03323" lon="4.07302">
        <ele>909</ele>
        <time>2023-02-07T16:08:16Z</time>
      </trkpt>
      <trkpt lat="45.03375" lon="4.07269">
        <ele>907</ele>
        <time>2023-02-07T16:08:16Z</time>
      </trkpt>
      <trkpt lat="45.03405" lon="4.07262">
        <ele>906</ele>
        <time>2023-02-07T16:08:16Z</time>
      </trkpt>
      <trkpt lat="45.03447" lon="4.07259">
        <ele>904</ele>
        <time>2023-02-07T16:08:16Z</time>
      </trkpt>
      <trkpt lat="45.03444" lon="4.07247">
        <ele>902</ele>
        <time>2023-02-07T16:08:16Z</time>
      </trkpt>
      <trkpt lat="45.03438" lon="4.07238">
        <ele>901</ele>
        <time>2023-02-07T16:08:16Z</time>
      </trkpt>
      <trkpt lat="45.034" lon="4.07187">
        <ele>900</ele>
        <time>2023-02-07T16:08:16Z</time>
      </trkpt>
      <trkpt lat="45.03396" lon="4.07177">
        <ele>900</ele>
        <time>2023-02-07T16:08:16Z</time>
      </trkpt>
      <trkpt lat="45.03393" lon="4.07164">
        <ele>900</ele>
        <time>2023-02-07T16:08:16Z</time>
      </trkpt>
      <trkpt lat="45.03395" lon="4.07152">
        <ele>899</ele>
        <time>2023-02-07T16:08:16Z</time>
      </trkpt>
      <trkpt lat="45.03394" lon="4.07142">
        <ele>899</ele>
        <time>2023-02-07T16:08:16Z</time>
      </trkpt>
      <trkpt lat="45.03399" lon="4.071">
        <ele>899</ele>
        <time>2023-02-07T16:08:16Z</time>
      </trkpt>
      <trkpt lat="45.03396" lon="4.07063">
        <ele>898</ele>
        <time>2023-02-07T16:08:16Z</time>
      </trkpt>
      <trkpt lat="45.03398" lon="4.07027">
        <ele>898</ele>
        <time>2023-02-07T16:08:16Z</time>
      </trkpt>
      <trkpt lat="45.03411" lon="4.06994">
        <ele>896</ele>
        <time>2023-02-07T16:08:16Z</time>
      </trkpt>
      <trkpt lat="45.03418" lon="4.06986">
        <ele>895</ele>
        <time>2023-02-07T16:08:16Z</time>
      </trkpt>
      <trkpt lat="45.03432" lon="4.06966">
        <ele>893</ele>
        <time>2023-02-07T16:08:16Z</time>
      </trkpt>
      <trkpt lat="45.03468" lon="4.06935">
        <ele>890</ele>
        <time>2023-02-07T16:08:16Z</time>
      </trkpt>
      <trkpt lat="45.03474" lon="4.06926">
        <ele>888</ele>
        <time>2023-02-07T16:08:16Z</time>
      </trkpt>
      <trkpt lat="45.03487" lon="4.06912">
        <ele>886</ele>
        <time>2023-02-07T16:08:16Z</time>
      </trkpt>
      <trkpt lat="45.03487" lon="4.06912">
        <ele>876</ele>
        <time>2023-02-07T16:08:16Z</time>
      </trkpt>
      <trkpt lat="45.03513" lon="4.06886">
        <ele>873</ele>
        <time>2023-02-07T16:08:16Z</time>
      </trkpt>
      <trkpt lat="45.03527" lon="4.06879">
        <ele>873</ele>
        <time>2023-02-07T16:08:16Z</time>
      </trkpt>
      <trkpt lat="45.03533" lon="4.06873">
        <ele>873</ele>
        <time>2023-02-07T16:08:16Z</time>
      </trkpt>
      <trkpt lat="45.03544" lon="4.06849">
        <ele>872</ele>
        <time>2023-02-07T16:08:16Z</time>
      </trkpt>
      <trkpt lat="45.03563" lon="4.06842">
        <ele>872</ele>
        <time>2023-02-07T16:08:16Z</time>
      </trkpt>
      <trkpt lat="45.03633" lon="4.06836">
        <ele>869</ele>
        <time>2023-02-07T16:08:16Z</time>
      </trkpt>
      <trkpt lat="45.03645" lon="4.06838">
        <ele>866</ele>
        <time>2023-02-07T16:08:16Z</time>
      </trkpt>
      <trkpt lat="45.03646" lon="4.06724">
        <ele>861</ele>
      </trkpt>
      <trkpt lat="45.03646" lon="4.06609">
        <ele>855</ele>
        <time>2023-02-07T16:08:16Z</time>
      </trkpt>
      <trkpt lat="45.03628" lon="4.06485">
        <ele>849</ele>
      </trkpt>
      <trkpt lat="45.0361" lon="4.06361">
        <ele>842</ele>
        <time>2023-02-07T16:08:16Z</time>
      </trkpt>
      <trkpt lat="45.0359" lon="4.06293">
        <ele>837</ele>
        <time>2023-02-07T16:08:16Z</time>
      </trkpt>
      <trkpt lat="45.03579" lon="4.06299">
        <ele>833</ele>
        <time>2023-02-07T16:08:16Z</time>
      </trkpt>
      <trkpt lat="45.03579" lon="4.06299">
        <ele>822</ele>
        <time>2023-02-07T16:08:16Z</time>
      </trkpt>
      <trkpt lat="45.03522" lon="4.06302">
        <ele>822</ele>
        <time>2023-02-07T16:08:16Z</time>
      </trkpt>
      <trkpt lat="45.03502" lon="4.06297">
        <ele>823</ele>
        <time>2023-02-07T16:08:16Z</time>
      </trkpt>
      <trkpt lat="45.03494" lon="4.06301">
        <ele>823</ele>
        <time>2023-02-07T16:08:16Z</time>
      </trkpt>
      <trkpt lat="45.03485" lon="4.063">
        <ele>824</ele>
        <time>2023-02-07T16:08:16Z</time>
      </trkpt>
      <trkpt lat="45.0348" lon="4.06291">
        <ele>825</ele>
        <time>2023-02-07T16:08:16Z</time>
      </trkpt>
      <trkpt lat="45.03468" lon="4.06238">
        <ele>827</ele>
        <time>2023-02-07T16:08:16Z</time>
      </trkpt>
      <trkpt lat="45.03457" lon="4.0622">
        <ele>830</ele>
        <time>2023-02-07T16:08:16Z</time>
      </trkpt>
      <trkpt lat="45.03429" lon="4.06232">
        <ele>833</ele>
        <time>2023-02-07T16:08:16Z</time>
      </trkpt>
      <trkpt lat="45.03429" lon="4.06232">
        <ele>846</ele>
        <time>2023-02-07T16:08:16Z</time>
      </trkpt>
      <trkpt lat="45.03457" lon="4.0622">
        <ele>845</ele>
        <time>2023-02-07T16:08:16Z</time>
      </trkpt>
      <trkpt lat="45.03465" lon="4.06198">
        <ele>844</ele>
        <time>2023-02-07T16:08:16Z</time>
      </trkpt>
      <trkpt lat="45.03484" lon="4.06169">
        <ele>842</ele>
        <time>2023-02-07T16:08:16Z</time>
      </trkpt>
      <trkpt lat="45.03487" lon="4.06158">
        <ele>840</ele>
        <time>2023-02-07T16:08:16Z</time>
      </trkpt>
      <trkpt lat="45.03507" lon="4.0615">
        <ele>838</ele>
        <time>2023-02-07T16:08:16Z</time>
      </trkpt>
      <trkpt lat="45.03556" lon="4.06103">
        <ele>835</ele>
        <time>2023-02-07T16:08:16Z</time>
      </trkpt>
      <trkpt lat="45.03642" lon="4.06069">
        <ele>831</ele>
        <time>2023-02-07T16:08:16Z</time>
      </trkpt>
      <trkpt lat="45.03643" lon="4.06015">
        <ele>828</ele>
        <time>2023-02-07T16:08:16Z</time>
      </trkpt>
      <trkpt lat="45.03643" lon="4.06015">
        <ele>820</ele>
        <time>2023-02-07T16:08:16Z</time>
      </trkpt>
      <trkpt lat="45.0365" lon="4.05837">
        <ele>819</ele>
      </trkpt>
      <trkpt lat="45.03657" lon="4.05658">
        <ele>817</ele>
      </trkpt>
      <trkpt lat="45.03663" lon="4.0548">
        <ele>816</ele>
      </trkpt>
      <trkpt lat="45.0367" lon="4.05301">
        <ele>816</ele>
        <time>2023-02-07T16:08:16Z</time>
      </trkpt>
      <trkpt lat="45.0367" lon="4.05301">
        <ele>817</ele>
        <time>2023-02-07T16:08:16Z</time>
      </trkpt>
      <trkpt lat="45.0367" lon="4.0519">
        <ele>817</ele>
      </trkpt>
      <trkpt lat="45.03669" lon="4.05079">
        <ele>819</ele>
        <time>2023-02-07T16:08:16Z</time>
      </trkpt>
      <trkpt lat="45.03681" lon="4.04961">
        <ele>819</ele>
      </trkpt>
      <trkpt lat="45.03693" lon="4.04843">
        <ele>818</ele>
        <time>2023-02-07T16:08:16Z</time>
      </trkpt>
      <trkpt lat="45.03692" lon="4.04723">
        <ele>817</ele>
      </trkpt>
      <trkpt lat="45.0369" lon="4.04603">
        <ele>815</ele>
        <time>2023-02-07T16:08:16Z</time>
      </trkpt>
      <trkpt lat="45.03698" lon="4.04587">
        <ele>815</ele>
        <time>2023-02-07T16:08:16Z</time>
      </trkpt>
      <trkpt lat="45.03702" lon="4.04558">
        <ele>814</ele>
        <time>2023-02-07T16:08:16Z</time>
      </trkpt>
      <trkpt lat="45.03702" lon="4.04558">
        <ele>812</ele>
        <time>2023-02-07T16:08:16Z</time>
      </trkpt>
      <trkpt lat="45.03705" lon="4.04525">
        <ele>812</ele>
        <time>2023-02-07T16:08:16Z</time>
      </trkpt>
      <trkpt lat="45.03718" lon="4.04421">
        <ele>810</ele>
        <time>2023-02-07T16:08:16Z</time>
      </trkpt>
      <trkpt lat="45.03717" lon="4.04374">
        <ele>808</ele>
        <time>2023-02-07T16:08:16Z</time>
      </trkpt>
      <trkpt lat="45.0371" lon="4.0431">
        <ele>806</ele>
        <time>2023-02-07T16:08:16Z</time>
      </trkpt>
      <trkpt lat="45.03715" lon="4.04143">
        <ele>803</ele>
      </trkpt>
      <trkpt lat="45.0372" lon="4.03975">
        <ele>799</ele>
        <time>2023-02-07T16:08:16Z</time>
      </trkpt>
      <trkpt lat="45.03761" lon="4.03871">
        <ele>792</ele>
        <time>2023-02-07T16:08:16Z</time>
      </trkpt>
      <trkpt lat="45.03774" lon="4.03811">
        <ele>787</ele>
        <time>2023-02-07T16:08:16Z</time>
      </trkpt>
      <trkpt lat="45.0377" lon="4.03779">
        <ele>783</ele>
        <time>2023-02-07T16:08:16Z</time>
      </trkpt>
      <trkpt lat="45.03773" lon="4.03768">
        <ele>781</ele>
        <time>2023-02-07T16:08:16Z</time>
      </trkpt>
      <trkpt lat="45.03793" lon="4.03752">
        <ele>779</ele>
        <time>2023-02-07T16:08:16Z</time>
      </trkpt>
      <trkpt lat="45.03797" lon="4.03742">
        <ele>777</ele>
        <time>2023-02-07T16:08:16Z</time>
      </trkpt>
      <trkpt lat="45.03793" lon="4.03715">
        <ele>776</ele>
        <time>2023-02-07T16:08:16Z</time>
      </trkpt>
      <trkpt lat="45.03802" lon="4.03689">
        <ele>769</ele>
        <time>2023-02-07T16:08:16Z</time>
      </trkpt>
      <trkpt lat="45.03775" lon="4.03589">
        <ele>769</ele>
        <time>2023-02-07T16:08:16Z</time>
      </trkpt>
      <trkpt lat="45.03775" lon="4.03589">
        <ele>769</ele>
        <time>2023-02-07T16:08:16Z</time>
      </trkpt>
      <trkpt lat="45.03767" lon="4.03552">
        <ele>769</ele>
        <time>2023-02-07T16:08:16Z</time>
      </trkpt>
      <trkpt lat="45.0377" lon="4.03244">
        <ele>770</ele>
        <time>2023-02-07T16:08:16Z</time>
      </trkpt>
      <trkpt lat="45.03785" lon="4.03168">
        <ele>771</ele>
        <time>2023-02-07T16:08:16Z</time>
      </trkpt>
      <trkpt lat="45.03802" lon="4.02866">
        <ele>777</ele>
        <time>2023-02-07T16:08:16Z</time>
      </trkpt>
      <trkpt lat="45.03798" lon="4.02848">
        <ele>781</ele>
        <time>2023-02-07T16:08:16Z</time>
      </trkpt>
      <trkpt lat="45.03777" lon="4.0282">
        <ele>783</ele>
        <time>2023-02-07T16:08:16Z</time>
      </trkpt>
      <trkpt lat="45.03776" lon="4.02808">
        <ele>784</ele>
        <time>2023-02-07T16:08:16Z</time>
      </trkpt>
      <trkpt lat="45.03782" lon="4.02784">
        <ele>785</ele>
        <time>2023-02-07T16:08:16Z</time>
      </trkpt>
      <trkpt lat="45.03797" lon="4.02758">
        <ele>785</ele>
        <time>2023-02-07T16:08:16Z</time>
      </trkpt>
      <trkpt lat="45.03807" lon="4.02752">
        <ele>786</ele>
        <time>2023-02-07T16:08:16Z</time>
      </trkpt>
      <trkpt lat="45.03807" lon="4.02752">
        <ele>788</ele>
        <time>2023-02-07T16:08:16Z</time>
      </trkpt>
      <trkpt lat="45.03812" lon="4.0272">
        <ele>788</ele>
        <time>2023-02-07T16:08:16Z</time>
      </trkpt>
      <trkpt lat="45.03825" lon="4.02715">
        <ele>787</ele>
        <time>2023-02-07T16:08:16Z</time>
      </trkpt>
      <trkpt lat="45.03833" lon="4.02706">
        <ele>787</ele>
        <time>2023-02-07T16:08:16Z</time>
      </trkpt>
      <trkpt lat="45.03839" lon="4.02691">
        <ele>787</ele>
        <time>2023-02-07T16:08:16Z</time>
      </trkpt>
      <trkpt lat="45.03846" lon="4.02657">
        <ele>786</ele>
        <time>2023-02-07T16:08:16Z</time>
      </trkpt>
      <trkpt lat="45.0385" lon="4.02649">
        <ele>785</ele>
        <time>2023-02-07T16:08:16Z</time>
      </trkpt>
      <trkpt lat="45.03859" lon="4.02643">
        <ele>784</ele>
        <time>2023-02-07T16:08:16Z</time>
      </trkpt>
      <trkpt lat="45.03872" lon="4.02644">
        <ele>784</ele>
        <time>2023-02-07T16:08:16Z</time>
      </trkpt>
      <trkpt lat="45.03883" lon="4.02649">
        <ele>783</ele>
        <time>2023-02-07T16:08:16Z</time>
      </trkpt>
      <trkpt lat="45.03894" lon="4.02648">
        <ele>782</ele>
        <time>2023-02-07T16:08:16Z</time>
      </trkpt>
      <trkpt lat="45.0392" lon="4.02629">
        <ele>782</ele>
        <time>2023-02-07T16:08:16Z</time>
      </trkpt>
      <trkpt lat="45.03983" lon="4.02605">
        <ele>780</ele>
        <time>2023-02-07T16:08:16Z</time>
      </trkpt>
      <trkpt lat="45.03989" lon="4.02591">
        <ele>778</ele>
        <time>2023-02-07T16:08:16Z</time>
      </trkpt>
      <trkpt lat="45.03992" lon="4.02569">
        <ele>775</ele>
        <time>2023-02-07T16:08:16Z</time>
      </trkpt>
      <trkpt lat="45.03998" lon="4.02555">
        <ele>773</ele>
        <time>2023-02-07T16:08:16Z</time>
      </trkpt>
      <trkpt lat="45.04001" lon="4.02536">
        <ele>772</ele>
        <time>2023-02-07T16:08:16Z</time>
      </trkpt>
      <trkpt lat="45.03998" lon="4.025">
        <ele>770</ele>
        <time>2023-02-07T16:08:16Z</time>
      </trkpt>
      <trkpt lat="45.0399" lon="4.02479">
        <ele>768</ele>
        <time>2023-02-07T16:08:16Z</time>
      </trkpt>
      <trkpt lat="45.03979" lon="4.02467">
        <ele>767</ele>
        <time>2023-02-07T16:08:16Z</time>
      </trkpt>
      <trkpt lat="45.03971" lon="4.02468">
        <ele>766</ele>
        <time>2023-02-07T16:08:16Z</time>
      </trkpt>
      <trkpt lat="45.03934" lon="4.02484">
        <ele>764</ele>
        <time>2023-02-07T16:08:16Z</time>
      </trkpt>
      <trkpt lat="45.03889" lon="4.0248">
        <ele>762</ele>
        <time>2023-02-07T16:08:16Z</time>
      </trkpt>
      <trkpt lat="45.03881" lon="4.02477">
        <ele>761</ele>
        <time>2023-02-07T16:08:16Z</time>
      </trkpt>
      <trkpt lat="45.03872" lon="4.02467">
        <ele>760</ele>
        <time>2023-02-07T16:08:16Z</time>
      </trkpt>
      <trkpt lat="45.0386" lon="4.02423">
        <ele>758</ele>
        <time>2023-02-07T16:08:16Z</time>
      </trkpt>
      <trkpt lat="45.0386" lon="4.02423">
        <ele>752</ele>
        <time>2023-02-07T16:08:16Z</time>
      </trkpt>
      <trkpt lat="45.0386" lon="4.02408">
        <ele>752</ele>
        <time>2023-02-07T16:08:16Z</time>
      </trkpt>
      <trkpt lat="45.03878" lon="4.0238">
        <ele>753</ele>
        <time>2023-02-07T16:08:16Z</time>
      </trkpt>
      <trkpt lat="45.03883" lon="4.02367">
        <ele>754</ele>
        <time>2023-02-07T16:08:16Z</time>
      </trkpt>
      <trkpt lat="45.03951" lon="4.01907">
        <ele>768</ele>
        <time>2023-02-07T16:08:16Z</time>
      </trkpt>
      <trkpt lat="45.03964" lon="4.01867">
        <ele>776</ele>
        <time>2023-02-07T16:08:16Z</time>
      </trkpt>
      <trkpt lat="45.04" lon="4.0181">
        <ele>782</ele>
        <time>2023-02-07T16:08:16Z</time>
      </trkpt>
      <trkpt lat="45.04038" lon="4.01758">
        <ele>788</ele>
        <time>2023-02-07T16:08:16Z</time>
      </trkpt>
      <trkpt lat="45.04043" lon="4.01745">
        <ele>791</ele>
        <time>2023-02-07T16:08:16Z</time>
      </trkpt>
      <trkpt lat="45.04047" lon="4.01702">
        <ele>795</ele>
        <time>2023-02-07T16:08:16Z</time>
      </trkpt>
      <trkpt lat="45.04045" lon="4.0166">
        <ele>797</ele>
        <time>2023-02-07T16:08:16Z</time>
      </trkpt>
      <trkpt lat="45.04039" lon="4.01631">
        <ele>807</ele>
        <time>2023-02-07T16:08:16Z</time>
      </trkpt>
      <trkpt lat="45.04026" lon="4.016">
        <ele>807</ele>
        <time>2023-02-07T16:08:16Z</time>
      </trkpt>
      <trkpt lat="45.03997" lon="4.0155">
        <ele>807</ele>
        <time>2023-02-07T16:08:16Z</time>
      </trkpt>
      <trkpt lat="45.03985" lon="4.01515">
        <ele>808</ele>
        <time>2023-02-07T16:08:16Z</time>
      </trkpt>
      <trkpt lat="45.03962" lon="4.01395">
        <ele>809</ele>
        <time>2023-02-07T16:08:16Z</time>
      </trkpt>
      <trkpt lat="45.0396" lon="4.01179">
        <ele>807</ele>
        <time>2023-02-07T16:08:16Z</time>
      </trkpt>
      <trkpt lat="45.0396" lon="4.01179">
        <ele>804</ele>
        <time>2023-02-07T16:08:16Z</time>
      </trkpt>
      <trkpt lat="45.03943" lon="4.01035">
        <ele>800</ele>
      </trkpt>
      <trkpt lat="45.03925" lon="4.00891">
        <ele>795</ele>
        <time>2023-02-07T16:08:16Z</time>
      </trkpt>
      <trkpt lat="45.03956" lon="4.00769">
        <ele>790</ele>
        <time>2023-02-07T16:08:16Z</time>
      </trkpt>
      <trkpt lat="45.03957" lon="4.00758">
        <ele>788</ele>
        <time>2023-02-07T16:08:16Z</time>
      </trkpt>
      <trkpt lat="45.03923" lon="4.00641">
        <ele>788</ele>
      </trkpt>
      <trkpt lat="45.03888" lon="4.00524">
        <ele>786</ele>
        <time>2023-02-07T16:08:16Z</time>
      </trkpt>
      <trkpt lat="45.03883" lon="4.00487">
        <ele>785</ele>
        <time>2023-02-07T16:08:16Z</time>
      </trkpt>
      <trkpt lat="45.03851" lon="4.00375">
        <ele>782</ele>
      </trkpt>
      <trkpt lat="45.03819" lon="4.00263">
        <ele>777</ele>
        <time>2023-02-07T16:08:16Z</time>
      </trkpt>
      <trkpt lat="45.03816" lon="4.00227">
        <ele>774</ele>
        <time>2023-02-07T16:08:16Z</time>
      </trkpt>
      <trkpt lat="45.03818" lon="4.0021">
        <ele>772</ele>
        <time>2023-02-07T16:08:16Z</time>
      </trkpt>
      <trkpt lat="45.03824" lon="4.0019">
        <ele>770</ele>
        <time>2023-02-07T16:08:16Z</time>
      </trkpt>
      <trkpt lat="45.03871" lon="4.00092">
        <ele>769</ele>
        <time>2023-02-07T16:08:16Z</time>
      </trkpt>
      <trkpt lat="45.03914" lon="3.99895">
        <ele>767</ele>
        <time>2023-02-07T16:08:16Z</time>
      </trkpt>
      <trkpt lat="45.03916" lon="3.99866">
        <ele>766</ele>
        <time>2023-02-07T16:08:16Z</time>
      </trkpt>
      <trkpt lat="45.03944" lon="3.99792">
        <ele>764</ele>
        <time>2023-02-07T16:08:16Z</time>
      </trkpt>
      <trkpt lat="45.03966" lon="3.99739">
        <ele>763</ele>
        <time>2023-02-07T16:08:16Z</time>
      </trkpt>
      <trkpt lat="45.03966" lon="3.99739">
        <ele>759</ele>
        <time>2023-02-07T16:08:16Z</time>
      </trkpt>
      <trkpt lat="45.04006" lon="3.99623">
        <ele>757</ele>
      </trkpt>
      <trkpt lat="45.04046" lon="3.99506">
        <ele>753</ele>
        <time>2023-02-07T16:08:16Z</time>
      </trkpt>
      <trkpt lat="45.04072" lon="3.99392">
        <ele>749</ele>
        <time>2023-02-07T16:08:16Z</time>
      </trkpt>
      <trkpt lat="45.04069" lon="3.99373">
        <ele>746</ele>
        <time>2023-02-07T16:08:16Z</time>
      </trkpt>
      <trkpt lat="45.0408" lon="3.99351">
        <ele>744</ele>
        <time>2023-02-07T16:08:16Z</time>
      </trkpt>
      <trkpt lat="45.04102" lon="3.99328">
        <ele>742</ele>
        <time>2023-02-07T16:08:16Z</time>
      </trkpt>
      <trkpt lat="45.04132" lon="3.99295">
        <ele>740</ele>
        <time>2023-02-07T16:08:16Z</time>
      </trkpt>
      <trkpt lat="45.04124" lon="3.99288">
        <ele>738</ele>
        <time>2023-02-07T16:08:16Z</time>
      </trkpt>
      <trkpt lat="45.04124" lon="3.99288">
        <ele>731</ele>
        <time>2023-02-07T16:08:16Z</time>
      </trkpt>
      <trkpt lat="45.04115" lon="3.99291">
        <ele>731</ele>
        <time>2023-02-07T16:08:16Z</time>
      </trkpt>
      <trkpt lat="45.04106" lon="3.99288">
        <ele>731</ele>
        <time>2023-02-07T16:08:16Z</time>
      </trkpt>
      <trkpt lat="45.04099" lon="3.9928">
        <ele>730</ele>
        <time>2023-02-07T16:08:16Z</time>
      </trkpt>
      <trkpt lat="45.04089" lon="3.99275">
        <ele>730</ele>
        <time>2023-02-07T16:08:16Z</time>
      </trkpt>
      <trkpt lat="45.04009" lon="3.99283">
        <ele>729</ele>
        <time>2023-02-07T16:08:16Z</time>
      </trkpt>
      <trkpt lat="45.03948" lon="3.99293">
        <ele>727</ele>
        <time>2023-02-07T16:08:16Z</time>
      </trkpt>
      <trkpt lat="45.03928" lon="3.9929">
        <ele>725</ele>
        <time>2023-02-07T16:08:16Z</time>
      </trkpt>
      <trkpt lat="45.03919" lon="3.9928">
        <ele>724</ele>
        <time>2023-02-07T16:08:16Z</time>
      </trkpt>
      <trkpt lat="45.0392" lon="3.99267">
        <ele>723</ele>
        <time>2023-02-07T16:08:16Z</time>
      </trkpt>
      <trkpt lat="45.0392" lon="3.99267">
        <ele>718</ele>
        <time>2023-02-07T16:08:16Z</time>
      </trkpt>
      <trkpt lat="45.03922" lon="3.99256">
        <ele>717</ele>
        <time>2023-02-07T16:08:16Z</time>
      </trkpt>
      <trkpt lat="45.03918" lon="3.9924">
        <ele>717</ele>
        <time>2023-02-07T16:08:16Z</time>
      </trkpt>
      <trkpt lat="45.03894" lon="3.99223">
        <ele>717</ele>
        <time>2023-02-07T16:08:16Z</time>
      </trkpt>
      <trkpt lat="45.0382" lon="3.99068">
        <ele>712</ele>
        <time>2023-02-07T16:08:16Z</time>
      </trkpt>
      <trkpt lat="45.03806" lon="3.99054">
        <ele>709</ele>
        <time>2023-02-07T16:08:16Z</time>
      </trkpt>
      <trkpt lat="45.03796" lon="3.99047">
        <ele>706</ele>
        <time>2023-02-07T16:08:16Z</time>
      </trkpt>
      <trkpt lat="45.03787" lon="3.99036">
        <ele>705</ele>
        <time>2023-02-07T16:08:16Z</time>
      </trkpt>
      <trkpt lat="45.03773" lon="3.98933">
        <ele>702</ele>
        <time>2023-02-07T16:08:16Z</time>
      </trkpt>
      <trkpt lat="45.03747" lon="3.98872">
        <ele>699</ele>
        <time>2023-02-07T16:08:16Z</time>
      </trkpt>
      <trkpt lat="45.03737" lon="3.98784">
        <ele>697</ele>
        <time>2023-02-07T16:08:16Z</time>
      </trkpt>
      <trkpt lat="45.03729" lon="3.98762">
        <ele>694</ele>
        <time>2023-02-07T16:08:16Z</time>
      </trkpt>
      <trkpt lat="45.0372" lon="3.98752">
        <ele>694</ele>
        <time>2023-02-07T16:08:16Z</time>
      </trkpt>
      <trkpt lat="45.03712" lon="3.98747">
        <ele>695</ele>
        <time>2023-02-07T16:08:16Z</time>
      </trkpt>
      <trkpt lat="45.03674" lon="3.98747">
        <ele>697</ele>
        <time>2023-02-07T16:08:16Z</time>
      </trkpt>
      <trkpt lat="45.03663" lon="3.98741">
        <ele>698</ele>
        <time>2023-02-07T16:08:16Z</time>
      </trkpt>
      <trkpt lat="45.03651" lon="3.98725">
        <ele>699</ele>
        <time>2023-02-07T16:08:16Z</time>
      </trkpt>
      <trkpt lat="45.03664" lon="3.98724">
        <ele>700</ele>
        <time>2023-02-07T16:08:16Z</time>
      </trkpt>
      <trkpt lat="45.03664" lon="3.98724">
        <ele>705</ele>
        <time>2023-02-07T16:08:16Z</time>
      </trkpt>
      <trkpt lat="45.03683" lon="3.98716">
        <ele>705</ele>
        <time>2023-02-07T16:08:16Z</time>
      </trkpt>
      <trkpt lat="45.03745" lon="3.98636">
        <ele>706</ele>
        <time>2023-02-07T16:08:16Z</time>
      </trkpt>
      <trkpt lat="45.03798" lon="3.986">
        <ele>706</ele>
      </trkpt>
      <trkpt lat="45.0385" lon="3.98563">
        <ele>706</ele>
        <time>2023-02-07T16:08:16Z</time>
      </trkpt>
      <trkpt lat="45.03926" lon="3.98525">
        <ele>703</ele>
        <time>2023-02-07T16:08:16Z</time>
      </trkpt>
      <trkpt lat="45.03952" lon="3.98497">
        <ele>701</ele>
        <time>2023-02-07T16:08:16Z</time>
      </trkpt>
      <trkpt lat="45.03987" lon="3.98421">
        <ele>698</ele>
        <time>2023-02-07T16:08:16Z</time>
      </trkpt>
      <trkpt lat="45.04009" lon="3.98404">
        <ele>695</ele>
        <time>2023-02-07T16:08:16Z</time>
      </trkpt>
      <trkpt lat="45.04101" lon="3.98376">
        <ele>691</ele>
        <time>2023-02-07T16:08:16Z</time>
      </trkpt>
      <trkpt lat="45.04101" lon="3.98376">
        <ele>680</ele>
        <time>2023-02-07T16:08:16Z</time>
      </trkpt>
      <trkpt lat="45.04128" lon="3.98367">
        <ele>680</ele>
        <time>2023-02-07T16:08:16Z</time>
      </trkpt>
      <trkpt lat="45.04141" lon="3.98351">
        <ele>679</ele>
        <time>2023-02-07T16:08:16Z</time>
      </trkpt>
      <trkpt lat="45.0419" lon="3.98226">
        <ele>677</ele>
      </trkpt>
      <trkpt lat="45.04238" lon="3.981">
        <ele>675</ele>
        <time>2023-02-07T16:08:16Z</time>
      </trkpt>
      <trkpt lat="45.04257" lon="3.98012">
        <ele>674</ele>
      </trkpt>
      <trkpt lat="45.04276" lon="3.97924">
        <ele>673</ele>
        <time>2023-02-07T16:08:16Z</time>
      </trkpt>
      <trkpt lat="45.04285" lon="3.97832">
        <ele>672</ele>
      </trkpt>
      <trkpt lat="45.04293" lon="3.9774">
        <ele>671</ele>
      </trkpt>
      <trkpt lat="45.04302" lon="3.97647">
        <ele>670</ele>
      </trkpt>
      <trkpt lat="45.0431" lon="3.97555">
        <ele>669</ele>
        <time>2023-02-07T16:08:16Z</time>
      </trkpt>
      <trkpt lat="45.04307" lon="3.97528">
        <ele>669</ele>
        <time>2023-02-07T16:08:16Z</time>
      </trkpt>
      <trkpt lat="45.04296" lon="3.97488">
        <ele>668</ele>
        <time>2023-02-07T16:08:16Z</time>
      </trkpt>
      <trkpt lat="45.04275" lon="3.97452">
        <ele>668</ele>
        <time>2023-02-07T16:08:16Z</time>
      </trkpt>
      <trkpt lat="45.04256" lon="3.97409">
        <ele>667</ele>
        <time>2023-02-07T16:08:16Z</time>
      </trkpt>
      <trkpt lat="45.04256" lon="3.97409">
        <ele>666</ele>
        <time>2023-02-07T16:08:16Z</time>
      </trkpt>
      <trkpt lat="45.04251" lon="3.97401">
        <ele>666</ele>
        <time>2023-02-07T16:08:16Z</time>
      </trkpt>
      <trkpt lat="45.04169" lon="3.97388">
        <ele>666</ele>
      </trkpt>
      <trkpt lat="45.04087" lon="3.97375">
        <ele>666</ele>
        <time>2023-02-07T16:08:16Z</time>
      </trkpt>
      <trkpt lat="45.03977" lon="3.97389">
        <ele>666</ele>
        <time>2023-02-07T16:08:16Z</time>
      </trkpt>
      <trkpt lat="45.03969" lon="3.97418">
        <ele>666</ele>
        <time>2023-02-07T16:08:16Z</time>
      </trkpt>
      <trkpt lat="45.03959" lon="3.97447">
        <ele>666</ele>
        <time>2023-02-07T16:08:16Z</time>
      </trkpt>
      <trkpt lat="45.03914" lon="3.97453">
        <ele>666</ele>
        <time>2023-02-07T16:08:16Z</time>
      </trkpt>
      <trkpt lat="45.03899" lon="3.97365">
        <ele>666</ele>
        <time>2023-02-07T16:08:16Z</time>
      </trkpt>
      <trkpt lat="45.03887" lon="3.97264">
        <ele>667</ele>
        <time>2023-02-07T16:08:16Z</time>
      </trkpt>
      <trkpt lat="45.03826" lon="3.97259">
        <ele>667</ele>
        <time>2023-02-07T16:08:16Z</time>
      </trkpt>
      <trkpt lat="45.03826" lon="3.97259">
        <ele>667</ele>
        <time>2023-02-07T16:08:16Z</time>
      </trkpt>
      <trkpt lat="45.03817" lon="3.97256">
        <ele>667</ele>
        <time>2023-02-07T16:08:16Z</time>
      </trkpt>
      <trkpt lat="45.03808" lon="3.97249">
        <ele>667</ele>
        <time>2023-02-07T16:08:16Z</time>
      </trkpt>
      <trkpt lat="45.0381" lon="3.97233">
        <ele>667</ele>
        <time>2023-02-07T16:08:16Z</time>
      </trkpt>
      <trkpt lat="45.0381" lon="3.97222">
        <ele>668</ele>
        <time>2023-02-07T16:08:16Z</time>
      </trkpt>
      <trkpt lat="45.03836" lon="3.97106">
        <ele>667</ele>
      </trkpt>
      <trkpt lat="45.03861" lon="3.96989">
        <ele>668</ele>
        <time>2023-02-07T16:08:16Z</time>
      </trkpt>
      <trkpt lat="45.03862" lon="3.96973">
        <ele>669</ele>
        <time>2023-02-07T16:08:16Z</time>
      </trkpt>
      <trkpt lat="45.03909" lon="3.96834">
        <ele>670</ele>
        <time>2023-02-07T16:08:16Z</time>
      </trkpt>
      <trkpt lat="45.03948" lon="3.96778">
        <ele>670</ele>
      </trkpt>
      <trkpt lat="45.03988" lon="3.96723">
        <ele>670</ele>
      </trkpt>
      <trkpt lat="45.04066" lon="3.96611">
        <ele>671</ele>
        <time>2023-02-07T16:08:16Z</time>
      </trkpt>
      <trkpt lat="45.04132" lon="3.96569">
        <ele>671</ele>
      </trkpt>
      <trkpt lat="45.04197" lon="3.96526">
        <ele>672</ele>
        <time>2023-02-07T16:08:16Z</time>
      </trkpt>
      <trkpt lat="45.04215" lon="3.96522">
        <ele>672</ele>
        <time>2023-02-07T16:08:16Z</time>
      </trkpt>
      <trkpt lat="45.0424" lon="3.96507">
        <ele>672</ele>
        <time>2023-02-07T16:08:16Z</time>
      </trkpt>
      <trkpt lat="45.04288" lon="3.96435">
        <ele>673</ele>
      </trkpt>
      <trkpt lat="45.04336" lon="3.96362">
        <ele>673</ele>
        <time>2023-02-07T16:08:16Z</time>
      </trkpt>
      <trkpt lat="45.04336" lon="3.96362">
        <ele>673</ele>
        <time>2023-02-07T16:08:16Z</time>
      </trkpt>
      <trkpt lat="45.04631" lon="3.95802">
        <ele>678</ele>
        <time>2023-02-07T16:08:16Z</time>
      </trkpt>
      <trkpt lat="45.0463" lon="3.95788">
        <ele>677</ele>
        <time>2023-02-07T16:08:16Z</time>
      </trkpt>
      <trkpt lat="45.04652" lon="3.95666">
        <ele>678</ele>
        <time>2023-02-07T16:08:16Z</time>
      </trkpt>
      <trkpt lat="45.04682" lon="3.95591">
        <ele>680</ele>
        <time>2023-02-07T16:08:16Z</time>
      </trkpt>
      <trkpt lat="45.04695" lon="3.95501">
        <ele>683</ele>
      </trkpt>
      <trkpt lat="45.04708" lon="3.9541">
        <ele>686</ele>
        <time>2023-02-07T16:08:16Z</time>
      </trkpt>
      <trkpt lat="45.04721" lon="3.95369">
        <ele>688</ele>
        <time>2023-02-07T16:08:16Z</time>
      </trkpt>
      <trkpt lat="45.0474" lon="3.95212">
        <ele>694</ele>
        <time>2023-02-07T16:08:16Z</time>
      </trkpt>
      <trkpt lat="45.04746" lon="3.95194">
        <ele>698</ele>
        <time>2023-02-07T16:08:16Z</time>
      </trkpt>
      <trkpt lat="45.04799" lon="3.95116">
        <ele>702</ele>
        <time>2023-02-07T16:08:16Z</time>
      </trkpt>
      <trkpt lat="45.04809" lon="3.95074">
        <ele>706</ele>
        <time>2023-02-07T16:08:16Z</time>
      </trkpt>
      <trkpt lat="45.04809" lon="3.95074">
        <ele>718</ele>
        <time>2023-02-07T16:08:16Z</time>
      </trkpt>
      <trkpt lat="45.04806" lon="3.95032">
        <ele>718</ele>
        <time>2023-02-07T16:08:16Z</time>
      </trkpt>
      <trkpt lat="45.04803" lon="3.95018">
        <ele>719</ele>
        <time>2023-02-07T16:08:16Z</time>
      </trkpt>
      <trkpt lat="45.04821" lon="3.95003">
        <ele>719</ele>
        <time>2023-02-07T16:08:16Z</time>
      </trkpt>
      <trkpt lat="45.04839" lon="3.94907">
        <ele>719</ele>
      </trkpt>
      <trkpt lat="45.04857" lon="3.9481">
        <ele>717</ele>
        <time>2023-02-07T16:08:16Z</time>
      </trkpt>
      <trkpt lat="45.04888" lon="3.94738">
        <ele>715</ele>
      </trkpt>
      <trkpt lat="45.04918" lon="3.94665">
        <ele>712</ele>
        <time>2023-02-07T16:08:16Z</time>
      </trkpt>
      <trkpt lat="45.04933" lon="3.94644">
        <ele>709</ele>
        <time>2023-02-07T16:08:16Z</time>
      </trkpt>
      <trkpt lat="45.04977" lon="3.9461">
        <ele>706</ele>
        <time>2023-02-07T16:08:16Z</time>
      </trkpt>
      <trkpt lat="45.05055" lon="3.94488">
        <ele>697</ele>
      </trkpt>
      <trkpt lat="45.05132" lon="3.94366">
        <ele>687</ele>
        <time>2023-02-07T16:08:16Z</time>
      </trkpt>
      <trkpt lat="45.05138" lon="3.94346">
        <ele>681</ele>
        <time>2023-02-07T16:08:16Z</time>
      </trkpt>
      <trkpt lat="45.05141" lon="3.94325">
        <ele>677</ele>
        <time>2023-02-07T16:08:16Z</time>
      </trkpt>
      <trkpt lat="45.05136" lon="3.94302">
        <ele>674</ele>
        <time>2023-02-07T16:08:16Z</time>
      </trkpt>
      <trkpt lat="45.05136" lon="3.94302">
        <ele>663</ele>
        <time>2023-02-07T16:08:16Z</time>
      </trkpt>
      <trkpt lat="45.05127" lon="3.94263">
        <ele>663</ele>
        <time>2023-02-07T16:08:16Z</time>
      </trkpt>
      <trkpt lat="45.05117" lon="3.94266">
        <ele>662</ele>
        <time>2023-02-07T16:08:16Z</time>
      </trkpt>
      <trkpt lat="45.05106" lon="3.94264">
        <ele>661</ele>
        <time>2023-02-07T16:08:16Z</time>
      </trkpt>
      <trkpt lat="45.05042" lon="3.94221">
        <ele>659</ele>
        <time>2023-02-07T16:08:16Z</time>
      </trkpt>
      <trkpt lat="45.05031" lon="3.94206">
        <ele>658</ele>
        <time>2023-02-07T16:08:16Z</time>
      </trkpt>
      <trkpt lat="45.05007" lon="3.94129">
        <ele>656</ele>
        <time>2023-02-07T16:08:16Z</time>
      </trkpt>
      <trkpt lat="45.05009" lon="3.94117">
        <ele>655</ele>
        <time>2023-02-07T16:08:16Z</time>
      </trkpt>
      <trkpt lat="45.05009" lon="3.941">
        <ele>654</ele>
        <time>2023-02-07T16:08:16Z</time>
      </trkpt>
      <trkpt lat="45.04977" lon="3.9399">
        <ele>651</ele>
        <time>2023-02-07T16:08:16Z</time>
      </trkpt>
      <trkpt lat="45.0492" lon="3.93858">
        <ele>647</ele>
      </trkpt>
      <trkpt lat="45.04862" lon="3.93726">
        <ele>643</ele>
        <time>2023-02-07T16:08:16Z</time>
      </trkpt>
      <trkpt lat="45.04839" lon="3.93695">
        <ele>640</ele>
        <time>2023-02-07T16:08:16Z</time>
      </trkpt>
      <trkpt lat="45.04812" lon="3.93628">
        <ele>637</ele>
        <time>2023-02-07T16:08:16Z</time>
      </trkpt>
      <trkpt lat="45.048" lon="3.93578">
        <ele>634</ele>
        <time>2023-02-07T16:08:16Z</time>
      </trkpt>
      <trkpt lat="45.04751" lon="3.93473">
        <ele>630</ele>
      </trkpt>
      <trkpt lat="45.04702" lon="3.93369">
        <ele>626</ele>
        <time>2023-02-07T16:08:16Z</time>
      </trkpt>
      <trkpt lat="45.04696" lon="3.93364">
        <ele>623</ele>
        <time>2023-02-07T16:08:16Z</time>
      </trkpt>
      <trkpt lat="45.04671" lon="3.93288">
        <ele>620</ele>
        <time>2023-02-07T16:08:16Z</time>
      </trkpt>
      <trkpt lat="45.04668" lon="3.93251">
        <ele>618</ele>
        <time>2023-02-07T16:08:16Z</time>
      </trkpt>
      <trkpt lat="45.04672" lon="3.93165">
        <ele>616</ele>
        <time>2023-02-07T16:08:16Z</time>
      </trkpt>
      <trkpt lat="45.04672" lon="3.93165">
        <ele>609</ele>
        <time>2023-02-07T16:08:16Z</time>
      </trkpt>
      <trkpt lat="45.04674" lon="3.93032">
        <ele>608</ele>
        <time>2023-02-07T16:08:16Z</time>
      </trkpt>
      <trkpt lat="45.04718" lon="3.92971">
        <ele>607</ele>
        <time>2023-02-07T16:08:16Z</time>
      </trkpt>
      <trkpt lat="45.04775" lon="3.92907">
        <ele>608</ele>
        <time>2023-02-07T16:08:16Z</time>
      </trkpt>
      <trkpt lat="45.04775" lon="3.92907">
        <ele>608</ele>
        <time>2023-02-07T16:08:16Z</time>
      </trkpt>
      <trkpt lat="45.0478" lon="3.92899">
        <ele>608</ele>
        <time>2023-02-07T16:08:16Z</time>
      </trkpt>
      <trkpt lat="45.04795" lon="3.92782">
        <ele>608</ele>
        <time>2023-02-07T16:08:16Z</time>
      </trkpt>
      <trkpt lat="45.04794" lon="3.9277">
        <ele>608</ele>
        <time>2023-02-07T16:08:16Z</time>
      </trkpt>
      <trkpt lat="45.04794" lon="3.9277">
        <ele>607</ele>
        <time>2023-02-07T16:08:16Z</time>
      </trkpt>
      <trkpt lat="45.04788" lon="3.92761">
        <ele>603</ele>
        <time>2023-02-07T16:08:16Z</time>
      </trkpt>
      <trkpt lat="45.04782" lon="3.92744">
        <ele>602</ele>
        <time>2023-02-07T16:08:16Z</time>
      </trkpt>
      <trkpt lat="45.04699" lon="3.92659">
        <ele>601</ele>
        <time>2023-02-07T16:08:16Z</time>
      </trkpt>
      <trkpt lat="45.047" lon="3.9265">
        <ele>601</ele>
        <time>2023-02-07T16:08:16Z</time>
      </trkpt>
      <trkpt lat="45.047" lon="3.9265">
        <ele>600</ele>
        <time>2023-02-07T16:08:16Z</time>
      </trkpt>
      <trkpt lat="45.04701" lon="3.92633">
        <ele>601</ele>
        <time>2023-02-07T16:08:16Z</time>
      </trkpt>
      <trkpt lat="45.04707" lon="3.92619">
        <ele>601</ele>
        <time>2023-02-07T16:08:16Z</time>
      </trkpt>
      <trkpt lat="45.04715" lon="3.92625">
        <ele>602</ele>
        <time>2023-02-07T16:08:16Z</time>
      </trkpt>
      <trkpt lat="45.0472" lon="3.92638">
        <ele>602</ele>
        <time>2023-02-07T16:08:16Z</time>
      </trkpt>
      <trkpt lat="45.0479" lon="3.92492">
        <ele>602</ele>
      </trkpt>
      <trkpt lat="45.0486" lon="3.92345">
        <ele>602</ele>
        <time>2023-02-07T16:08:16Z</time>
      </trkpt>
      <trkpt lat="45.0486" lon="3.92345">
        <ele>602</ele>
        <time>2023-02-07T16:08:16Z</time>
      </trkpt>
      <trkpt lat="45.04912" lon="3.92224">
        <ele>602</ele>
      </trkpt>
      <trkpt lat="45.04963" lon="3.92102">
        <ele>602</ele>
        <time>2023-02-07T16:08:16Z</time>
      </trkpt>
      <trkpt lat="45.05" lon="3.9204">
        <ele>602</ele>
        <time>2023-02-07T16:08:16Z</time>
      </trkpt>
      <trkpt lat="45.05" lon="3.9204">
        <ele>601</ele>
        <time>2023-02-07T16:08:16Z</time>
      </trkpt>
      <trkpt lat="45.05061" lon="3.91941">
        <ele>601</ele>
        <time>2023-02-07T16:08:16Z</time>
      </trkpt>
      <trkpt lat="45.05065" lon="3.91916">
        <ele>601</ele>
        <time>2023-02-07T16:08:16Z</time>
      </trkpt>
      <trkpt lat="45.05081" lon="3.91911">
        <ele>601</ele>
        <time>2023-02-07T16:08:16Z</time>
      </trkpt>
      <trkpt lat="45.05206" lon="3.91731">
        <ele>600</ele>
        <time>2023-02-07T16:08:16Z</time>
      </trkpt>
      <trkpt lat="45.05206" lon="3.91731">
        <ele>600</ele>
        <time>2023-02-07T16:08:16Z</time>
      </trkpt>
      <trkpt lat="45.05209" lon="3.91722">
        <ele>600</ele>
        <time>2023-02-07T16:08:16Z</time>
      </trkpt>
      <trkpt lat="45.05281" lon="3.9161">
        <ele>599</ele>
        <time>2023-02-07T16:08:16Z</time>
      </trkpt>
      <trkpt lat="45.05288" lon="3.91585">
        <ele>600</ele>
        <time>2023-02-07T16:08:16Z</time>
      </trkpt>
      <trkpt lat="45.05293" lon="3.91579">
        <ele>600</ele>
        <time>2023-02-07T16:08:16Z</time>
      </trkpt>
      <trkpt lat="45.05302" lon="3.91579">
        <ele>600</ele>
        <time>2023-02-07T16:08:16Z</time>
      </trkpt>
      <trkpt lat="45.05445" lon="3.9144">
        <ele>600</ele>
        <time>2023-02-07T16:08:16Z</time>
      </trkpt>
      <trkpt lat="45.05445" lon="3.9144">
        <ele>599</ele>
        <time>2023-02-07T16:08:16Z</time>
      </trkpt>
      <trkpt lat="45.05582" lon="3.91325">
        <ele>599</ele>
        <time>2023-02-07T16:08:16Z</time>
      </trkpt>
      <trkpt lat="45.05598" lon="3.91329">
        <ele>598</ele>
        <time>2023-02-07T16:08:16Z</time>
      </trkpt>
      <trkpt lat="45.05613" lon="3.91324">
        <ele>597</ele>
        <time>2023-02-07T16:08:16Z</time>
      </trkpt>
      <trkpt lat="45.0562" lon="3.91319">
        <ele>598</ele>
        <time>2023-02-07T16:08:16Z</time>
      </trkpt>
      <trkpt lat="45.05627" lon="3.91307">
        <ele>597</ele>
        <time>2023-02-07T16:08:16Z</time>
      </trkpt>
      <trkpt lat="45.05627" lon="3.91307">
        <ele>597</ele>
        <time>2023-02-07T16:08:16Z</time>
      </trkpt>
      <trkpt lat="45.05626" lon="3.91245">
        <ele>597</ele>
        <time>2023-02-07T16:08:16Z</time>
      </trkpt>
      <trkpt lat="45.05606" lon="3.91124">
        <ele>598</ele>
        <time>2023-02-07T16:08:16Z</time>
      </trkpt>
      <trkpt lat="45.05603" lon="3.91114">
        <ele>598</ele>
        <time>2023-02-07T16:08:16Z</time>
      </trkpt>
      <trkpt lat="45.05574" lon="3.91054">
        <ele>598</ele>
        <time>2023-02-07T16:08:16Z</time>
      </trkpt>
      <trkpt lat="45.05536" lon="3.90907">
        <ele>600</ele>
        <time>2023-02-07T16:08:16Z</time>
      </trkpt>
      <trkpt lat="45.05536" lon="3.90907">
        <ele>605</ele>
        <time>2023-02-07T16:08:16Z</time>
      </trkpt>
      <trkpt lat="45.05537" lon="3.90893">
        <ele>605</ele>
        <time>2023-02-07T16:08:16Z</time>
      </trkpt>
      <trkpt lat="45.05539" lon="3.90883">
        <ele>605</ele>
        <time>2023-02-07T16:08:16Z</time>
      </trkpt>
      <trkpt lat="45.056" lon="3.90706">
        <ele>605</ele>
      </trkpt>
      <trkpt lat="45.0566" lon="3.90529">
        <ele>603</ele>
        <time>2023-02-07T16:08:16Z</time>
      </trkpt>
      <trkpt lat="45.05676" lon="3.90502">
        <ele>602</ele>
        <time>2023-02-07T16:08:16Z</time>
      </trkpt>
      <trkpt lat="45.05707" lon="3.90431">
        <ele>601</ele>
        <time>2023-02-07T16:08:16Z</time>
      </trkpt>
      <trkpt lat="45.05752" lon="3.90362">
        <ele>601</ele>
        <time>2023-02-07T16:08:16Z</time>
      </trkpt>
      <trkpt lat="45.05752" lon="3.90362">
        <ele>601</ele>
        <time>2023-02-07T16:08:16Z</time>
      </trkpt>
      <trkpt lat="45.05753" lon="3.90352">
        <ele>601</ele>
        <time>2023-02-07T16:08:16Z</time>
      </trkpt>
      <trkpt lat="45.05752" lon="3.90329">
        <ele>601</ele>
        <time>2023-02-07T16:08:16Z</time>
      </trkpt>
      <trkpt lat="45.05738" lon="3.90285">
        <ele>601</ele>
        <time>2023-02-07T16:08:16Z</time>
      </trkpt>
      <trkpt lat="45.05705" lon="3.90221">
        <ele>602</ele>
        <time>2023-02-07T16:08:16Z</time>
      </trkpt>
      <trkpt lat="45.05672" lon="3.90182">
        <ele>602</ele>
        <time>2023-02-07T16:08:16Z</time>
      </trkpt>
      <trkpt lat="45.05645" lon="3.90162">
        <ele>602</ele>
        <time>2023-02-07T16:08:16Z</time>
      </trkpt>
      <trkpt lat="45.05626" lon="3.90155">
        <ele>602</ele>
        <time>2023-02-07T16:08:16Z</time>
      </trkpt>
      <trkpt lat="45.05616" lon="3.90155">
        <ele>603</ele>
        <time>2023-02-07T16:08:16Z</time>
      </trkpt>
      <trkpt lat="45.05591" lon="3.90186">
        <ele>602</ele>
        <time>2023-02-07T16:08:16Z</time>
      </trkpt>
      <trkpt lat="45.05584" lon="3.90201">
        <ele>602</ele>
        <time>2023-02-07T16:08:16Z</time>
      </trkpt>
      <trkpt lat="45.05577" lon="3.90205">
        <ele>602</ele>
        <time>2023-02-07T16:08:16Z</time>
      </trkpt>
      <trkpt lat="45.05567" lon="3.90196">
        <ele>602</ele>
        <time>2023-02-07T16:08:16Z</time>
      </trkpt>
      <trkpt lat="45.05564" lon="3.90144">
        <ele>602</ele>
        <time>2023-02-07T16:08:16Z</time>
      </trkpt>
      <trkpt lat="45.05557" lon="3.90129">
        <ele>602</ele>
        <time>2023-02-07T16:08:16Z</time>
      </trkpt>
      <trkpt lat="45.05467" lon="3.90045">
        <ele>602</ele>
        <time>2023-02-07T16:08:16Z</time>
      </trkpt>
      <trkpt lat="45.05467" lon="3.90045">
        <ele>602</ele>
        <time>2023-02-07T16:08:16Z</time>
      </trkpt>
      <trkpt lat="45.05459" lon="3.90036">
        <ele>602</ele>
        <time>2023-02-07T16:08:16Z</time>
      </trkpt>
      <trkpt lat="45.05341" lon="3.90029">
        <ele>602</ele>
        <time>2023-02-07T16:08:16Z</time>
      </trkpt>
      <trkpt lat="45.05324" lon="3.90048">
        <ele>603</ele>
        <time>2023-02-07T16:08:16Z</time>
      </trkpt>
      <trkpt lat="45.05305" lon="3.90058">
        <ele>603</ele>
        <time>2023-02-07T16:08:16Z</time>
      </trkpt>
      <trkpt lat="45.05298" lon="3.90059">
        <ele>603</ele>
        <time>2023-02-07T16:08:16Z</time>
      </trkpt>
      <trkpt lat="45.05224" lon="3.90032">
        <ele>603</ele>
        <time>2023-02-07T16:08:16Z</time>
      </trkpt>
      <trkpt lat="45.05224" lon="3.90032">
        <ele>603</ele>
        <time>2023-02-07T16:08:16Z</time>
      </trkpt>
      <trkpt lat="45.05216" lon="3.90027">
        <ele>603</ele>
        <time>2023-02-07T16:08:16Z</time>
      </trkpt>
      <trkpt lat="45.05206" lon="3.90016">
        <ele>603</ele>
        <time>2023-02-07T16:08:16Z</time>
      </trkpt>
      <trkpt lat="45.052" lon="3.90003">
        <ele>603</ele>
        <time>2023-02-07T16:08:16Z</time>
      </trkpt>
      <trkpt lat="45.0521" lon="3.8997">
        <ele>603</ele>
        <time>2023-02-07T16:08:16Z</time>
      </trkpt>
      <trkpt lat="45.05131" lon="3.89886">
        <ele>603</ele>
        <time>2023-02-07T16:08:16Z</time>
      </trkpt>
      <trkpt lat="45.05098" lon="3.8983">
        <ele>603</ele>
        <time>2023-02-07T16:08:16Z</time>
      </trkpt>
      <trkpt lat="45.05079" lon="3.8977">
        <ele>604</ele>
        <time>2023-02-07T16:08:16Z</time>
      </trkpt>
      <trkpt lat="45.05079" lon="3.8977">
        <ele>605</ele>
        <time>2023-02-07T16:08:16Z</time>
      </trkpt>
      <trkpt lat="45.05059" lon="3.89726">
        <ele>605</ele>
        <time>2023-02-07T16:08:16Z</time>
      </trkpt>
      <trkpt lat="45.05055" lon="3.89706">
        <ele>605</ele>
        <time>2023-02-07T16:08:16Z</time>
      </trkpt>
      <trkpt lat="45.05056" lon="3.89692">
        <ele>605</ele>
        <time>2023-02-07T16:08:16Z</time>
      </trkpt>
      <trkpt lat="45.05055" lon="3.89642">
        <ele>606</ele>
        <time>2023-02-07T16:08:16Z</time>
      </trkpt>
      <trkpt lat="45.05077" lon="3.89519">
        <ele>606</ele>
        <time>2023-02-07T16:08:16Z</time>
      </trkpt>
      <trkpt lat="45.05076" lon="3.8947">
        <ele>607</ele>
        <time>2023-02-07T16:08:16Z</time>
      </trkpt>
      <trkpt lat="45.05076" lon="3.8947">
        <ele>607</ele>
        <time>2023-02-07T16:08:16Z</time>
      </trkpt>
      <trkpt lat="45.05069" lon="3.89405">
        <ele>607</ele>
        <time>2023-02-07T16:08:16Z</time>
      </trkpt>
      <trkpt lat="45.05069" lon="3.89405">
        <ele>607</ele>
        <time>2023-02-07T16:08:16Z</time>
      </trkpt>
      <trkpt lat="45.0506" lon="3.89401">
        <ele>607</ele>
        <time>2023-02-07T16:08:16Z</time>
      </trkpt>
      <trkpt lat="45.05048" lon="3.89401">
        <ele>606</ele>
        <time>2023-02-07T16:08:16Z</time>
      </trkpt>
      <trkpt lat="45.05045" lon="3.89374">
        <ele>606</ele>
        <time>2023-02-07T16:08:16Z</time>
      </trkpt>
      <trkpt lat="45.05045" lon="3.89301">
        <ele>607</ele>
        <time>2023-02-07T16:08:16Z</time>
      </trkpt>
      <trkpt lat="45.05039" lon="3.89285">
        <ele>607</ele>
        <time>2023-02-07T16:08:16Z</time>
      </trkpt>
      <trkpt lat="45.04995" lon="3.89235">
        <ele>607</ele>
        <time>2023-02-07T16:08:16Z</time>
      </trkpt>
      <trkpt lat="45.04986" lon="3.89217">
        <ele>608</ele>
        <time>2023-02-07T16:08:16Z</time>
      </trkpt>
      <trkpt lat="45.04981" lon="3.89196">
        <ele>608</ele>
        <time>2023-02-07T16:08:16Z</time>
      </trkpt>
      <trkpt lat="45.04979" lon="3.89182">
        <ele>608</ele>
        <time>2023-02-07T16:08:16Z</time>
      </trkpt>
      <trkpt lat="45.04982" lon="3.89161">
        <ele>608</ele>
        <time>2023-02-07T16:08:16Z</time>
      </trkpt>
      <trkpt lat="45.04982" lon="3.89161">
        <ele>608</ele>
        <time>2023-02-07T16:08:16Z</time>
      </trkpt>
      <trkpt lat="45.04989" lon="3.88986">
        <ele>608</ele>
        <time>2023-02-07T16:08:16Z</time>
      </trkpt>
      <trkpt lat="45.04981" lon="3.88886">
        <ele>608</ele>
        <time>2023-02-07T16:08:16Z</time>
      </trkpt>
      <trkpt lat="45.04988" lon="3.88813">
        <ele>609</ele>
        <time>2023-02-07T16:08:16Z</time>
      </trkpt>
      <trkpt lat="45.04988" lon="3.88813">
        <ele>609</ele>
        <time>2023-02-07T16:08:16Z</time>
      </trkpt>
      <trkpt lat="45.05002" lon="3.8874">
        <ele>610</ele>
        <time>2023-02-07T16:08:16Z</time>
      </trkpt>
      <trkpt lat="45.05047" lon="3.88578">
        <ele>610</ele>
        <time>2023-02-07T16:08:16Z</time>
      </trkpt>
      <trkpt lat="45.05042" lon="3.88564">
        <ele>610</ele>
        <time>2023-02-07T16:08:16Z</time>
      </trkpt>
      <trkpt lat="45.05042" lon="3.88564">
        <ele>612</ele>
        <time>2023-02-07T16:08:16Z</time>
      </trkpt>
      <trkpt lat="45.05043" lon="3.88549">
        <ele>612</ele>
        <time>2023-02-07T16:08:16Z</time>
      </trkpt>
      <trkpt lat="45.05041" lon="3.88533">
        <ele>612</ele>
        <time>2023-02-07T16:08:16Z</time>
      </trkpt>
      <trkpt lat="45.0507" lon="3.88458">
        <ele>612</ele>
        <time>2023-02-07T16:08:16Z</time>
      </trkpt>
      <trkpt lat="45.05085" lon="3.88396">
        <ele>612</ele>
        <time>2023-02-07T16:08:16Z</time>
      </trkpt>
      <trkpt lat="45.05088" lon="3.88366">
        <ele>613</ele>
        <time>2023-02-07T16:08:16Z</time>
      </trkpt>
      <trkpt lat="45.05092" lon="3.88357">
        <ele>613</ele>
        <time>2023-02-07T16:08:16Z</time>
      </trkpt>
      <trkpt lat="45.05089" lon="3.88298">
        <ele>613</ele>
        <time>2023-02-07T16:08:16Z</time>
      </trkpt>
      <trkpt lat="45.05083" lon="3.88268">
        <ele>613</ele>
        <time>2023-02-07T16:08:16Z</time>
      </trkpt>
      <trkpt lat="45.05083" lon="3.88268">
        <ele>615</ele>
        <time>2023-02-07T16:08:16Z</time>
      </trkpt>
      <trkpt lat="45.05084" lon="3.88251">
        <ele>615</ele>
        <time>2023-02-07T16:08:16Z</time>
      </trkpt>
      <trkpt lat="45.05075" lon="3.88249">
        <ele>615</ele>
        <time>2023-02-07T16:08:16Z</time>
      </trkpt>
      <trkpt lat="45.05067" lon="3.88279">
        <ele>614</ele>
        <time>2023-02-07T16:08:16Z</time>
      </trkpt>
      <trkpt lat="45.05066" lon="3.88297">
        <ele>614</ele>
        <time>2023-02-07T16:08:16Z</time>
      </trkpt>
      <trkpt lat="45.0504" lon="3.88356">
        <ele>614</ele>
        <time>2023-02-07T16:08:16Z</time>
      </trkpt>
      <trkpt lat="45.05033" lon="3.8835">
        <ele>614</ele>
        <time>2023-02-07T16:08:16Z</time>
      </trkpt>
      <trkpt lat="45.05012" lon="3.88357">
        <ele>615</ele>
        <time>2023-02-07T16:08:16Z</time>
      </trkpt>
      <trkpt lat="45.04984" lon="3.88346">
        <ele>616</ele>
        <time>2023-02-07T16:08:16Z</time>
      </trkpt>
      <trkpt lat="45.04975" lon="3.88328">
        <ele>618</ele>
        <time>2023-02-07T16:08:16Z</time>
      </trkpt>
      <trkpt lat="45.04966" lon="3.88331">
        <ele>620</ele>
        <time>2023-02-07T16:08:16Z</time>
      </trkpt>
      <trkpt lat="45.0496" lon="3.88303">
        <ele>621</ele>
        <time>2023-02-07T16:08:16Z</time>
      </trkpt>
      <trkpt lat="45.04977" lon="3.88287">
        <ele>625</ele>
        <time>2023-02-07T16:08:16Z</time>
      </trkpt>
      <trkpt lat="45.04982" lon="3.88296">
        <ele>627</ele>
        <time>2023-02-07T16:08:16Z</time>
      </trkpt>
      <trkpt lat="45.04982" lon="3.88296">
        <ele>643</ele>
        <time>2023-02-07T16:08:16Z</time>
      </trkpt>
      <trkpt lat="45.04977" lon="3.88287">
        <ele>642</ele>
        <time>2023-02-07T16:08:16Z</time>
      </trkpt>
      <trkpt lat="45.04948" lon="3.88297">
        <ele>641</ele>
        <time>2023-02-07T16:08:16Z</time>
      </trkpt>
      <trkpt lat="45.04903" lon="3.88292">
        <ele>639</ele>
        <time>2023-02-07T16:08:16Z</time>
      </trkpt>
      <trkpt lat="45.04891" lon="3.88295">
        <ele>638</ele>
        <time>2023-02-07T16:08:16Z</time>
      </trkpt>
      <trkpt lat="45.04892" lon="3.88328">
        <ele>638</ele>
        <time>2023-02-07T16:08:16Z</time>
      </trkpt>
      <trkpt lat="45.04888" lon="3.88344">
        <ele>637</ele>
        <time>2023-02-07T16:08:16Z</time>
      </trkpt>
      <trkpt lat="45.04888" lon="3.88391">
        <ele>638</ele>
        <time>2023-02-07T16:08:16Z</time>
      </trkpt>
      <trkpt lat="45.04881" lon="3.88391">
        <ele>639</ele>
        <time>2023-02-07T16:08:16Z</time>
      </trkpt>
      <trkpt lat="45.04821" lon="3.88349">
        <ele>642</ele>
        <time>2023-02-07T16:08:16Z</time>
      </trkpt>
      <trkpt lat="45.04813" lon="3.88349">
        <ele>644</ele>
        <time>2023-02-07T16:08:16Z</time>
      </trkpt>
      <trkpt lat="45.0481" lon="3.88358">
        <ele>646</ele>
        <time>2023-02-07T16:08:16Z</time>
      </trkpt>
      <trkpt lat="45.04771" lon="3.88339">
        <ele>649</ele>
        <time>2023-02-07T16:08:16Z</time>
      </trkpt>
      <trkpt lat="45.04771" lon="3.88339">
        <ele>659</ele>
        <time>2023-02-07T16:08:16Z</time>
      </trkpt>
      <trkpt lat="45.04727" lon="3.88329">
        <ele>659</ele>
        <time>2023-02-07T16:08:16Z</time>
      </trkpt>
      <trkpt lat="45.04623" lon="3.88356">
        <ele>660</ele>
        <time>2023-02-07T16:08:16Z</time>
      </trkpt>
      <trkpt lat="45.04627" lon="3.88339">
        <ele>660</ele>
        <time>2023-02-07T16:08:16Z</time>
      </trkpt>
      <trkpt lat="45.04627" lon="3.88339">
        <ele>662</ele>
        <time>2023-02-07T16:08:16Z</time>
      </trkpt>
      <trkpt lat="45.04614" lon="3.88394">
        <ele>663</ele>
        <time>2023-02-07T16:08:16Z</time>
      </trkpt>
      <trkpt lat="45.04571" lon="3.88392">
        <ele>663</ele>
        <time>2023-02-07T16:08:16Z</time>
      </trkpt>
      <trkpt lat="45.04571" lon="3.88392">
        <ele>663</ele>
        <time>2023-02-07T16:08:16Z</time>
      </trkpt>
      <trkpt lat="45.04556" lon="3.88389">
        <ele>662</ele>
        <time>2023-02-07T16:08:16Z</time>
      </trkpt>
      <trkpt lat="45.04474" lon="3.88409">
        <ele>662</ele>
        <time>2023-02-07T16:08:16Z</time>
      </trkpt>
      <trkpt lat="45.04474" lon="3.88394">
        <ele>662</ele>
        <time>2023-02-07T16:08:16Z</time>
      </trkpt>
      <trkpt lat="45.04466" lon="3.88388">
        <ele>658</ele>
        <time>2023-02-07T16:08:16Z</time>
      </trkpt>
      <trkpt lat="45.04431" lon="3.88377">
        <ele>656</ele>
        <time>2023-02-07T16:08:16Z</time>
      </trkpt>
      <trkpt lat="45.04428" lon="3.88422">
        <ele>655</ele>
        <time>2023-02-07T16:08:16Z</time>
      </trkpt>
      <trkpt lat="45.04411" lon="3.88422">
        <ele>653</ele>
        <time>2023-02-07T16:08:16Z</time>
      </trkpt>
      <trkpt lat="45.0441" lon="3.8844">
        <ele>652</ele>
        <time>2023-02-07T16:08:16Z</time>
      </trkpt>
      <trkpt lat="45.04398" lon="3.88437">
        <ele>651</ele>
        <time>2023-02-07T16:08:16Z</time>
      </trkpt>
      <trkpt lat="45.04403" lon="3.8849">
        <ele>650</ele>
        <time>2023-02-07T16:08:16Z</time>
      </trkpt>
      <trkpt lat="45.04297" lon="3.88545">
        <ele>643</ele>
        <time>2023-02-07T16:08:16Z</time>
      </trkpt>
      <trkpt lat="45.04257" lon="3.8855">
        <ele>638</ele>
        <time>2023-02-07T16:08:16Z</time>
      </trkpt>
      <trkpt lat="45.04258" lon="3.8866">
        <ele>634</ele>
        <time>2023-02-07T16:08:16Z</time>
      </trkpt>
      <trkpt lat="45.04261" lon="3.88674">
        <ele>631</ele>
        <time>2023-02-07T16:08:16Z</time>
      </trkpt>
      <trkpt lat="45.0422" lon="3.887">
        <ele>629</ele>
        <time>2023-02-07T16:08:16Z</time>
      </trkpt>
      <trkpt lat="45.04224" lon="3.88712">
        <ele>627</ele>
        <time>2023-02-07T16:08:16Z</time>
      </trkpt>
      <trkpt lat="45.04208" lon="3.88708">
        <ele>626</ele>
        <time>2023-02-07T16:08:16Z</time>
      </trkpt>
      <trkpt lat="45.04154" lon="3.88751">
        <ele>625</ele>
        <time>2023-02-07T16:08:16Z</time>
      </trkpt>
      <trkpt lat="45.04135" lon="3.88776">
        <ele>625</ele>
        <time>2023-02-07T16:08:16Z</time>
      </trkpt>
      <trkpt lat="45.04124" lon="3.88811">
        <ele>624</ele>
        <time>2023-02-07T16:08:16Z</time>
      </trkpt>
      <trkpt lat="45.04124" lon="3.88811">
        <ele>623</ele>
        <time>2023-02-07T16:08:16Z</time>
      </trkpt>
      <trkpt lat="45.04111" lon="3.88823">
        <ele>623</ele>
        <time>2023-02-07T16:08:16Z</time>
      </trkpt>
      <trkpt lat="45.04114" lon="3.88839">
        <ele>623</ele>
        <time>2023-02-07T16:08:16Z</time>
      </trkpt>
      <trkpt lat="45.04106" lon="3.88939">
        <ele>625</ele>
        <time>2023-02-07T16:08:16Z</time>
      </trkpt>
      <trkpt lat="45.04132" lon="3.89095">
        <ele>629</ele>
        <time>2023-02-07T16:08:16Z</time>
      </trkpt>
      <trkpt lat="45.04155" lon="3.89169">
        <ele>633</ele>
        <time>2023-02-07T16:08:16Z</time>
      </trkpt>
      <trkpt lat="45.04155" lon="3.89169">
        <ele>643</ele>
        <time>2023-02-07T16:08:16Z</time>
      </trkpt>
      <trkpt lat="45.04079" lon="3.89262">
        <ele>646</ele>
        <time>2023-02-07T16:08:16Z</time>
      </trkpt>
      <trkpt lat="45.04049" lon="3.89325">
        <ele>650</ele>
        <time>2023-02-07T16:08:16Z</time>
      </trkpt>
      <trkpt lat="45.04035" lon="3.89388">
        <ele>653</ele>
        <time>2023-02-07T16:08:16Z</time>
      </trkpt>
      <trkpt lat="45.04025" lon="3.89448">
        <ele>656</ele>
        <time>2023-02-07T16:08:16Z</time>
      </trkpt>
      <trkpt lat="45.04004" lon="3.89532">
        <ele>660</ele>
        <time>2023-02-07T16:08:16Z</time>
      </trkpt>
      <trkpt lat="45.04004" lon="3.89532">
        <ele>672</ele>
        <time>2023-02-07T16:08:16Z</time>
      </trkpt>
      <trkpt lat="45.04" lon="3.89548">
        <ele>672</ele>
        <time>2023-02-07T16:08:16Z</time>
      </trkpt>
      <trkpt lat="45.03994" lon="3.8956">
        <ele>672</ele>
        <time>2023-02-07T16:08:16Z</time>
      </trkpt>
      <trkpt lat="45.03962" lon="3.8959">
        <ele>673</ele>
        <time>2023-02-07T16:08:16Z</time>
      </trkpt>
      <trkpt lat="45.03937" lon="3.89603">
        <ele>675</ele>
        <time>2023-02-07T16:08:16Z</time>
      </trkpt>
      <trkpt lat="45.03879" lon="3.89678">
        <ele>679</ele>
        <time>2023-02-07T16:08:16Z</time>
      </trkpt>
      <trkpt lat="45.0387" lon="3.897">
        <ele>683</ele>
        <time>2023-02-07T16:08:16Z</time>
      </trkpt>
      <trkpt lat="45.0378" lon="3.89699">
        <ele>688</ele>
        <time>2023-02-07T16:08:16Z</time>
      </trkpt>
      <trkpt lat="45.03768" lon="3.8969">
        <ele>691</ele>
        <time>2023-02-07T16:08:16Z</time>
      </trkpt>
      <trkpt lat="45.03757" lon="3.89703">
        <ele>693</ele>
        <time>2023-02-07T16:08:16Z</time>
      </trkpt>
      <trkpt lat="45.03754" lon="3.89712">
        <ele>695</ele>
        <time>2023-02-07T16:08:16Z</time>
      </trkpt>
      <trkpt lat="45.03754" lon="3.89712">
        <ele>703</ele>
        <time>2023-02-07T16:08:16Z</time>
      </trkpt>
      <trkpt lat="45.03747" lon="3.89736">
        <ele>704</ele>
        <time>2023-02-07T16:08:16Z</time>
      </trkpt>
      <trkpt lat="45.03725" lon="3.89762">
        <ele>705</ele>
        <time>2023-02-07T16:08:16Z</time>
      </trkpt>
      <trkpt lat="45.03675" lon="3.89799">
        <ele>709</ele>
        <time>2023-02-07T16:08:16Z</time>
      </trkpt>
      <trkpt lat="45.03565" lon="3.8991">
        <ele>722</ele>
        <time>2023-02-07T16:08:16Z</time>
      </trkpt>
      <trkpt lat="45.03553" lon="3.89936">
        <ele>731</ele>
        <time>2023-02-07T16:08:16Z</time>
      </trkpt>
      <trkpt lat="45.03538" lon="3.9001">
        <ele>738</ele>
        <time>2023-02-07T16:08:16Z</time>
      </trkpt>
      <trkpt lat="45.03531" lon="3.90021">
        <ele>743</ele>
        <time>2023-02-07T16:08:16Z</time>
      </trkpt>
      <trkpt lat="45.0353" lon="3.90035">
        <ele>746</ele>
        <time>2023-02-07T16:08:16Z</time>
      </trkpt>
      <trkpt lat="45.03499" lon="3.9007">
        <ele>750</ele>
        <time>2023-02-07T16:08:16Z</time>
      </trkpt>
      <trkpt lat="45.03483" lon="3.90115">
        <ele>775</ele>
        <time>2023-02-07T16:08:16Z</time>
      </trkpt>
      <trkpt lat="45.03475" lon="3.9012">
        <ele>775</ele>
        <time>2023-02-07T16:08:16Z</time>
      </trkpt>
      <trkpt lat="45.03475" lon="3.9012">
        <ele>776</ele>
        <time>2023-02-07T16:08:16Z</time>
      </trkpt>
      <trkpt lat="45.03376" lon="3.90153">
        <ele>777</ele>
        <time>2023-02-07T16:08:16Z</time>
      </trkpt>
      <trkpt lat="45.03308" lon="3.90205">
        <ele>777</ele>
        <time>2023-02-07T16:08:16Z</time>
      </trkpt>
      <trkpt lat="45.03281" lon="3.9019">
        <ele>776</ele>
        <time>2023-02-07T16:08:16Z</time>
      </trkpt>
      <trkpt lat="45.03269" lon="3.90178">
        <ele>775</ele>
        <time>2023-02-07T16:08:16Z</time>
      </trkpt>
      <trkpt lat="45.03262" lon="3.90175">
        <ele>774</ele>
        <time>2023-02-07T16:08:16Z</time>
      </trkpt>
      <trkpt lat="45.03253" lon="3.90176">
        <ele>774</ele>
        <time>2023-02-07T16:08:16Z</time>
      </trkpt>
      <trkpt lat="45.03234" lon="3.90189">
        <ele>772</ele>
        <time>2023-02-07T16:08:16Z</time>
      </trkpt>
      <trkpt lat="45.0322" lon="3.90213">
        <ele>770</ele>
        <time>2023-02-07T16:08:16Z</time>
      </trkpt>
      <trkpt lat="45.03219" lon="3.90236">
        <ele>769</ele>
        <time>2023-02-07T16:08:16Z</time>
      </trkpt>
      <trkpt lat="45.03217" lon="3.90246">
        <ele>767</ele>
        <time>2023-02-07T16:08:16Z</time>
      </trkpt>
      <trkpt lat="45.03207" lon="3.90259">
        <ele>766</ele>
        <time>2023-02-07T16:08:16Z</time>
      </trkpt>
      <trkpt lat="45.0317" lon="3.90265">
        <ele>763</ele>
        <time>2023-02-07T16:08:16Z</time>
      </trkpt>
      <trkpt lat="45.0317" lon="3.90265">
        <ele>752</ele>
        <time>2023-02-07T16:08:16Z</time>
      </trkpt>
      <trkpt lat="45.03157" lon="3.90273">
        <ele>752</ele>
        <time>2023-02-07T16:08:16Z</time>
      </trkpt>
      <trkpt lat="45.03152" lon="3.90286">
        <ele>752</ele>
        <time>2023-02-07T16:08:16Z</time>
      </trkpt>
      <trkpt lat="45.03151" lon="3.90297">
        <ele>752</ele>
        <time>2023-02-07T16:08:16Z</time>
      </trkpt>
      <trkpt lat="45.03176" lon="3.90542">
        <ele>751</ele>
        <time>2023-02-07T16:08:16Z</time>
      </trkpt>
      <trkpt lat="45.03161" lon="3.9055">
        <ele>750</ele>
        <time>2023-02-07T16:08:16Z</time>
      </trkpt>
      <trkpt lat="45.03106" lon="3.9055">
        <ele>750</ele>
        <time>2023-02-07T16:08:16Z</time>
      </trkpt>
      <trkpt lat="45.03098" lon="3.90553">
        <ele>749</ele>
        <time>2023-02-07T16:08:16Z</time>
      </trkpt>
      <trkpt lat="45.03094" lon="3.90563">
        <ele>749</ele>
        <time>2023-02-07T16:08:16Z</time>
      </trkpt>
      <trkpt lat="45.03102" lon="3.90596">
        <ele>749</ele>
        <time>2023-02-07T16:08:16Z</time>
      </trkpt>
      <trkpt lat="45.03099" lon="3.90635">
        <ele>749</ele>
        <time>2023-02-07T16:08:16Z</time>
      </trkpt>
      <trkpt lat="45.03115" lon="3.90699">
        <ele>750</ele>
        <time>2023-02-07T16:08:16Z</time>
      </trkpt>
      <trkpt lat="45.03115" lon="3.90699">
        <ele>754</ele>
        <time>2023-02-07T16:08:16Z</time>
      </trkpt>
      <trkpt lat="45.0308" lon="3.90731">
        <ele>755</ele>
        <time>2023-02-07T16:08:16Z</time>
      </trkpt>
      <trkpt lat="45.03012" lon="3.90762">
        <ele>757</ele>
        <time>2023-02-07T16:08:16Z</time>
      </trkpt>
      <trkpt lat="45.03004" lon="3.90769">
        <ele>758</ele>
        <time>2023-02-07T16:08:16Z</time>
      </trkpt>
      <trkpt lat="45.02983" lon="3.90805">
        <ele>760</ele>
        <time>2023-02-07T16:08:16Z</time>
      </trkpt>
      <trkpt lat="45.02965" lon="3.90825">
        <ele>761</ele>
        <time>2023-02-07T16:08:16Z</time>
      </trkpt>
      <trkpt lat="45.02937" lon="3.90877">
        <ele>765</ele>
        <time>2023-02-07T16:08:16Z</time>
      </trkpt>
      <trkpt lat="45.02908" lon="3.90903">
        <ele>769</ele>
        <time>2023-02-07T16:08:16Z</time>
      </trkpt>
      <trkpt lat="45.02884" lon="3.90914">
        <ele>773</ele>
        <time>2023-02-07T16:08:16Z</time>
      </trkpt>
      <trkpt lat="45.0281" lon="3.90966">
        <ele>781</ele>
        <time>2023-02-07T16:08:16Z</time>
      </trkpt>
      <trkpt lat="45.02737" lon="3.90995">
        <ele>790</ele>
        <time>2023-02-07T16:08:16Z</time>
      </trkpt>
      <trkpt lat="45.02732" lon="3.91003">
        <ele>795</ele>
        <time>2023-02-07T16:08:16Z</time>
      </trkpt>
      <trkpt lat="45.02718" lon="3.91014">
        <ele>798</ele>
        <time>2023-02-07T16:08:16Z</time>
      </trkpt>
      <trkpt lat="45.02705" lon="3.91017">
        <ele>801</ele>
        <time>2023-02-07T16:08:16Z</time>
      </trkpt>
      <trkpt lat="45.02618" lon="3.91015">
        <ele>806</ele>
        <time>2023-02-07T16:08:16Z</time>
      </trkpt>
      <trkpt lat="45.02521" lon="3.91045">
        <ele>811</ele>
        <time>2023-02-07T16:08:16Z</time>
      </trkpt>
      <trkpt lat="45.02514" lon="3.91049">
        <ele>815</ele>
        <time>2023-02-07T16:08:16Z</time>
      </trkpt>
      <trkpt lat="45.02505" lon="3.91059">
        <ele>817</ele>
        <time>2023-02-07T16:08:16Z</time>
      </trkpt>
      <trkpt lat="45.02479" lon="3.91058">
        <ele>819</ele>
        <time>2023-02-07T16:08:16Z</time>
      </trkpt>
      <trkpt lat="45.02448" lon="3.91052">
        <ele>821</ele>
        <time>2023-02-07T16:08:16Z</time>
      </trkpt>
      <trkpt lat="45.02415" lon="3.91057">
        <ele>822</ele>
        <time>2023-02-07T16:08:16Z</time>
      </trkpt>
      <trkpt lat="45.02392" lon="3.91067">
        <ele>824</ele>
        <time>2023-02-07T16:08:16Z</time>
      </trkpt>
      <trkpt lat="45.02382" lon="3.91078">
        <ele>826</ele>
        <time>2023-02-07T16:08:16Z</time>
      </trkpt>
      <trkpt lat="45.02245" lon="3.91158">
        <ele>832</ele>
        <time>2023-02-07T16:08:16Z</time>
      </trkpt>
      <trkpt lat="45.02245" lon="3.91158">
        <ele>832</ele>
        <time>2023-02-07T16:08:16Z</time>
      </trkpt>
      <trkpt lat="45.02175" lon="3.91214">
        <ele>831</ele>
        <time>2023-02-07T16:08:16Z</time>
      </trkpt>
      <trkpt lat="45.02096" lon="3.91328">
        <ele>829</ele>
        <time>2023-02-07T16:08:16Z</time>
      </trkpt>
      <trkpt lat="45.02085" lon="3.91333">
        <ele>828</ele>
        <time>2023-02-07T16:08:16Z</time>
      </trkpt>
      <trkpt lat="45.02018" lon="3.91337">
        <ele>825</ele>
        <time>2023-02-07T16:08:16Z</time>
      </trkpt>
      <trkpt lat="45.01888" lon="3.91387">
        <ele>817</ele>
        <time>2023-02-07T16:08:16Z</time>
      </trkpt>
      <trkpt lat="45.01712" lon="3.91419">
        <ele>808</ele>
        <time>2023-02-07T16:08:16Z</time>
      </trkpt>
      <trkpt lat="45.01699" lon="3.91428">
        <ele>803</ele>
        <time>2023-02-07T16:08:16Z</time>
      </trkpt>
      <trkpt lat="45.01652" lon="3.9147">
        <ele>800</ele>
        <time>2023-02-07T16:08:16Z</time>
      </trkpt>
      <trkpt lat="45.01629" lon="3.91482">
        <ele>798</ele>
        <time>2023-02-07T16:08:16Z</time>
      </trkpt>
      <trkpt lat="45.01605" lon="3.91486">
        <ele>797</ele>
        <time>2023-02-07T16:08:16Z</time>
      </trkpt>
      <trkpt lat="45.01605" lon="3.91486">
        <ele>792</ele>
        <time>2023-02-07T16:08:16Z</time>
      </trkpt>
      <trkpt lat="45.01594" lon="3.91484">
        <ele>792</ele>
        <time>2023-02-07T16:08:16Z</time>
      </trkpt>
      <trkpt lat="45.01586" lon="3.91448">
        <ele>792</ele>
        <time>2023-02-07T16:08:16Z</time>
      </trkpt>
      <trkpt lat="45.01557" lon="3.9137">
        <ele>791</ele>
        <time>2023-02-07T16:08:16Z</time>
      </trkpt>
      <trkpt lat="45.01546" lon="3.91362">
        <ele>791</ele>
        <time>2023-02-07T16:08:16Z</time>
      </trkpt>
      <trkpt lat="45.01535" lon="3.91363">
        <ele>790</ele>
        <time>2023-02-07T16:08:16Z</time>
      </trkpt>
      <trkpt lat="45.01516" lon="3.91376">
        <ele>789</ele>
        <time>2023-02-07T16:08:16Z</time>
      </trkpt>
      <trkpt lat="45.01496" lon="3.91382">
        <ele>788</ele>
        <time>2023-02-07T16:08:16Z</time>
      </trkpt>
      <trkpt lat="45.0145" lon="3.91368">
        <ele>788</ele>
        <time>2023-02-07T16:08:16Z</time>
      </trkpt>
      <trkpt lat="45.01423" lon="3.91344">
        <ele>787</ele>
        <time>2023-02-07T16:08:16Z</time>
      </trkpt>
      <trkpt lat="45.01414" lon="3.91345">
        <ele>787</ele>
        <time>2023-02-07T16:08:16Z</time>
      </trkpt>
      <trkpt lat="45.01399" lon="3.91372">
        <ele>787</ele>
        <time>2023-02-07T16:08:16Z</time>
      </trkpt>
      <trkpt lat="45.01384" lon="3.91383">
        <ele>787</ele>
        <time>2023-02-07T16:08:16Z</time>
      </trkpt>
      <trkpt lat="45.0136" lon="3.91391">
        <ele>787</ele>
        <time>2023-02-07T16:08:16Z</time>
      </trkpt>
      <trkpt lat="45.01342" lon="3.91408">
        <ele>787</ele>
        <time>2023-02-07T16:08:16Z</time>
      </trkpt>
      <trkpt lat="45.013" lon="3.91249">
        <ele>787</ele>
        <time>2023-02-07T16:08:16Z</time>
      </trkpt>
      <trkpt lat="45.01299" lon="3.91237">
        <ele>787</ele>
        <time>2023-02-07T16:08:16Z</time>
      </trkpt>
      <trkpt lat="45.01342" lon="3.90991">
        <ele>789</ele>
        <time>2023-02-07T16:08:16Z</time>
      </trkpt>
      <trkpt lat="45.0134" lon="3.9094">
        <ele>790</ele>
        <time>2023-02-07T16:08:16Z</time>
      </trkpt>
      <trkpt lat="45.01343" lon="3.90917">
        <ele>791</ele>
        <time>2023-02-07T16:08:16Z</time>
      </trkpt>
      <trkpt lat="45.0135" lon="3.90899">
        <ele>792</ele>
        <time>2023-02-07T16:08:16Z</time>
      </trkpt>
      <trkpt lat="45.01349" lon="3.90882">
        <ele>793</ele>
        <time>2023-02-07T16:08:16Z</time>
      </trkpt>
      <trkpt lat="45.01333" lon="3.9086">
        <ele>795</ele>
        <time>2023-02-07T16:08:16Z</time>
      </trkpt>
      <trkpt lat="45.01275" lon="3.90748">
        <ele>798</ele>
        <time>2023-02-07T16:08:16Z</time>
      </trkpt>
      <trkpt lat="45.01252" lon="3.90713">
        <ele>800</ele>
        <time>2023-02-07T16:08:16Z</time>
      </trkpt>
      <trkpt lat="45.01247" lon="3.907">
        <ele>801</ele>
        <time>2023-02-07T16:08:16Z</time>
      </trkpt>
      <trkpt lat="45.01245" lon="3.90688">
        <ele>803</ele>
        <time>2023-02-07T16:08:16Z</time>
      </trkpt>
      <trkpt lat="45.01245" lon="3.90688">
        <ele>807</ele>
        <time>2023-02-07T16:08:16Z</time>
      </trkpt>
      <trkpt lat="45.01243" lon="3.90676">
        <ele>808</ele>
        <time>2023-02-07T16:08:16Z</time>
      </trkpt>
      <trkpt lat="45.01228" lon="3.90678">
        <ele>808</ele>
        <time>2023-02-07T16:08:16Z</time>
      </trkpt>
      <trkpt lat="45.0114" lon="3.90784">
        <ele>806</ele>
        <time>2023-02-07T16:08:16Z</time>
      </trkpt>
      <trkpt lat="45.01011" lon="3.91082">
        <ele>801</ele>
        <time>2023-02-07T16:08:16Z</time>
      </trkpt>
      <trkpt lat="45.00993" lon="3.91104">
        <ele>797</ele>
        <time>2023-02-07T16:08:16Z</time>
      </trkpt>
      <trkpt lat="45.0098" lon="3.91109">
        <ele>795</ele>
        <time>2023-02-07T16:08:16Z</time>
      </trkpt>
      <trkpt lat="45.00959" lon="3.91103">
        <ele>793</ele>
        <time>2023-02-07T16:08:16Z</time>
      </trkpt>
      <trkpt lat="45.00884" lon="3.91066">
        <ele>789</ele>
        <time>2023-02-07T16:08:16Z</time>
      </trkpt>
      <trkpt lat="45.00809" lon="3.91061">
        <ele>784</ele>
        <time>2023-02-07T16:08:16Z</time>
      </trkpt>
      <trkpt lat="45.0073" lon="3.91074">
        <ele>777</ele>
        <time>2023-02-07T16:08:16Z</time>
      </trkpt>
      <trkpt lat="45.00615" lon="3.91182">
        <ele>744</ele>
        <time>2023-02-07T16:08:16Z</time>
      </trkpt>
      <trkpt lat="45.00609" lon="3.91195">
        <ele>744</ele>
        <time>2023-02-07T16:08:16Z</time>
      </trkpt>
      <trkpt lat="45.0061" lon="3.9122">
        <ele>743</ele>
        <time>2023-02-07T16:08:16Z</time>
      </trkpt>
      <trkpt lat="45.00601" lon="3.91233">
        <ele>742</ele>
        <time>2023-02-07T16:08:16Z</time>
      </trkpt>
      <trkpt lat="45.00573" lon="3.91239">
        <ele>741</ele>
        <time>2023-02-07T16:08:16Z</time>
      </trkpt>
      <trkpt lat="45.00558" lon="3.91236">
        <ele>739</ele>
        <time>2023-02-07T16:08:16Z</time>
      </trkpt>
      <trkpt lat="45.00534" lon="3.91247">
        <ele>737</ele>
        <time>2023-02-07T16:08:16Z</time>
      </trkpt>
      <trkpt lat="45.00516" lon="3.9126">
        <ele>736</ele>
        <time>2023-02-07T16:08:16Z</time>
      </trkpt>
      <trkpt lat="45.00522" lon="3.9127">
        <ele>734</ele>
        <time>2023-02-07T16:08:16Z</time>
      </trkpt>
      <trkpt lat="45.00522" lon="3.9127">
        <ele>727</ele>
        <time>2023-02-07T16:08:16Z</time>
      </trkpt>
      <trkpt lat="45.00516" lon="3.9126">
        <ele>727</ele>
        <time>2023-02-07T16:08:16Z</time>
      </trkpt>
      <trkpt lat="45.0047" lon="3.91306">
        <ele>726</ele>
        <time>2023-02-07T16:08:16Z</time>
      </trkpt>
      <trkpt lat="45.0046" lon="3.91305">
        <ele>725</ele>
        <time>2023-02-07T16:08:16Z</time>
      </trkpt>
      <trkpt lat="45.00457" lon="3.91318">
        <ele>725</ele>
        <time>2023-02-07T16:08:16Z</time>
      </trkpt>
      <trkpt lat="45.0043" lon="3.91345">
        <ele>724</ele>
        <time>2023-02-07T16:08:16Z</time>
      </trkpt>
      <trkpt lat="45.0043" lon="3.91345">
        <ele>721</ele>
        <time>2023-02-07T16:08:16Z</time>
      </trkpt>
      <trkpt lat="45.00423" lon="3.91349">
        <ele>721</ele>
        <time>2023-02-07T16:08:16Z</time>
      </trkpt>
      <trkpt lat="45.00349" lon="3.91304">
        <ele>719</ele>
        <time>2023-02-07T16:08:16Z</time>
      </trkpt>
      <trkpt lat="45.00332" lon="3.91298">
        <ele>718</ele>
        <time>2023-02-07T16:08:16Z</time>
      </trkpt>
      <trkpt lat="45.00332" lon="3.91298">
        <ele>712</ele>
        <time>2023-02-07T16:08:16Z</time>
      </trkpt>
      <trkpt lat="45.0032" lon="3.91296">
        <ele>711</ele>
        <time>2023-02-07T16:08:16Z</time>
      </trkpt>
      <trkpt lat="45.0031" lon="3.91301">
        <ele>711</ele>
        <time>2023-02-07T16:08:16Z</time>
      </trkpt>
      <trkpt lat="45.00306" lon="3.91312">
        <ele>710</ele>
        <time>2023-02-07T16:08:16Z</time>
      </trkpt>
      <trkpt lat="45.00313" lon="3.91416">
        <ele>707</ele>
        <time>2023-02-07T16:08:16Z</time>
      </trkpt>
      <trkpt lat="45.00308" lon="3.91426">
        <ele>704</ele>
        <time>2023-02-07T16:08:16Z</time>
      </trkpt>
      <trkpt lat="45.00308" lon="3.91426">
        <ele>694</ele>
        <time>2023-02-07T16:08:16Z</time>
      </trkpt>
      <trkpt lat="45.00265" lon="3.91466">
        <ele>692</ele>
        <time>2023-02-07T16:08:16Z</time>
      </trkpt>
      <trkpt lat="45.00077" lon="3.91577">
        <ele>685</ele>
        <time>2023-02-07T16:08:16Z</time>
      </trkpt>
      <trkpt lat="45.00078" lon="3.91591">
        <ele>682</ele>
        <time>2023-02-07T16:08:16Z</time>
      </trkpt>
      <trkpt lat="45.00094" lon="3.91607">
        <ele>678</ele>
        <time>2023-02-07T16:08:16Z</time>
      </trkpt>
      <trkpt lat="45.00094" lon="3.91607">
        <ele>668</ele>
        <time>2023-02-07T16:08:16Z</time>
      </trkpt>
      <trkpt lat="45.00107" lon="3.91627">
        <ele>667</ele>
        <time>2023-02-07T16:08:16Z</time>
      </trkpt>
      <trkpt lat="45.00108" lon="3.91649">
        <ele>666</ele>
        <time>2023-02-07T16:08:16Z</time>
      </trkpt>
      <trkpt lat="45.00104" lon="3.91693">
        <ele>665</ele>
        <time>2023-02-07T16:08:16Z</time>
      </trkpt>
      <trkpt lat="45.00095" lon="3.91716">
        <ele>664</ele>
        <time>2023-02-07T16:08:16Z</time>
      </trkpt>
      <trkpt lat="45.00095" lon="3.91716">
        <ele>659</ele>
        <time>2023-02-07T16:08:16Z</time>
      </trkpt>
      <trkpt lat="45.00101" lon="3.917">
        <ele>659</ele>
        <time>2023-02-07T16:08:16Z</time>
      </trkpt>
      <trkpt lat="44.99967" lon="3.91704">
        <ele>655</ele>
        <time>2023-02-07T16:08:16Z</time>
      </trkpt>
      <trkpt lat="44.99955" lon="3.917">
        <ele>653</ele>
        <time>2023-02-07T16:08:16Z</time>
      </trkpt>
      <trkpt lat="44.99932" lon="3.91704">
        <ele>650</ele>
        <time>2023-02-07T16:08:16Z</time>
      </trkpt>
      <trkpt lat="44.99917" lon="3.91715">
        <ele>648</ele>
        <time>2023-02-07T16:08:16Z</time>
      </trkpt>
      <trkpt lat="44.99895" lon="3.9174">
        <ele>645</ele>
        <time>2023-02-07T16:08:16Z</time>
      </trkpt>
      <trkpt lat="44.99886" lon="3.91748">
        <ele>643</ele>
        <time>2023-02-07T16:08:16Z</time>
      </trkpt>
      <trkpt lat="44.99874" lon="3.91697">
        <ele>641</ele>
        <time>2023-02-07T16:08:16Z</time>
      </trkpt>
      <trkpt lat="44.99746" lon="3.91738">
        <ele>638</ele>
        <time>2023-02-07T16:08:16Z</time>
      </trkpt>
      <trkpt lat="44.9974" lon="3.91745">
        <ele>636</ele>
        <time>2023-02-07T16:08:16Z</time>
      </trkpt>
      <trkpt lat="44.9973" lon="3.91739">
        <ele>635</ele>
        <time>2023-02-07T16:08:16Z</time>
      </trkpt>
      <trkpt lat="44.99722" lon="3.9173">
        <ele>634</ele>
        <time>2023-02-07T16:08:16Z</time>
      </trkpt>
      <trkpt lat="44.99736" lon="3.91716">
        <ele>633</ele>
        <time>2023-02-07T16:08:16Z</time>
      </trkpt>
      <trkpt lat="44.99762" lon="3.91704">
        <ele>632</ele>
        <time>2023-02-07T16:08:16Z</time>
      </trkpt>
      <trkpt lat="44.99768" lon="3.91697">
        <ele>628</ele>
        <time>2023-02-07T16:08:16Z</time>
      </trkpt>
      <trkpt lat="44.99777" lon="3.91715">
        <ele>628</ele>
        <time>2023-02-07T16:08:16Z</time>
      </trkpt>
      <trkpt lat="44.99786" lon="3.9175">
        <ele>628</ele>
        <time>2023-02-07T16:08:16Z</time>
      </trkpt>
      <trkpt lat="44.99786" lon="3.9175">
        <ele>627</ele>
        <time>2023-02-07T16:08:16Z</time>
      </trkpt>
      <trkpt lat="44.99788" lon="3.91773">
        <ele>627</ele>
        <time>2023-02-07T16:08:16Z</time>
      </trkpt>
      <trkpt lat="44.99785" lon="3.91792">
        <ele>627</ele>
        <time>2023-02-07T16:08:16Z</time>
      </trkpt>
      <trkpt lat="44.99768" lon="3.91813">
        <ele>628</ele>
        <time>2023-02-07T16:08:16Z</time>
      </trkpt>
      <trkpt lat="44.9976" lon="3.91819">
        <ele>628</ele>
        <time>2023-02-07T16:08:16Z</time>
      </trkpt>
      <trkpt lat="44.99703" lon="3.91836">
        <ele>628</ele>
        <time>2023-02-07T16:08:16Z</time>
      </trkpt>
      <trkpt lat="44.99697" lon="3.91821">
        <ele>629</ele>
        <time>2023-02-07T16:08:16Z</time>
      </trkpt>
      <trkpt lat="44.99679" lon="3.91832">
        <ele>629</ele>
        <time>2023-02-07T16:08:16Z</time>
      </trkpt>
      <trkpt lat="44.99649" lon="3.9184">
        <ele>629</ele>
        <time>2023-02-07T16:08:16Z</time>
      </trkpt>
      <trkpt lat="44.99608" lon="3.91834">
        <ele>630</ele>
        <time>2023-02-07T16:08:16Z</time>
      </trkpt>
      <trkpt lat="44.99491" lon="3.9178">
        <ele>635</ele>
        <time>2023-02-07T16:08:16Z</time>
      </trkpt>
      <trkpt lat="44.99491" lon="3.9178">
        <ele>645</ele>
        <time>2023-02-07T16:08:16Z</time>
      </trkpt>
      <trkpt lat="44.99479" lon="3.91776">
        <ele>646</ele>
        <time>2023-02-07T16:08:16Z</time>
      </trkpt>
      <trkpt lat="44.99466" lon="3.91782">
        <ele>646</ele>
        <time>2023-02-07T16:08:16Z</time>
      </trkpt>
      <trkpt lat="44.99363" lon="3.91901">
        <ele>651</ele>
        <time>2023-02-07T16:08:16Z</time>
      </trkpt>
      <trkpt lat="44.99277" lon="3.92068">
        <ele>661</ele>
        <time>2023-02-07T16:08:16Z</time>
      </trkpt>
      <trkpt lat="44.99277" lon="3.92068">
        <ele>678</ele>
        <time>2023-02-07T16:08:16Z</time>
      </trkpt>
      <trkpt lat="44.99273" lon="3.92076">
        <ele>678</ele>
        <time>2023-02-07T16:08:16Z</time>
      </trkpt>
      <trkpt lat="44.99175" lon="3.9205">
        <ele>682</ele>
        <time>2023-02-07T16:08:16Z</time>
      </trkpt>
      <trkpt lat="44.99168" lon="3.92044">
        <ele>684</ele>
        <time>2023-02-07T16:08:16Z</time>
      </trkpt>
      <trkpt lat="44.99156" lon="3.92024">
        <ele>686</ele>
        <time>2023-02-07T16:08:16Z</time>
      </trkpt>
      <trkpt lat="44.99132" lon="3.91955">
        <ele>689</ele>
        <time>2023-02-07T16:08:16Z</time>
      </trkpt>
      <trkpt lat="44.99067" lon="3.91874">
        <ele>697</ele>
        <time>2023-02-07T16:08:16Z</time>
      </trkpt>
      <trkpt lat="44.99062" lon="3.91862">
        <ele>701</ele>
        <time>2023-02-07T16:08:16Z</time>
      </trkpt>
      <trkpt lat="44.99057" lon="3.91834">
        <ele>705</ele>
        <time>2023-02-07T16:08:16Z</time>
      </trkpt>
      <trkpt lat="44.99064" lon="3.91769">
        <ele>709</ele>
        <time>2023-02-07T16:08:16Z</time>
      </trkpt>
      <trkpt lat="44.99077" lon="3.91709">
        <ele>714</ele>
        <time>2023-02-07T16:08:16Z</time>
      </trkpt>
      <trkpt lat="44.99076" lon="3.91697">
        <ele>718</ele>
        <time>2023-02-07T16:08:16Z</time>
      </trkpt>
      <trkpt lat="44.99034" lon="3.91674">
        <ele>722</ele>
        <time>2023-02-07T16:08:16Z</time>
      </trkpt>
      <trkpt lat="44.99027" lon="3.91664">
        <ele>725</ele>
        <time>2023-02-07T16:08:16Z</time>
      </trkpt>
      <trkpt lat="44.99092" lon="3.91577">
        <ele>731</ele>
        <time>2023-02-07T16:08:16Z</time>
      </trkpt>
      <trkpt lat="44.99092" lon="3.91564">
        <ele>735</ele>
        <time>2023-02-07T16:08:16Z</time>
      </trkpt>
      <trkpt lat="44.98984" lon="3.91523">
        <ele>744</ele>
        <time>2023-02-07T16:08:16Z</time>
      </trkpt>
      <trkpt lat="44.98974" lon="3.91513">
        <ele>749</ele>
        <time>2023-02-07T16:08:16Z</time>
      </trkpt>
      <trkpt lat="44.989" lon="3.91383">
        <ele>756</ele>
        <time>2023-02-07T16:08:16Z</time>
      </trkpt>
      <trkpt lat="44.98874" lon="3.91357">
        <ele>761</ele>
        <time>2023-02-07T16:08:16Z</time>
      </trkpt>
      <trkpt lat="44.9886" lon="3.91349">
        <ele>765</ele>
        <time>2023-02-07T16:08:16Z</time>
      </trkpt>
      <trkpt lat="44.98842" lon="3.91345">
        <ele>767</ele>
        <time>2023-02-07T16:08:16Z</time>
      </trkpt>
      <trkpt lat="44.98842" lon="3.91345">
        <ele>776</ele>
        <time>2023-02-07T16:08:16Z</time>
      </trkpt>
      <trkpt lat="44.98809" lon="3.9134">
        <ele>776</ele>
        <time>2023-02-07T16:08:16Z</time>
      </trkpt>
      <trkpt lat="44.98684" lon="3.91382">
        <ele>779</ele>
        <time>2023-02-07T16:08:16Z</time>
      </trkpt>
      <trkpt lat="44.98652" lon="3.9138">
        <ele>782</ele>
        <time>2023-02-07T16:08:16Z</time>
      </trkpt>
      <trkpt lat="44.98633" lon="3.91383">
        <ele>785</ele>
        <time>2023-02-07T16:08:16Z</time>
      </trkpt>
      <trkpt lat="44.98612" lon="3.91383">
        <ele>787</ele>
        <time>2023-02-07T16:08:16Z</time>
      </trkpt>
      <trkpt lat="44.98604" lon="3.91385">
        <ele>789</ele>
        <time>2023-02-07T16:08:16Z</time>
      </trkpt>
      <trkpt lat="44.98515" lon="3.91447">
        <ele>795</ele>
        <time>2023-02-07T16:08:16Z</time>
      </trkpt>
      <trkpt lat="44.98507" lon="3.91443">
        <ele>798</ele>
        <time>2023-02-07T16:08:16Z</time>
      </trkpt>
      <trkpt lat="44.98503" lon="3.91433">
        <ele>810</ele>
        <time>2023-02-07T16:08:16Z</time>
      </trkpt>
      <trkpt lat="44.98465" lon="3.9139">
        <ele>810</ele>
      </trkpt>
      <trkpt lat="44.98427" lon="3.91347">
        <ele>809</ele>
        <time>2023-02-07T16:08:16Z</time>
      </trkpt>
      <trkpt lat="44.98427" lon="3.91347">
        <ele>809</ele>
        <time>2023-02-07T16:08:16Z</time>
      </trkpt>
      <trkpt lat="44.98409" lon="3.91375">
        <ele>809</ele>
        <time>2023-02-07T16:08:16Z</time>
      </trkpt>
      <trkpt lat="44.98405" lon="3.91399">
        <ele>809</ele>
        <time>2023-02-07T16:08:16Z</time>
      </trkpt>
      <trkpt lat="44.98406" lon="3.91491">
        <ele>810</ele>
        <time>2023-02-07T16:08:16Z</time>
      </trkpt>
      <trkpt lat="44.98396" lon="3.91525">
        <ele>811</ele>
        <time>2023-02-07T16:08:16Z</time>
      </trkpt>
      <trkpt lat="44.98361" lon="3.91583">
        <ele>812</ele>
        <time>2023-02-07T16:08:16Z</time>
      </trkpt>
      <trkpt lat="44.98317" lon="3.91637">
        <ele>814</ele>
      </trkpt>
      <trkpt lat="44.98273" lon="3.9169">
        <ele>816</ele>
        <time>2023-02-07T16:08:16Z</time>
      </trkpt>
      <trkpt lat="44.98248" lon="3.91701">
        <ele>818</ele>
        <time>2023-02-07T16:08:16Z</time>
      </trkpt>
      <trkpt lat="44.98213" lon="3.91684">
        <ele>820</ele>
        <time>2023-02-07T16:08:16Z</time>
      </trkpt>
      <trkpt lat="44.98199" lon="3.91682">
        <ele>822</ele>
        <time>2023-02-07T16:08:16Z</time>
      </trkpt>
      <trkpt lat="44.98179" lon="3.91688">
        <ele>824</ele>
        <time>2023-02-07T16:08:16Z</time>
      </trkpt>
      <trkpt lat="44.98171" lon="3.91693">
        <ele>825</ele>
        <time>2023-02-07T16:08:16Z</time>
      </trkpt>
      <trkpt lat="44.98163" lon="3.91704">
        <ele>827</ele>
        <time>2023-02-07T16:08:16Z</time>
      </trkpt>
      <trkpt lat="44.98147" lon="3.91744">
        <ele>829</ele>
        <time>2023-02-07T16:08:16Z</time>
      </trkpt>
      <trkpt lat="44.98141" lon="3.91787">
        <ele>831</ele>
        <time>2023-02-07T16:08:16Z</time>
      </trkpt>
      <trkpt lat="44.98145" lon="3.91834">
        <ele>833</ele>
        <time>2023-02-07T16:08:16Z</time>
      </trkpt>
      <trkpt lat="44.98142" lon="3.91852">
        <ele>835</ele>
        <time>2023-02-07T16:08:16Z</time>
      </trkpt>
      <trkpt lat="44.98096" lon="3.91924">
        <ele>838</ele>
      </trkpt>
      <trkpt lat="44.9805" lon="3.91997">
        <ele>841</ele>
      </trkpt>
      <trkpt lat="44.98004" lon="3.92069">
        <ele>845</ele>
      </trkpt>
      <trkpt lat="44.97958" lon="3.92141">
        <ele>848</ele>
        <time>2023-02-07T16:08:16Z</time>
      </trkpt>
      <trkpt lat="44.97958" lon="3.92141">
        <ele>857</ele>
        <time>2023-02-07T16:08:16Z</time>
      </trkpt>
      <trkpt lat="44.97907" lon="3.92234">
        <ele>859</ele>
      </trkpt>
      <trkpt lat="44.97856" lon="3.92328">
        <ele>863</ele>
      </trkpt>
      <trkpt lat="44.97805" lon="3.92421">
        <ele>868</ele>
      </trkpt>
      <trkpt lat="44.97754" lon="3.92514">
        <ele>873</ele>
        <time>2023-02-07T16:08:16Z</time>
      </trkpt>
      <trkpt lat="44.97705" lon="3.92562">
        <ele>877</ele>
        <time>2023-02-07T16:08:16Z</time>
      </trkpt>
      <trkpt lat="44.97675" lon="3.92607">
        <ele>881</ele>
      </trkpt>
      <trkpt lat="44.97645" lon="3.92652">
        <ele>884</ele>
      </trkpt>
      <trkpt lat="44.97614" lon="3.92697">
        <ele>885</ele>
      </trkpt>
      <trkpt lat="44.97584" lon="3.92742">
        <ele>886</ele>
        <time>2023-02-07T16:08:16Z</time>
      </trkpt>
      <trkpt lat="44.97545" lon="3.92765">
        <ele>886</ele>
      </trkpt>
      <trkpt lat="44.97505" lon="3.92787">
        <ele>885</ele>
        <time>2023-02-07T16:08:16Z</time>
      </trkpt>
      <trkpt lat="44.97456" lon="3.92809">
        <ele>884</ele>
      </trkpt>
      <trkpt lat="44.97406" lon="3.9283">
        <ele>884</ele>
        <time>2023-02-07T16:08:16Z</time>
      </trkpt>
      <trkpt lat="44.97347" lon="3.92913">
        <ele>882</ele>
        <time>2023-02-07T16:08:16Z</time>
      </trkpt>
      <trkpt lat="44.97347" lon="3.92913">
        <ele>879</ele>
        <time>2023-02-07T16:08:16Z</time>
      </trkpt>
      <trkpt lat="44.97328" lon="3.92958">
        <ele>878</ele>
        <time>2023-02-07T16:08:16Z</time>
      </trkpt>
      <trkpt lat="44.97323" lon="3.92976">
        <ele>878</ele>
        <time>2023-02-07T16:08:16Z</time>
      </trkpt>
      <trkpt lat="44.97281" lon="3.93065">
        <ele>878</ele>
        <time>2023-02-07T16:08:16Z</time>
      </trkpt>
      <trkpt lat="44.97245" lon="3.93161">
        <ele>878</ele>
      </trkpt>
      <trkpt lat="44.97208" lon="3.93257">
        <ele>879</ele>
      </trkpt>
      <trkpt lat="44.97172" lon="3.93353">
        <ele>881</ele>
      </trkpt>
      <trkpt lat="44.97135" lon="3.93449">
        <ele>884</ele>
        <time>2023-02-07T16:08:16Z</time>
      </trkpt>
      <trkpt lat="44.97102" lon="3.93498">
        <ele>886</ele>
      </trkpt>
      <trkpt lat="44.97069" lon="3.93546">
        <ele>887</ele>
        <time>2023-02-07T16:08:16Z</time>
      </trkpt>
      <trkpt lat="44.97056" lon="3.93583">
        <ele>888</ele>
        <time>2023-02-07T16:08:16Z</time>
      </trkpt>
      <trkpt lat="44.97027" lon="3.93636">
        <ele>889</ele>
      </trkpt>
      <trkpt lat="44.96997" lon="3.93689">
        <ele>890</ele>
      </trkpt>
      <trkpt lat="44.96968" lon="3.93742">
        <ele>889</ele>
      </trkpt>
      <trkpt lat="44.96939" lon="3.93795">
        <ele>888</ele>
      </trkpt>
      <trkpt lat="44.96909" lon="3.93848">
        <ele>886</ele>
      </trkpt>
      <trkpt lat="44.9688" lon="3.93901">
        <ele>885</ele>
      </trkpt>
      <trkpt lat="44.9685" lon="3.93954">
        <ele>885</ele>
      </trkpt>
      <trkpt lat="44.96821" lon="3.94007">
        <ele>885</ele>
        <time>2023-02-07T16:08:16Z</time>
      </trkpt>
      <trkpt lat="44.96797" lon="3.94029">
        <ele>886</ele>
        <time>2023-02-07T16:08:16Z</time>
      </trkpt>
      <trkpt lat="44.96797" lon="3.94029">
        <ele>887</ele>
        <time>2023-02-07T16:08:16Z</time>
      </trkpt>
      <trkpt lat="44.96732" lon="3.94097">
        <ele>888</ele>
      </trkpt>
      <trkpt lat="44.96668" lon="3.94165">
        <ele>888</ele>
      </trkpt>
      <trkpt lat="44.96603" lon="3.94233">
        <ele>889</ele>
      </trkpt>
      <trkpt lat="44.96538" lon="3.94301">
        <ele>889</ele>
        <time>2023-02-07T16:08:16Z</time>
      </trkpt>
      <trkpt lat="44.96502" lon="3.94356">
        <ele>889</ele>
      </trkpt>
      <trkpt lat="44.96466" lon="3.94411">
        <ele>888</ele>
      </trkpt>
      <trkpt lat="44.9643" lon="3.94466">
        <ele>888</ele>
      </trkpt>
      <trkpt lat="44.96394" lon="3.94521">
        <ele>887</ele>
      </trkpt>
      <trkpt lat="44.96357" lon="3.94576">
        <ele>887</ele>
      </trkpt>
      <trkpt lat="44.96321" lon="3.94631">
        <ele>887</ele>
      </trkpt>
      <trkpt lat="44.96285" lon="3.94686">
        <ele>887</ele>
      </trkpt>
      <trkpt lat="44.96249" lon="3.94741">
        <ele>888</ele>
        <time>2023-02-07T16:08:16Z</time>
      </trkpt>
      <trkpt lat="44.96244" lon="3.94755">
        <ele>888</ele>
        <time>2023-02-07T16:08:16Z</time>
      </trkpt>
      <trkpt lat="44.96201" lon="3.94825">
        <ele>889</ele>
        <time>2023-02-07T16:08:16Z</time>
      </trkpt>
      <trkpt lat="44.96191" lon="3.94855">
        <ele>890</ele>
        <time>2023-02-07T16:08:16Z</time>
      </trkpt>
      <trkpt lat="44.96191" lon="3.94855">
        <ele>892</ele>
        <time>2023-02-07T16:08:16Z</time>
      </trkpt>
      <trkpt lat="44.96189" lon="3.94918">
        <ele>892</ele>
        <time>2023-02-07T16:08:16Z</time>
      </trkpt>
      <trkpt lat="44.96193" lon="3.94977">
        <ele>894</ele>
      </trkpt>
      <trkpt lat="44.96198" lon="3.95035">
        <ele>896</ele>
      </trkpt>
      <trkpt lat="44.96202" lon="3.95094">
        <ele>897</ele>
      </trkpt>
      <trkpt lat="44.96206" lon="3.95152">
        <ele>899</ele>
      </trkpt>
      <trkpt lat="44.9621" lon="3.95211">
        <ele>900</ele>
      </trkpt>
      <trkpt lat="44.96215" lon="3.95269">
        <ele>901</ele>
      </trkpt>
      <trkpt lat="44.96219" lon="3.95328">
        <ele>902</ele>
      </trkpt>
      <trkpt lat="44.96223" lon="3.95386">
        <ele>902</ele>
      </trkpt>
      <trkpt lat="44.96227" lon="3.95445">
        <ele>902</ele>
      </trkpt>
      <trkpt lat="44.96232" lon="3.95504">
        <ele>903</ele>
      </trkpt>
      <trkpt lat="44.96236" lon="3.95562">
        <ele>904</ele>
      </trkpt>
      <trkpt lat="44.9624" lon="3.95621">
        <ele>905</ele>
      </trkpt>
      <trkpt lat="44.96244" lon="3.95679">
        <ele>905</ele>
      </trkpt>
      <trkpt lat="44.96249" lon="3.95738">
        <ele>905</ele>
      </trkpt>
      <trkpt lat="44.96257" lon="3.95855">
        <ele>903</ele>
        <time>2023-02-07T16:08:16Z</time>
      </trkpt>
      <trkpt lat="44.96257" lon="3.95855">
        <ele>898</ele>
        <time>2023-02-07T16:08:16Z</time>
      </trkpt>
      <trkpt lat="44.96251" lon="3.95877">
        <ele>898</ele>
        <time>2023-02-07T16:08:16Z</time>
      </trkpt>
      <trkpt lat="44.96228" lon="3.95927">
        <ele>896</ele>
      </trkpt>
      <trkpt lat="44.96204" lon="3.95977">
        <ele>895</ele>
      </trkpt>
      <trkpt lat="44.96181" lon="3.96026">
        <ele>894</ele>
      </trkpt>
      <trkpt lat="44.96157" lon="3.96076">
        <ele>892</ele>
        <time>2023-02-07T16:08:16Z</time>
      </trkpt>
      <trkpt lat="44.96128" lon="3.96147">
        <ele>890</ele>
        <time>2023-02-07T16:08:16Z</time>
      </trkpt>
      <trkpt lat="44.96087" lon="3.96181">
        <ele>888</ele>
        <time>2023-02-07T16:08:16Z</time>
      </trkpt>
      <trkpt lat="44.96079" lon="3.96183">
        <ele>885</ele>
        <time>2023-02-07T16:08:16Z</time>
      </trkpt>
      <trkpt lat="44.9605" lon="3.96182">
        <ele>885</ele>
        <time>2023-02-07T16:08:16Z</time>
      </trkpt>
      <trkpt lat="44.96031" lon="3.96189">
        <ele>886</ele>
        <time>2023-02-07T16:08:16Z</time>
      </trkpt>
      <trkpt lat="44.96014" lon="3.96205">
        <ele>886</ele>
        <time>2023-02-07T16:08:16Z</time>
      </trkpt>
      <trkpt lat="44.95998" lon="3.96243">
        <ele>886</ele>
        <time>2023-02-07T16:08:16Z</time>
      </trkpt>
      <trkpt lat="44.95986" lon="3.9628">
        <ele>886</ele>
        <time>2023-02-07T16:08:16Z</time>
      </trkpt>
      <trkpt lat="44.9598" lon="3.96289">
        <ele>887</ele>
        <time>2023-02-07T16:08:16Z</time>
      </trkpt>
      <trkpt lat="44.95926" lon="3.96344">
        <ele>889</ele>
        <time>2023-02-07T16:08:16Z</time>
      </trkpt>
      <trkpt lat="44.95908" lon="3.96385">
        <ele>890</ele>
        <time>2023-02-07T16:08:16Z</time>
      </trkpt>
      <trkpt lat="44.95891" lon="3.96462">
        <ele>892</ele>
        <time>2023-02-07T16:08:16Z</time>
      </trkpt>
      <trkpt lat="44.95879" lon="3.96492">
        <ele>893</ele>
        <time>2023-02-07T16:08:16Z</time>
      </trkpt>
      <trkpt lat="44.95879" lon="3.96492">
        <ele>897</ele>
        <time>2023-02-07T16:08:16Z</time>
      </trkpt>
      <trkpt lat="44.95828" lon="3.96582">
        <ele>897</ele>
        <time>2023-02-07T16:08:16Z</time>
      </trkpt>
      <trkpt lat="44.95564" lon="3.96919">
        <ele>895</ele>
        <time>2023-02-07T16:08:16Z</time>
      </trkpt>
      <trkpt lat="44.95553" lon="3.96944">
        <ele>894</ele>
        <time>2023-02-07T16:08:16Z</time>
      </trkpt>
      <trkpt lat="44.95542" lon="3.97013">
        <ele>893</ele>
        <time>2023-02-07T16:08:16Z</time>
      </trkpt>
      <trkpt lat="44.95537" lon="3.97026">
        <ele>893</ele>
        <time>2023-02-07T16:08:16Z</time>
      </trkpt>
      <trkpt lat="44.95535" lon="3.97045">
        <ele>892</ele>
        <time>2023-02-07T16:08:16Z</time>
      </trkpt>
      <trkpt lat="44.9554" lon="3.97076">
        <ele>892</ele>
        <time>2023-02-07T16:08:16Z</time>
      </trkpt>
      <trkpt lat="44.9554" lon="3.97076">
        <ele>891</ele>
        <time>2023-02-07T16:08:16Z</time>
      </trkpt>
      <trkpt lat="44.95537" lon="3.97064">
        <ele>891</ele>
        <time>2023-02-07T16:08:16Z</time>
      </trkpt>
      <trkpt lat="44.95495" lon="3.97058">
        <ele>892</ele>
        <time>2023-02-07T16:08:16Z</time>
      </trkpt>
      <trkpt lat="44.95479" lon="3.97072">
        <ele>893</ele>
        <time>2023-02-07T16:08:16Z</time>
      </trkpt>
      <trkpt lat="44.95465" lon="3.97075">
        <ele>893</ele>
        <time>2023-02-07T16:08:16Z</time>
      </trkpt>
      <trkpt lat="44.95453" lon="3.971">
        <ele>894</ele>
        <time>2023-02-07T16:08:16Z</time>
      </trkpt>
      <trkpt lat="44.95386" lon="3.97106">
        <ele>898</ele>
        <time>2023-02-07T16:08:16Z</time>
      </trkpt>
      <trkpt lat="44.95347" lon="3.97117">
        <ele>902</ele>
        <time>2023-02-07T16:08:16Z</time>
      </trkpt>
      <trkpt lat="44.95338" lon="3.97123">
        <ele>905</ele>
        <time>2023-02-07T16:08:16Z</time>
      </trkpt>
      <trkpt lat="44.95339" lon="3.97103">
        <ele>907</ele>
        <time>2023-02-07T16:08:16Z</time>
      </trkpt>
      <trkpt lat="44.95334" lon="3.97094">
        <ele>909</ele>
        <time>2023-02-07T16:08:16Z</time>
      </trkpt>
      <trkpt lat="44.95287" lon="3.97082">
        <ele>914</ele>
        <time>2023-02-07T16:08:16Z</time>
      </trkpt>
      <trkpt lat="44.95208" lon="3.9704">
        <ele>924</ele>
        <time>2023-02-07T16:08:16Z</time>
      </trkpt>
      <trkpt lat="44.95122" lon="3.97022">
        <ele>937</ele>
        <time>2023-02-07T16:08:16Z</time>
      </trkpt>
      <trkpt lat="44.9503" lon="3.97038">
        <ele>950</ele>
        <time>2023-02-07T16:08:16Z</time>
      </trkpt>
      <trkpt lat="44.94954" lon="3.9703">
        <ele>959</ele>
        <time>2023-02-07T16:08:16Z</time>
      </trkpt>
      <trkpt lat="44.94945" lon="3.97032">
        <ele>964</ele>
        <time>2023-02-07T16:08:16Z</time>
      </trkpt>
      <trkpt lat="44.94875" lon="3.97002">
        <ele>968</ele>
        <time>2023-02-07T16:08:16Z</time>
      </trkpt>
      <trkpt lat="44.94866" lon="3.97002">
        <ele>971</ele>
        <time>2023-02-07T16:08:16Z</time>
      </trkpt>
      <trkpt lat="44.94829" lon="3.97022">
        <ele>972</ele>
        <time>2023-02-07T16:08:16Z</time>
      </trkpt>
      <trkpt lat="44.94782" lon="3.97068">
        <ele>974</ele>
        <time>2023-02-07T16:08:16Z</time>
      </trkpt>
      <trkpt lat="44.94773" lon="3.97073">
        <ele>976</ele>
        <time>2023-02-07T16:08:16Z</time>
      </trkpt>
      <trkpt lat="44.94779" lon="3.97093">
        <ele>976</ele>
        <time>2023-02-07T16:08:16Z</time>
      </trkpt>
      <trkpt lat="44.94779" lon="3.97093">
        <ele>980</ele>
        <time>2023-02-07T16:08:16Z</time>
      </trkpt>
      <trkpt lat="44.94784" lon="3.97112">
        <ele>981</ele>
        <time>2023-02-07T16:08:16Z</time>
      </trkpt>
      <trkpt lat="44.94782" lon="3.97132">
        <ele>981</ele>
        <time>2023-02-07T16:08:16Z</time>
      </trkpt>
      <trkpt lat="44.94768" lon="3.97151">
        <ele>981</ele>
        <time>2023-02-07T16:08:16Z</time>
      </trkpt>
      <trkpt lat="44.94749" lon="3.97166">
        <ele>981</ele>
        <time>2023-02-07T16:08:16Z</time>
      </trkpt>
      <trkpt lat="44.94737" lon="3.9717">
        <ele>981</ele>
        <time>2023-02-07T16:08:16Z</time>
      </trkpt>
      <trkpt lat="44.94714" lon="3.97167">
        <ele>982</ele>
        <time>2023-02-07T16:08:16Z</time>
      </trkpt>
      <trkpt lat="44.94667" lon="3.97179">
        <ele>982</ele>
        <time>2023-02-07T16:08:16Z</time>
      </trkpt>
      <trkpt lat="44.94621" lon="3.97216">
        <ele>984</ele>
        <time>2023-02-07T16:08:16Z</time>
      </trkpt>
      <trkpt lat="44.94608" lon="3.97236">
        <ele>984</ele>
        <time>2023-02-07T16:08:16Z</time>
      </trkpt>
      <trkpt lat="44.94603" lon="3.97248">
        <ele>984</ele>
        <time>2023-02-07T16:08:16Z</time>
      </trkpt>
      <trkpt lat="44.94586" lon="3.9733">
        <ele>984</ele>
        <time>2023-02-07T16:08:16Z</time>
      </trkpt>
      <trkpt lat="44.94586" lon="3.97341">
        <ele>984</ele>
        <time>2023-02-07T16:08:16Z</time>
      </trkpt>
      <trkpt lat="44.94594" lon="3.97382">
        <ele>985</ele>
        <time>2023-02-07T16:08:16Z</time>
      </trkpt>
      <trkpt lat="44.9461" lon="3.97553">
        <ele>986</ele>
        <time>2023-02-07T16:08:16Z</time>
      </trkpt>
      <trkpt lat="44.94605" lon="3.97575">
        <ele>987</ele>
        <time>2023-02-07T16:08:16Z</time>
      </trkpt>
      <trkpt lat="44.94604" lon="3.97586">
        <ele>988</ele>
        <time>2023-02-07T16:08:16Z</time>
      </trkpt>
      <trkpt lat="44.94605" lon="3.97599">
        <ele>988</ele>
        <time>2023-02-07T16:08:16Z</time>
      </trkpt>
      <trkpt lat="44.94618" lon="3.97638">
        <ele>989</ele>
        <time>2023-02-07T16:08:16Z</time>
      </trkpt>
      <trkpt lat="44.94635" lon="3.97763">
        <ele>990</ele>
        <time>2023-02-07T16:08:16Z</time>
      </trkpt>
      <trkpt lat="44.94614" lon="3.98082">
        <ele>993</ele>
        <time>2023-02-07T16:08:16Z</time>
      </trkpt>
      <trkpt lat="44.94614" lon="3.98082">
        <ele>997</ele>
        <time>2023-02-07T16:08:16Z</time>
      </trkpt>
      <trkpt lat="44.94622" lon="3.98197">
        <ele>996</ele>
        <time>2023-02-07T16:08:16Z</time>
      </trkpt>
      <trkpt lat="44.94634" lon="3.98236">
        <ele>994</ele>
        <time>2023-02-07T16:08:16Z</time>
      </trkpt>
      <trkpt lat="44.94652" lon="3.9827">
        <ele>991</ele>
        <time>2023-02-07T16:08:16Z</time>
      </trkpt>
      <trkpt lat="44.94662" lon="3.98279">
        <ele>988</ele>
        <time>2023-02-07T16:08:16Z</time>
      </trkpt>
      <trkpt lat="44.94667" lon="3.98314">
        <ele>985</ele>
        <time>2023-02-07T16:08:16Z</time>
      </trkpt>
      <trkpt lat="44.94668" lon="3.9843">
        <ele>977</ele>
        <time>2023-02-07T16:08:16Z</time>
      </trkpt>
      <trkpt lat="44.9468" lon="3.98477">
        <ele>969</ele>
        <time>2023-02-07T16:08:16Z</time>
      </trkpt>
      <trkpt lat="44.94666" lon="3.98596">
        <ele>960</ele>
        <time>2023-02-07T16:08:16Z</time>
      </trkpt>
      <trkpt lat="44.9469" lon="3.98758">
        <ele>951</ele>
        <time>2023-02-07T16:08:16Z</time>
      </trkpt>
      <trkpt lat="44.94673" lon="3.98846">
        <ele>945</ele>
        <time>2023-02-07T16:08:16Z</time>
      </trkpt>
      <trkpt lat="44.94673" lon="3.98846">
        <ele>930</ele>
        <time>2023-02-07T16:08:16Z</time>
      </trkpt>
      <trkpt lat="44.94663" lon="3.98887">
        <ele>930</ele>
        <time>2023-02-07T16:08:16Z</time>
      </trkpt>
      <trkpt lat="44.94676" lon="3.98902">
        <ele>930</ele>
        <time>2023-02-07T16:08:16Z</time>
      </trkpt>
      <trkpt lat="44.94659" lon="3.98932">
        <ele>931</ele>
        <time>2023-02-07T16:08:16Z</time>
      </trkpt>
      <trkpt lat="44.94495" lon="3.9905">
        <ele>932</ele>
        <time>2023-02-07T16:08:16Z</time>
      </trkpt>
      <trkpt lat="44.944" lon="3.99108">
        <ele>934</ele>
        <time>2023-02-07T16:08:16Z</time>
      </trkpt>
      <trkpt lat="44.94354" lon="3.99155">
        <ele>934</ele>
        <time>2023-02-07T16:08:16Z</time>
      </trkpt>
      <trkpt lat="44.94354" lon="3.99155">
        <ele>934</ele>
        <time>2023-02-07T16:08:16Z</time>
      </trkpt>
      <trkpt lat="44.94311" lon="3.99213">
        <ele>934</ele>
        <time>2023-02-07T16:08:16Z</time>
      </trkpt>
      <trkpt lat="44.94304" lon="3.99219">
        <ele>933</ele>
        <time>2023-02-07T16:08:16Z</time>
      </trkpt>
      <trkpt lat="44.94296" lon="3.99222">
        <ele>933</ele>
        <time>2023-02-07T16:08:16Z</time>
      </trkpt>
      <trkpt lat="44.94154" lon="3.99314">
        <ele>932</ele>
        <time>2023-02-07T16:08:16Z</time>
      </trkpt>
      <trkpt lat="44.9413" lon="3.99323">
        <ele>931</ele>
        <time>2023-02-07T16:08:16Z</time>
      </trkpt>
      <trkpt lat="44.94103" lon="3.99326">
        <ele>931</ele>
        <time>2023-02-07T16:08:16Z</time>
      </trkpt>
      <trkpt lat="44.94059" lon="3.99357">
        <ele>931</ele>
        <time>2023-02-07T16:08:16Z</time>
      </trkpt>
      <trkpt lat="44.94035" lon="3.99381">
        <ele>931</ele>
        <time>2023-02-07T16:08:16Z</time>
      </trkpt>
      <trkpt lat="44.94035" lon="3.99381">
        <ele>930</ele>
        <time>2023-02-07T16:08:16Z</time>
      </trkpt>
      <trkpt lat="44.94014" lon="3.994">
        <ele>930</ele>
        <time>2023-02-07T16:08:16Z</time>
      </trkpt>
      <trkpt lat="44.94005" lon="3.99405">
        <ele>930</ele>
        <time>2023-02-07T16:08:16Z</time>
      </trkpt>
      <trkpt lat="44.93975" lon="3.99406">
        <ele>929</ele>
        <time>2023-02-07T16:08:16Z</time>
      </trkpt>
      <trkpt lat="44.93942" lon="3.99421">
        <ele>929</ele>
        <time>2023-02-07T16:08:16Z</time>
      </trkpt>
      <trkpt lat="44.93908" lon="3.99471">
        <ele>930</ele>
        <time>2023-02-07T16:08:16Z</time>
      </trkpt>
      <trkpt lat="44.93896" lon="3.99497">
        <ele>930</ele>
        <time>2023-02-07T16:08:16Z</time>
      </trkpt>
      <trkpt lat="44.93885" lon="3.99542">
        <ele>932</ele>
        <time>2023-02-07T16:08:16Z</time>
      </trkpt>
      <trkpt lat="44.93889" lon="3.99561">
        <ele>933</ele>
        <time>2023-02-07T16:08:16Z</time>
      </trkpt>
      <trkpt lat="44.93907" lon="3.99593">
        <ele>936</ele>
        <time>2023-02-07T16:08:16Z</time>
      </trkpt>
      <trkpt lat="44.93916" lon="3.99602">
        <ele>937</ele>
        <time>2023-02-07T16:08:16Z</time>
      </trkpt>
      <trkpt lat="44.93917" lon="3.99626">
        <ele>939</ele>
        <time>2023-02-07T16:08:16Z</time>
      </trkpt>
    </trkseg>
  </trk>
</gpx>